[[[{"header":{"parameterUnit":"kt","parameterCategory":2,"dx":1,"dy":1,"la1":29.587661999999998,"la2":31.0,"lo1":-88.76705300000003,"lo2":-86.6583820000003,"nx":115,"ny":88,"refTime":"2022-09-30T18:00:00:Z","depth":0,"parameterNumber":1,"parameterNumberName":"U-component_of_WINDS"},"data":[7.5402,7.3505,7.1106,6.8619,6.6242,6.3937,6.2199,6.1003,6.0364,6.0118,6.0118,6.0118,6.0118,6.0118,6.0118,6.0062,5.9967,5.9589,5.8906,5.822,5.6842,5.5582,5.3957,5.208,4.916,4.7114,4.5671,4.49,4.4501,4.4501,4.4501,4.4501,4.4501,4.4501,4.4501,4.4501,4.4501,4.4501,4.4501,4.4501,4.4501,4.4501,4.4501,4.4501,4.4501,4.4501,4.4501,4.4501,4.4501,4.4501,4.4501,4.4501,4.4501,4.4501,4.4501,4.4501,4.4501,4.4501,4.4501,4.4501,4.4772,4.511,4.524,4.5422,4.5681,4.5629,4.5785,4.5837,4.6149,4.6798,4.7013,4.7428,4.7713,4.7791,4.7817,4.7817,4.7817,4.7817,4.7817,4.7817,4.7817,4.7817,4.7817,4.7817,4.7817,4.7817,4.7817,4.8024,4.82,4.8876,4.9603,5.0122,5.0642,5.1057,5.1291,5.0978,5.0431,4.9733,4.9109,4.8486,4.7998,4.7869,4.8336,4.9291,4.9759,5.007,5.0616,5.1291,5.0719,5.0044,4.9733,4.9265,4.8336,4.7817,4.7817,7.6563,7.5602,7.2936,7.0164,6.7489,6.5094,6.3146,6.1678,6.0533,6.0118,6.0118,6.0118,6.0118,6.0118,6.0118,6.0118,6.0062,5.9797,5.9532,5.8849,5.8028,5.7332,5.5992,5.4265,5.2175,4.9995,4.7203,4.583,4.4634,4.4501,4.4501,4.4501,4.4501,4.4501,4.4501,4.4501,4.4501,4.4501,4.4501,4.4501,4.4501,4.4501,4.4501,4.4501,4.4501,4.4501,4.4501,4.4501,4.4501,4.4501,4.4501,4.4501,4.4501,4.4501,4.4501,4.4501,4.4501,4.4501,4.4527,4.4579,4.4902,4.5214,4.5198,4.5509,4.6071,4.6253,4.6486,4.6616,4.6798,4.711,4.7239,4.7428,4.7661,4.7817,4.7817,4.7817,4.7817,4.7817,4.7817,4.7817,4.7817,4.7817,4.7817,4.7817,4.7817,4.7817,4.7921,4.8252,4.8564,4.9135,4.981,5.0408,5.0875,5.1057,5.1316,5.0899,5.0275,4.9577,4.8979,4.8512,4.805,4.7921,4.8232,4.9213,4.9836,5.0174,5.0719,5.1083,5.0564,4.9836,4.9499,4.9083,4.8232,4.7817,4.7817,7.7065,7.646,7.3454,7.0639,6.8082,6.5149,6.3091,6.1734,6.059,6.0118,6.0118,6.0118,6.0118,6.0118,6.0118,6.0118,6.0118,6.0118,5.9891,5.9701,5.9255,5.8939,5.7911,5.6324,5.4606,5.2439,4.9369,4.673,4.5233,4.4767,4.4501,4.4501,4.4501,4.4501,4.4501,4.4501,4.4501,4.4501,4.4501,4.4501,4.4501,4.4501,4.4501,4.4501,4.4501,4.4501,4.4501,4.4501,4.4501,4.4501,4.4501,4.4501,4.4501,4.4501,4.4501,4.4501,4.4501,4.4501,4.4631,4.4865,4.5266,4.5811,4.6045,4.6365,4.685,4.698,4.7213,4.7213,4.7395,4.7395,4.748,4.7506,4.7713,4.7817,4.7817,4.7817,4.7817,4.7817,4.7745,4.7745,4.7602,4.7602,4.753,4.753,4.7673,4.7673,4.7817,4.8024,4.8642,4.9213,5.0018,5.0668,5.1005,5.1239,5.1186,5.0691,4.9992,4.9421,4.8798,4.831,4.7947,4.7895,4.8102,4.9083,4.9785,5.0226,5.0512,5.0795,5.0356,4.9759,4.9343,4.8928,4.8336,4.7817,4.7817,7.7359,7.6714,7.3969,7.1114,6.8297,6.5094,6.3035,6.1734,6.059,6.0118,6.0118,6.0118,6.0118,6.0118,6.0118,6.0118,6.0118,6.0118,6.0176,6.0326,6.0398,6.0231,5.995,5.8359,5.6467,5.4265,5.1645,4.8677,4.6399,4.5033,4.4501,4.4501,4.4501,4.4501,4.4501,4.4501,4.4501,4.4501,4.4501,4.4501,4.4501,4.4501,4.4501,4.4501,4.4501,4.4501,4.4501,4.4501,4.4501,4.4501,4.4501,4.4501,4.4501,4.4501,4.4501,4.4501,4.4501,4.4501,4.4631,4.4928,4.5473,4.6097,4.6668,4.7265,4.7584,4.7739,4.7791,4.7765,4.7765,4.7765,4.7791,4.7765,4.7817,4.7817,4.7817,4.7817,4.7817,4.7745,4.7745,4.753,4.7314,4.717,4.7098,4.717,4.7386,4.7458,4.753,4.7984,4.8651,4.9525,5.033,5.0875,5.1213,5.1109,5.0797,5.0356,4.9733,4.9135,4.859,4.8154,4.7843,4.7947,4.8154,4.9031,4.981,5.0408,5.0797,5.0769,5.0353,4.9733,4.9239,4.8746,4.8154,4.7817,4.7817,7.7838,7.6408,7.4943,7.2083,6.792,6.53,6.3338,6.1734,6.0686,6.0156,6.0232,6.0194,6.0251,6.0498,6.0498,6.046,6.0498,6.0536,6.0745,6.1143,6.1368,6.1578,6.1413,6.0404,5.8236,5.5988,5.3362,5.0052,4.7615,4.5565,4.4501,4.4501,4.4501,4.4501,4.4501,4.4501,4.4501,4.4501,4.4501,4.4501,4.4501,4.4501,4.4501,4.4501,4.4501,4.4501,4.4501,4.4501,4.4501,4.4501,4.4501,4.4501,4.4501,4.4501,4.4501,4.4501,4.4501,4.4501,4.4657,4.5006,4.5577,4.6175,4.679,4.7239,4.7603,4.7713,4.7791,4.7817,4.7817,4.7817,4.7817,4.7817,4.7817,4.7817,4.7817,4.7817,4.7817,4.7817,4.753,4.6929,4.6569,4.5705,4.5633,4.5705,4.5752,4.6595,4.7035,4.7904,4.8767,4.9914,5.059,5.1135,5.1213,5.1135,5.0719,5.0174,4.9525,4.8902,4.833,4.7921,4.7817,4.7998,4.8258,4.9083,4.9862,5.0587,5.0927,5.0561,5.0096,4.9577,4.9057,4.8538,4.82,4.7869,4.7817,7.9097,7.814,7.7046,7.4471,7.0611,6.6125,6.3909,6.32,6.2123,6.16,6.16,6.1562,6.16,6.1466,6.1524,6.1524,6.1486,6.1448,6.158,6.215,6.2605,6.2794,6.2499,6.1452,5.9604,5.7197,5.4392,5.1189,4.8274,4.5963,4.4501,4.4501,4.4501,4.4501,4.4501,4.4501,4.4501,4.4501,4.4501,4.4501,4.4501,4.4501,4.4501,4.4501,4.4501,4.4501,4.4501,4.4501,4.4501,4.4501,4.4501,4.4501,4.4501,4.4501,4.4501,4.4501,4.4501,4.4501,4.4605,4.5006,4.5577,4.6175,4.679,4.711,4.7395,4.7661,4.7765,4.7817,4.7817,4.7817,4.7817,4.7817,4.7817,4.7817,4.7817,4.7817,4.7817,4.7817,4.7217,4.6497,4.5488,4.4549,4.4018,4.409,4.438,4.5418,4.639,4.7477,4.8705,4.9899,5.0645,5.1213,5.1213,5.1057,5.0564,5.0018,4.9395,4.8798,4.8252,4.7895,4.7843,4.7973,4.833,4.9031,4.9911,5.0613,5.1238,5.0691,4.994,4.9421,4.8902,4.8382,4.7947,4.7817,4.7817,8.0162,7.9183,7.807,7.5884,7.2833,6.8141,6.5213,6.404,6.3119,6.2588,6.2588,6.2588,6.2398,6.2588,6.2588,6.255,6.255,6.2588,6.2702,6.3006,6.3289,6.3322,6.2983,6.2124,6.0288,5.7809,5.5002,5.1904,4.8734,4.6492,4.5166,4.4568,4.4501,4.4501,4.4501,4.4501,4.4501,4.4501,4.4501,4.4501,4.4501,4.4501,4.4501,4.4501,4.4501,4.4501,4.4501,4.4501,4.4501,4.4501,4.4501,4.4501,4.4501,4.4501,4.4501,4.4501,4.4501,4.4527,4.4605,4.5006,4.5405,4.5915,4.6434,4.6746,4.7162,4.7454,4.7791,4.7817,4.7817,4.7817,4.7817,4.7817,4.7817,4.7817,4.7817,4.7817,4.7745,4.7458,4.6497,4.5633,4.4018,4.293,4.1549,4.1549,4.2177,4.4113,4.5763,4.719,4.8538,4.9652,5.0521,5.1136,5.1187,5.0875,5.0408,4.9862,4.9265,4.8694,4.818,4.7817,4.7817,4.7947,4.833,4.8876,4.9577,5.033,5.116,5.059,4.981,4.9265,4.8746,4.818,4.7817,4.7817,4.7817,8.0731,7.8697,7.7537,7.5752,7.3476,7.1594,6.8096,6.3784,6.3019,6.2702,6.2664,6.2816,6.2892,6.274,6.2702,6.2778,6.2892,6.2854,6.3234,6.363,6.3896,6.3789,6.343,6.2478,6.0331,5.7809,5.4938,5.1839,4.8734,4.6691,4.5432,4.4767,4.4501,4.4501,4.4501,4.4501,4.4501,4.4501,4.4501,4.4501,4.4501,4.4501,4.4501,4.4501,4.4501,4.4501,4.4501,4.4501,4.4501,4.4501,4.4501,4.4501,4.4501,4.4501,4.4501,4.4501,4.4501,4.4501,4.4579,4.4902,4.5292,4.5396,4.5889,4.646,4.6928,4.7324,4.7635,4.7765,4.7817,4.7817,4.7817,4.7817,4.7817,4.7817,4.7817,4.7745,4.7673,4.7027,4.6065,4.4525,4.2907,4.0798,3.9285,3.9013,3.9401,4.1526,4.3777,4.5505,4.7361,4.8688,5.0444,5.106,5.1031,5.0719,5.02,4.9655,4.9031,4.833,4.7869,4.7817,4.7817,4.7895,4.8387,4.9005,4.9473,5.0018,5.0745,5.0538,4.9785,4.9135,4.8543,4.8076,4.7817,4.7817,4.7817,8.2347,8.1197,8.0008,7.7869,7.5224,7.3476,7.0877,6.7664,6.5173,6.4124,6.4086,6.4086,6.4086,6.4086,6.4124,6.4124,6.4124,6.4124,6.4428,6.4466,6.4542,6.4204,6.3555,6.2551,6.0206,5.7301,5.4424,5.145,4.8142,4.6625,4.5498,4.4767,4.4501,4.4501,4.4501,4.4501,4.4501,4.4501,4.4501,4.4501,4.4501,4.4501,4.4501,4.4501,4.4501,4.4501,4.4501,4.4501,4.4501,4.4501,4.4501,4.4501,4.4501,4.4501,4.4501,4.4501,4.4501,4.4501,4.4501,4.4746,4.4798,4.485,4.5318,4.5889,4.646,4.7084,4.7376,4.7713,4.7791,4.7817,4.7817,4.7817,4.7817,4.7817,4.7817,4.7745,4.7602,4.6883,4.5921,4.3656,4.1672,3.8678,3.6421,3.6441,3.6559,3.9033,4.1632,4.3867,4.586,4.8253,5.0393,5.0854,5.0927,5.0308,4.9716,4.9125,4.8453,4.7947,4.7817,4.7817,4.7817,4.7973,4.8595,4.9191,4.9629,5.0044,5.059,5.0642,4.9966,4.9317,4.8517,4.8076,4.7869,4.7817,4.7817,8.3184,8.2522,8.1374,7.9436,7.7074,7.4996,7.2431,6.9645,6.7177,6.5511,6.5021,6.4898,6.4898,6.4898,6.4822,6.4784,6.4822,6.4898,6.4898,6.486,6.4822,6.4406,6.3419,6.1992,5.9829,5.6728,5.378,5.0733,4.7615,4.6294,4.5233,4.4634,4.4501,4.4501,4.4501,4.4501,4.4501,4.4501,4.4501,4.4501,4.4501,4.4501,4.4501,4.4501,4.4501,4.4501,4.4501,4.4501,4.4501,4.4501,4.4501,4.4501,4.4501,4.4501,4.4501,4.4501,4.4501,4.4501,4.4501,4.4501,4.4501,4.4709,4.5058,4.5655,4.6244,4.672,4.7265,4.7661,4.7791,4.7817,4.7817,4.7817,4.7817,4.7817,4.7817,4.7745,4.717,4.6451,4.491,4.2544,3.9535,3.6401,3.3836,3.3336,3.3719,3.5685,3.8311,4.068,4.4094,4.6904,4.9571,4.9958,5.0238,4.9623,4.901,4.8105,4.7423,4.7252,4.7314,4.7602,4.7947,4.8148,4.872,4.9395,4.9759,5.0122,5.0668,5.0953,5.0226,4.9395,4.8465,4.7895,4.7817,4.7817,4.7817,8.3184,8.2474,8.1429,8.0209,7.8762,7.6434,7.331,7.0022,6.8305,6.6609,6.5021,6.4898,6.4898,6.4898,6.4898,6.4898,6.4898,6.4898,6.4898,6.4898,6.4898,6.4136,6.2986,6.1493,5.9388,5.6123,5.307,5.0306,4.7511,4.6029,4.5166,4.4634,4.4501,4.4501,4.4501,4.4501,4.4501,4.4501,4.4501,4.4501,4.4501,4.4501,4.4501,4.4501,4.4501,4.4501,4.4501,4.4501,4.4501,4.4501,4.4501,4.4501,4.4501,4.4501,4.4501,4.4501,4.4501,4.4501,4.4501,4.4501,4.4501,4.4579,4.4824,4.5422,4.6071,4.6642,4.7136,4.7506,4.7765,4.7817,4.7817,4.7817,4.7817,4.7817,4.7817,4.7602,4.6497,4.5633,4.3148,4.0798,3.7263,3.3966,3.1834,3.0462,3.1002,3.2334,3.4956,3.8244,4.2021,4.5049,4.7715,4.8447,4.8892,4.8315,4.769,4.7018,4.6496,4.6677,4.6785,4.7242,4.7633,4.8206,4.8798,4.9473,4.994,5.0382,5.0823,5.1239,5.0434,4.9603,4.8569,4.7998,4.7843,4.7817,4.7817,8.3504,8.3178,8.2028,8.0812,7.937,7.6606,7.3777,7.1073,6.8846,6.6791,6.4959,6.4898,6.4898,6.4898,6.4898,6.4898,6.4898,6.4898,6.4898,6.4898,6.4775,6.4098,6.2924,6.1306,5.901,5.529,5.2358,4.9652,4.7049,4.5498,4.4834,4.4568,4.4501,4.4501,4.4501,4.4501,4.4501,4.4501,4.4501,4.4501,4.4501,4.4501,4.4501,4.4501,4.4501,4.4501,4.4501,4.4501,4.4501,4.4501,4.4501,4.4501,4.4501,4.4501,4.4501,4.4501,4.4501,4.4501,4.4501,4.4501,4.4501,4.4579,4.4813,4.5032,4.5551,4.6123,4.6772,4.7265,4.7609,4.7817,4.7817,4.7817,4.7817,4.7817,4.7817,4.7386,4.6281,4.4597,4.1963,3.9044,3.5571,3.2262,3.0198,2.8379,2.8611,2.8949,3.1953,3.5577,3.9499,4.2941,4.5595,4.6702,4.7091,4.6782,4.6345,4.5467,4.4644,4.4983,4.5921,4.6497,4.7617,4.8289,4.8902,4.9629,5.02,5.0743,5.1056,5.1213,5.0642,4.981,4.9265,4.8621,4.8361,4.7817,4.7817,8.3613,8.3504,8.2303,8.109,7.9706,7.6993,7.4242,7.1547,6.9266,6.7156,6.5266,6.5021,6.4898,6.4898,6.4898,6.4898,6.4898,6.4898,6.4898,6.4898,6.4775,6.4098,6.2924,6.1243,5.8884,5.5034,5.2034,4.9325,4.6784,4.5299,4.4701,4.4501,4.4501,4.4501,4.4501,4.4501,4.4501,4.4501,4.4501,4.4501,4.4501,4.4501,4.4501,4.4501,4.4501,4.4501,4.4501,4.4501,4.4501,4.4501,4.4501,4.4501,4.4501,4.4501,4.4501,4.4501,4.4501,4.4501,4.4501,4.4735,4.4772,4.4839,4.4683,4.4787,4.5302,4.5889,4.6434,4.698,4.748,4.7791,4.7817,4.7817,4.7817,4.7817,4.7602,4.7098,4.5849,4.3946,4.1381,3.7798,3.4243,3.0926,2.8632,2.6552,2.6068,2.5993,2.9302,3.2834,3.697,4.0645,4.3019,4.4524,4.461,4.4405,4.3693,4.3302,4.2928,4.3801,4.491,4.612,4.7486,4.8256,4.9114,4.981,5.0535,5.0925,5.1109,5.1265,5.0823,4.994,4.9447,4.9109,4.8491,4.7869,4.7817,8.3515,8.3407,8.2207,8.0995,7.9706,7.7392,7.4634,7.1724,6.9686,6.7701,6.6,6.5266,6.4898,6.4898,6.4898,6.4898,6.4898,6.4898,6.4898,6.4898,6.4775,6.4136,6.296,6.1243,5.8884,5.497,5.2034,4.9325,4.6955,4.5233,4.4634,4.4501,4.4501,4.4501,4.4501,4.4501,4.4501,4.4501,4.4501,4.4501,4.4501,4.4501,4.4501,4.4501,4.4501,4.4501,4.4501,4.4501,4.4501,4.4501,4.4631,4.4709,4.4787,4.4839,4.4943,4.4943,4.4917,4.4943,4.4995,4.5188,4.537,4.524,4.498,4.4798,4.511,4.5759,4.6356,4.685,4.7246,4.7609,4.7791,4.7817,4.7817,4.7817,4.7673,4.7027,4.5633,4.3583,4.0433,3.6622,3.3152,2.9974,2.7526,2.5877,2.5104,2.5487,2.8427,3.0203,3.4382,3.8143,4.0429,4.1908,4.1993,4.1591,4.0985,4.0885,4.0726,4.1526,4.3148,4.4936,4.6934,4.8373,4.9354,5.0024,5.0743,5.1005,5.1291,5.1213,5.0901,5.0044,4.9369,4.8953,4.8361,4.7921,4.7817,8.2392,8.2285,8.1203,8.0379,7.9706,7.7381,7.4866,7.2297,6.9865,6.8003,6.6609,6.5449,6.4898,6.4898,6.4898,6.4898,6.4898,6.4898,6.4898,6.4898,6.4775,6.4136,6.28,6.1368,5.8758,5.4778,5.1969,4.923,4.6955,4.5366,4.4501,4.4501,4.4501,4.4501,4.4501,4.4501,4.4501,4.4501,4.4501,4.4501,4.4501,4.4501,4.4501,4.4501,4.4501,4.4501,4.4501,4.4527,4.4553,4.4657,4.4876,4.511,4.5162,4.5464,4.5646,4.5672,4.5802,4.5828,4.5837,4.5837,4.5967,4.5811,4.5525,4.5006,4.4954,4.5214,4.5811,4.6504,4.698,4.7402,4.7687,4.7817,4.7817,4.7817,4.7817,4.6811,4.5488,4.3003,3.9995,3.6327,3.2781,2.9453,2.7226,2.5427,2.4868,2.5271,2.6398,2.8056,3.1495,3.5432,3.7529,3.8991,3.8861,3.8432,3.7887,3.7733,3.8402,3.919,4.1235,4.3359,4.596,4.7712,4.9264,5.0231,5.0875,5.1161,5.1291,5.1161,5.0979,5.02,4.9473,4.8928,4.8336,4.7998,4.7817,8.0878,8.1261,8.0572,7.9858,7.8999,7.72,7.4982,7.2532,6.9984,6.8124,6.6791,6.5511,6.4898,6.4898,6.4898,6.4898,6.4898,6.4898,6.4898,6.4898,6.4529,6.3827,6.2489,6.0707,5.8189,5.4457,5.1549,4.8837,4.6691,4.51,4.4501,4.4501,4.4501,4.4501,4.4501,4.4501,4.4501,4.4501,4.4501,4.4501,4.4501,4.4501,4.4501,4.4501,4.4501,4.4683,4.4772,4.4891,4.4928,4.5334,4.5473,4.5707,4.5811,4.5993,4.6296,4.6348,4.6616,4.6902,4.6876,4.6694,4.6616,4.6434,4.6045,4.5473,4.5058,4.5214,4.5603,4.6218,4.672,4.7291,4.7661,4.7791,4.7817,4.7817,4.7817,4.6811,4.5344,4.2713,3.9922,3.6161,3.2559,3.0049,2.766,2.6056,2.5221,2.5359,2.6044,2.7234,2.9739,3.2711,3.4195,3.5749,3.5751,3.5297,3.4831,3.452,3.532,3.6548,3.8604,4.2034,4.4778,4.7367,4.9169,5.0312,5.0776,5.1033,5.1265,5.1135,5.0747,5.0151,4.9603,4.8876,4.8128,4.7869,4.7817,7.9115,8.0083,8.0049,7.9391,7.8254,7.6861,7.4908,7.2532,6.9925,6.8124,6.6791,6.5572,6.4898,6.4898,6.4898,6.4898,6.4898,6.4898,6.4898,6.4836,6.4283,6.3295,6.1805,5.9766,5.6886,5.3491,5.0799,4.818,4.5841,4.4717,4.4371,4.4397,4.4397,4.4501,4.4501,4.4501,4.4501,4.4501,4.4501,4.4501,4.4501,4.4501,4.4579,4.4631,4.4709,4.4917,4.537,4.5448,4.5603,4.614,4.627,4.6374,4.6374,4.64,4.6478,4.6694,4.7213,4.7791,4.7635,4.7395,4.7162,4.7058,4.6616,4.6097,4.5707,4.5535,4.5525,4.6192,4.659,4.711,4.7454,4.7739,4.7817,4.7817,4.7817,4.7027,4.5705,4.3511,4.0725,3.7043,3.3818,3.1074,2.8333,2.685,2.5483,2.5356,2.5497,2.6357,2.7825,2.9343,3.0939,3.2691,3.3154,3.2401,3.1833,3.1832,3.2569,3.3688,3.6855,4.0399,4.3407,4.6316,4.839,4.9934,5.0342,5.0675,5.0598,5.047,5.044,5.005,4.9658,4.8906,4.805,4.7869,4.7817,7.8092,7.9014,7.8588,7.8389,7.8076,7.6472,7.458,7.2405,6.9925,6.8063,6.6791,6.5572,6.4898,6.4898,6.4898,6.4898,6.4898,6.4898,6.4898,6.4775,6.416,6.2862,6.1118,5.8884,5.5994,5.2393,4.9761,4.7496,4.5098,4.4166,4.3785,4.3915,4.4345,4.4501,4.4501,4.4501,4.4501,4.4501,4.4501,4.4501,4.4501,4.4527,4.4709,4.511,4.5162,4.5448,4.5967,4.6045,4.6149,4.6382,4.6642,4.6876,4.6954,4.7246,4.748,4.7577,4.7661,4.7791,4.7791,4.7609,4.7558,4.7532,4.7162,4.6876,4.6538,4.5941,4.5473,4.5577,4.6097,4.672,4.7239,4.7558,4.7765,4.7817,4.7745,4.7386,4.6065,4.4163,4.1381,3.873,3.5203,3.2337,2.9602,2.7825,2.6082,2.5781,2.5353,2.6145,2.687,2.7958,2.8826,3.0258,3.0643,2.9875,2.9486,2.9502,3.0072,3.1703,3.508,3.8915,4.2167,4.5301,4.7372,4.9268,4.9648,4.9442,4.9596,4.9573,4.9527,4.9521,4.9486,4.9088,4.8206,4.7843,4.7817,7.7507,7.7993,7.7969,7.7985,7.771,7.6294,7.4645,7.2799,7.0104,6.8063,6.6791,6.5572,6.4898,6.4898,6.4898,6.4898,6.4898,6.4898,6.4898,6.4591,6.3604,6.2054,6.0429,5.7618,5.4457,5.1424,4.8457,4.6063,4.4256,4.3708,4.3604,4.3642,4.4149,4.4501,4.4501,4.4501,4.4501,4.4501,4.4501,4.4501,4.4501,4.4772,4.5188,4.5603,4.5785,4.6071,4.6486,4.6686,4.672,4.7006,4.7221,4.735,4.7454,4.7609,4.7791,4.7765,4.7791,4.7817,4.7817,4.7817,4.7817,4.7765,4.7558,4.7298,4.6883,4.6538,4.6123,4.6019,4.6279,4.6746,4.7006,4.748,4.7765,4.7817,4.7817,4.7458,4.6497,4.4838,4.3052,4.1089,3.7704,3.4539,3.1371,2.8772,2.6912,2.5957,2.552,2.5935,2.6537,2.7262,2.7906,2.8869,2.9089,2.833,2.7661,2.7583,2.775,3.028,3.3497,3.7358,4.0867,4.4159,4.6551,4.7672,4.8001,4.787,4.8103,4.8416,4.8615,4.8716,4.8908,4.9014,4.8211,4.7817,4.7817,7.7165,7.7164,7.7634,7.7768,7.7537,7.6268,7.4808,7.3107,7.0301,6.8244,6.6791,6.5511,6.4898,6.4898,6.4898,6.4898,6.4898,6.4898,6.4836,6.4406,6.2949,6.1082,5.9199,5.6409,5.3264,5.023,4.7449,4.5157,4.3904,4.3578,4.3578,4.3708,4.4149,4.4501,4.4501,4.4501,4.4501,4.4501,4.4501,4.4631,4.472,4.5084,4.5577,4.6279,4.6331,4.6642,4.7058,4.7213,4.7324,4.7765,4.7791,4.7791,4.7765,4.7765,4.7817,4.7817,4.7817,4.7817,4.7817,4.7817,4.7817,4.7817,4.7765,4.7532,4.7246,4.7032,4.6694,4.6538,4.6668,4.6902,4.7032,4.748,4.7765,4.7817,4.7817,4.7602,4.6857,4.5705,4.4332,4.2858,4.0119,3.7043,3.3504,3.0504,2.8369,2.6873,2.6233,2.6156,2.6376,2.6779,2.714,2.7403,2.7595,2.6945,2.616,2.5979,2.652,2.9372,3.2167,3.6103,3.9484,4.2868,4.4279,4.4401,4.476,4.5228,4.617,4.7005,4.7268,4.7565,4.816,4.8863,4.8315,4.7817,4.7817,7.7165,7.7165,7.726,7.7454,7.7508,7.634,7.4903,7.3298,7.0717,6.8566,6.6913,6.5449,6.4898,6.4898,6.4898,6.4898,6.4898,6.4898,6.4591,6.4037,6.2613,6.0644,5.8125,5.5387,5.2294,4.8976,4.6715,4.4973,4.3904,4.3578,4.3578,4.3682,4.4175,4.4475,4.4501,4.4501,4.4501,4.4501,4.4527,4.4683,4.511,4.525,4.5872,4.6642,4.6876,4.7188,4.748,4.7609,4.7687,4.7791,4.7817,4.7817,4.7817,4.7817,4.7817,4.7817,4.7817,4.7817,4.7817,4.7817,4.7817,4.7817,4.7817,4.7739,4.7584,4.7272,4.711,4.6876,4.6668,4.6712,4.7032,4.7551,4.7765,4.7817,4.7817,4.7745,4.7458,4.6883,4.5633,4.4187,4.1672,3.8803,3.5424,3.2293,2.9872,2.7778,2.6903,2.6282,2.6189,2.6269,2.6443,2.6706,2.658,2.6105,2.5519,2.5283,2.6244,2.8656,3.1088,3.4589,3.791,4.0243,4.149,4.143,4.1551,4.21,4.2919,4.4466,4.5644,4.6313,4.6945,4.7992,4.8165,4.7895,4.7817,7.7165,7.7165,7.7165,7.7519,7.7833,7.647,7.5326,7.404,7.115,6.8866,6.7277,6.5633,6.4898,6.4898,6.4898,6.4898,6.4898,6.4898,6.4591,6.3728,6.2241,6.0241,5.7682,5.4745,5.171,4.8751,4.6612,4.4973,4.3904,4.3578,4.3604,4.363,4.4215,4.4475,4.4501,4.4501,4.4501,4.4501,4.4527,4.4813,4.5318,4.5629,4.6279,4.6902,4.7343,4.7506,4.7765,4.7817,4.7817,4.7817,4.7817,4.7817,4.7817,4.7817,4.7817,4.7817,4.7817,4.7817,4.7817,4.7817,4.7817,4.7817,4.7817,4.7817,4.7713,4.7609,4.7428,4.7369,4.7058,4.672,4.7032,4.748,4.7765,4.7817,4.7817,4.7817,4.7745,4.7458,4.6739,4.5416,4.3148,4.0433,3.7606,3.4615,3.2136,3.0011,2.8992,2.7899,2.7656,2.7097,2.6879,2.6291,2.5996,2.5557,2.4992,2.5185,2.6135,2.7731,3.0086,3.3105,3.5793,3.7284,3.8518,3.8537,3.838,3.8932,4.0289,4.2019,4.3493,4.5066,4.65,4.7299,4.7787,4.7823,4.7817,7.7165,7.7165,7.7165,7.7721,7.8151,7.6739,7.577,7.5111,7.1682,6.9346,6.7701,6.5939,6.5082,6.4898,6.4898,6.4898,6.4898,6.4898,6.4652,6.3889,6.2054,5.9864,5.7398,5.4456,5.135,4.878,4.6723,4.516,4.4113,4.3837,4.3785,4.3837,4.4319,4.4501,4.4501,4.4501,4.4501,4.4501,4.4501,4.4891,4.5473,4.6062,4.6582,4.7239,4.7558,4.7791,4.7817,4.7817,4.7817,4.7817,4.7817,4.7817,4.7817,4.7817,4.7817,4.7817,4.7817,4.7817,4.7817,4.7817,4.7817,4.7817,4.7817,4.7817,4.7817,4.7791,4.7791,4.7739,4.7499,4.7195,4.7246,4.7584,4.7765,4.7817,4.7817,4.7817,4.7817,4.7817,4.7386,4.6425,4.4741,4.2762,4.0331,3.7049,3.465,3.2505,3.1075,2.9902,2.9154,2.8484,2.7849,2.6942,2.6443,2.5636,2.5123,2.4975,2.562,2.6665,2.8947,3.1624,3.3273,3.4752,3.4541,3.4752,3.5309,3.6718,3.8063,3.9826,4.2169,4.437,4.6279,4.7005,4.7612,4.7777,4.7817,7.7165,7.7165,7.7165,7.7721,7.8204,7.7215,7.6157,7.5064,7.2548,7.0063,6.7943,6.6426,6.5449,6.4898,6.4898,6.4898,6.4898,6.4898,6.4775,6.4037,6.2365,5.9675,5.7143,5.423,5.135,4.8771,4.7258,4.5762,4.4584,4.4345,4.4397,4.4371,4.4423,4.4501,4.4501,4.4501,4.4501,4.4501,4.4501,4.4995,4.5828,4.6045,4.659,4.7324,4.7687,4.7713,4.7791,4.7817,4.7817,4.7817,4.7817,4.7817,4.7817,4.7817,4.7817,4.7817,4.7817,4.7817,4.7817,4.7817,4.7817,4.7817,4.7817,4.7817,4.7817,4.7817,4.7817,4.7817,4.7765,4.7661,4.7661,4.7739,4.7817,4.7791,4.7791,4.7791,4.7817,4.7817,4.753,4.6667,4.5921,4.4163,4.1986,3.9569,3.7223,3.5244,3.3524,3.227,3.1179,3.0218,2.9111,2.795,2.6873,2.5924,2.5318,2.4716,2.5091,2.5626,2.791,2.9482,3.1195,3.1611,3.1068,3.1339,3.2681,3.4098,3.5853,3.8244,4.0698,4.3014,4.5322,4.6513,4.734,4.753,4.7817,7.7165,7.7165,7.7165,7.7382,7.7541,7.7041,7.6103,7.4746,7.2703,7.0461,6.8425,6.667,6.5511,6.4959,6.4898,6.4898,6.4898,6.4898,6.4898,6.4591,6.2986,6.0241,5.7016,5.4166,5.138,4.8668,4.7285,4.5896,4.4701,4.4501,4.4501,4.4501,4.4501,4.4501,4.4501,4.4501,4.4501,4.4501,4.4527,4.4891,4.5629,4.5707,4.6331,4.7162,4.7395,4.7532,4.7791,4.7817,4.7817,4.7791,4.7817,4.7817,4.7817,4.7817,4.7817,4.7817,4.7817,4.7817,4.7817,4.7817,4.7817,4.7817,4.7817,4.7817,4.7817,4.7817,4.7817,4.7817,4.7817,4.7817,4.7817,4.7817,4.7817,4.7791,4.7532,4.7395,4.7395,4.7136,4.6872,4.6724,4.614,4.5046,4.3583,4.1966,4.0063,3.8115,3.6294,3.4724,3.3188,3.1815,3.0486,2.8949,2.7701,2.6466,2.5558,2.484,2.481,2.5091,2.6706,2.7649,2.8837,2.9307,2.9257,2.9643,3.0443,3.1722,3.4033,3.6402,3.9173,4.2041,4.413,4.5804,4.6764,4.7314,4.7673,7.7165,7.7165,7.7165,7.7092,7.6969,7.6524,7.5626,7.4343,7.2423,7.0363,6.8445,6.6796,6.5755,6.4959,6.4898,6.4898,6.4898,6.4898,6.4898,6.4714,6.3543,6.1056,5.8033,5.4585,5.138,4.8734,4.7313,4.5896,4.4568,4.4501,4.4501,4.4501,4.4501,4.4501,4.4501,4.4501,4.4501,4.4501,4.4501,4.4813,4.5266,4.5302,4.5837,4.6746,4.6824,4.7032,4.7369,4.7577,4.7558,4.7473,4.748,4.7661,4.7791,4.7817,4.7817,4.7817,4.7817,4.7817,4.7817,4.7817,4.7817,4.7817,4.7817,4.7817,4.7817,4.7817,4.7817,4.7817,4.7817,4.7817,4.7817,4.7817,4.7817,4.7739,4.7421,4.7032,4.6824,4.653,4.6426,4.6746,4.6487,4.5821,4.4882,4.3845,4.2743,4.1081,3.9443,3.7839,3.608,3.444,3.2367,3.0614,2.8384,2.7014,2.5802,2.4902,2.4508,2.4889,2.5621,2.6641,2.7146,2.7636,2.7811,2.809,2.8942,3.0466,3.2589,3.4734,3.8099,4.1333,4.33,4.4911,4.5874,4.6569,4.6883,7.7165,7.7165,7.7165,7.7092,7.6778,7.5866,7.4717,7.3431,7.1866,6.9768,6.7819,6.6787,6.5967,6.5105,6.4746,6.4822,6.4898,6.4898,6.4898,6.4515,6.358,6.2116,5.9927,5.5547,5.174,4.88,4.7313,4.5896,4.4568,4.4501,4.4501,4.4501,4.4501,4.4501,4.4501,4.4501,4.4501,4.4501,4.4501,4.4787,4.5172,4.5292,4.5629,4.6201,4.6253,4.6305,4.6486,4.6798,4.6798,4.653,4.685,4.7317,4.7687,4.7817,4.7817,4.7817,4.7817,4.7817,4.7817,4.7817,4.7817,4.7817,4.7817,4.7817,4.7817,4.7817,4.7817,4.7817,4.7817,4.7817,4.7817,4.7817,4.7791,4.7739,4.7291,4.6746,4.6331,4.6244,4.6166,4.6279,4.6624,4.6634,4.5745,4.5385,4.4596,4.3482,4.2086,4.032,3.8549,3.633,3.4404,3.1948,2.9194,2.772,2.6252,2.538,2.4574,2.4878,2.5364,2.5987,2.635,2.647,2.6605,2.6925,2.7562,2.9425,3.1406,3.3561,3.6345,3.9287,4.1587,4.358,4.4621,4.5127,4.5513,7.7165,7.7165,7.7165,7.6955,7.648,7.5647,7.4372,7.2843,7.1059,6.8928,6.687,6.5724,6.4906,6.4306,6.42,6.4466,6.486,6.4898,6.4693,6.4131,6.3283,6.2277,6.0555,5.708,5.3231,4.9193,4.7285,4.5896,4.4568,4.4501,4.4501,4.4501,4.4501,4.4501,4.4501,4.4501,4.4501,4.4501,4.4501,4.4605,4.472,4.4839,4.5058,4.5551,4.5655,4.5837,4.6175,4.6019,4.5889,4.5811,4.6201,4.6772,4.7317,4.7609,4.7817,4.7817,4.7791,4.7791,4.7817,4.7739,4.7817,4.7817,4.7817,4.7791,4.7817,4.7817,4.7817,4.7817,4.7817,4.7817,4.7817,4.7817,4.7635,4.735,4.685,4.6305,4.5759,4.5412,4.5334,4.5629,4.5863,4.5914,4.5911,4.5729,4.5603,4.5227,4.3737,4.1926,4.034,3.7885,3.5194,3.2569,2.9965,2.8095,2.6792,2.5702,2.4805,2.4854,2.5235,2.5514,2.5856,2.5962,2.6001,2.6323,2.6601,2.8388,2.9611,3.1935,3.4146,3.6569,3.9045,4.0842,4.2277,4.3003,4.3534,7.7165,7.7165,7.7165,7.6914,7.6307,7.5393,7.3998,7.2178,7.0386,6.8141,6.5943,6.4738,6.3978,6.3528,6.3424,6.3668,6.42,6.42,6.3896,6.3336,6.2783,6.1686,6.0094,5.7935,5.4329,4.9947,4.757,4.5923,4.4701,4.4501,4.4501,4.4501,4.4501,4.4501,4.4501,4.4501,4.4501,4.4501,4.4501,4.4501,4.4501,4.4527,4.4709,4.5006,4.5058,4.524,4.5672,4.5292,4.5058,4.5058,4.5629,4.6201,4.672,4.7162,4.7369,4.7369,4.7369,4.7369,4.7369,4.7272,4.7317,4.7343,4.7343,4.735,4.7506,4.7532,4.7609,4.7791,4.7817,4.7817,4.7765,4.7687,4.7369,4.685,4.6279,4.5759,4.5396,4.485,4.4761,4.498,4.5214,4.5382,4.561,4.6179,4.6349,4.6237,4.5202,4.3653,4.2079,3.9351,3.6347,3.3318,3.0496,2.8124,2.6777,2.5571,2.4841,2.4788,2.5078,2.5395,2.5711,2.5909,2.5936,2.611,2.6281,2.7099,2.8181,2.9868,3.1944,3.4225,3.6018,3.7692,3.9285,4.0236,4.082,7.7116,7.697,7.7116,7.6671,7.607,7.4903,7.3304,7.1256,6.9738,6.7348,6.4839,6.4383,6.3475,6.2766,6.2588,6.2588,6.2626,6.2702,6.2664,6.2508,6.1872,6.0597,5.895,5.7383,5.4727,5.1409,4.8225,4.5936,4.4568,4.4501,4.4501,4.4501,4.4501,4.4501,4.4501,4.4501,4.4501,4.4501,4.4501,4.4501,4.4501,4.4501,4.4553,4.4553,4.4579,4.4605,4.4605,4.4579,4.4605,4.4631,4.5058,4.5603,4.6123,4.64,4.6348,4.6426,4.6374,4.6348,4.6374,4.6426,4.6478,4.6478,4.6374,4.659,4.6954,4.7058,4.7239,4.7506,4.7635,4.7713,4.7584,4.7291,4.6746,4.6348,4.5707,4.537,4.5188,4.4798,4.4527,4.4631,4.4928,4.5318,4.5535,4.6166,4.6768,4.6866,4.646,4.5465,4.3242,4.0813,3.7945,3.4502,3.1091,2.8423,2.6852,2.5455,2.4966,2.4709,2.4999,2.5381,2.5632,2.5804,2.583,2.5738,2.5896,2.5888,2.6994,2.7795,2.9789,3.1423,3.2743,3.441,3.5812,3.6916,3.7671,7.5652,7.4969,7.492,7.4822,7.4529,7.3152,7.1708,7.0236,6.8128,6.5846,6.3749,6.2896,6.2276,6.1735,6.1656,6.139,6.0992,6.1428,6.1656,6.1674,6.1556,6.0675,5.9157,5.707,5.4472,5.1613,4.8694,4.6309,4.4715,4.4501,4.4501,4.4501,4.4501,4.4501,4.4501,4.4501,4.4501,4.4501,4.4501,4.4501,4.4501,4.4501,4.4501,4.4501,4.4501,4.4501,4.4501,4.4501,4.4501,4.4527,4.4683,4.5006,4.5577,4.6062,4.6296,4.6296,4.627,4.6296,4.6296,4.6296,4.627,4.627,4.627,4.6322,4.6504,4.6556,4.6608,4.6694,4.6746,4.6746,4.6642,4.6227,4.5837,4.5603,4.5084,4.4746,4.472,4.4631,4.4527,4.4527,4.4709,4.4928,4.5344,4.6019,4.6564,4.7006,4.6812,4.5968,4.4042,4.1476,3.8405,3.5093,3.1537,2.8797,2.6927,2.5352,2.4508,2.467,2.4947,2.5341,2.5632,2.5725,2.5751,2.5553,2.5486,2.5335,2.5577,2.615,2.7435,2.9021,3.033,3.1297,3.2337,3.3522,3.4206,7.4578,7.3847,7.3846,7.3846,7.3654,7.2395,7.1122,6.978,6.7478,6.5145,6.3047,6.1986,6.1284,6.0821,6.0821,6.0517,6.0138,6.0555,6.0821,6.0839,6.0888,6.012,5.8649,5.6815,5.4323,5.1391,4.8849,4.6475,4.4401,4.4149,4.4293,4.4475,4.4501,4.4501,4.4501,4.4501,4.4501,4.4501,4.4501,4.4501,4.4501,4.4501,4.4501,4.4501,4.4501,4.4501,4.4501,4.4501,4.4501,4.4501,4.4501,4.4683,4.5006,4.537,4.562,4.5646,4.5646,4.5646,4.562,4.562,4.5646,4.5646,4.5646,4.5672,4.5837,4.5889,4.5993,4.6244,4.6296,4.601,4.5724,4.5266,4.5006,4.498,4.4735,4.4527,4.4501,4.4501,4.4501,4.4501,4.4527,4.4631,4.5006,4.5525,4.6097,4.6668,4.6814,4.603,4.4404,4.1913,3.8845,3.5389,3.176,2.8573,2.6866,2.5352,2.4353,2.4604,2.4828,2.5105,2.5237,2.5316,2.5421,2.5224,2.5065,2.4928,2.4805,2.5332,2.5694,2.7062,2.7436,2.8408,2.9229,3.0421,3.1017,7.3797,7.3797,7.3748,7.3602,7.3604,7.2496,7.1228,6.9564,6.7494,6.5198,6.2895,6.1732,6.0763,5.9985,6.0004,5.9986,5.9986,6.0062,6.0194,6.0138,6.0138,5.9057,5.7245,5.6509,5.4368,5.0941,4.8698,4.6284,4.3838,4.3591,4.3837,4.4423,4.4423,4.4475,4.4501,4.4501,4.4501,4.4501,4.4501,4.4501,4.4501,4.4501,4.4501,4.4501,4.4501,4.4501,4.4501,4.4501,4.4501,4.4501,4.4501,4.4501,4.4527,4.4553,4.4579,4.4579,4.4553,4.4527,4.4527,4.4527,4.4475,4.4449,4.4501,4.4642,4.5042,4.5266,4.5499,4.6088,4.6036,4.5672,4.4813,4.4657,4.4579,4.4579,4.4527,4.4501,4.4501,4.4501,4.4501,4.4501,4.4501,4.4553,4.4553,4.498,4.5629,4.6201,4.672,4.6414,4.462,4.2422,3.9337,3.5684,3.1983,2.8647,2.7016,2.5577,2.4601,2.4419,2.4541,2.4725,2.4868,2.492,2.4907,2.4854,2.4736,2.4577,2.4393,2.4526,2.4902,2.5202,2.5727,2.6102,2.7286,2.7735,2.8258,7.2723,7.2624,7.1892,7.1599,7.1506,7.0525,6.939,6.8098,6.6342,6.427,6.2126,6.1482,6.0319,5.8975,5.8975,5.9075,5.915,5.9758,6.0118,6.0118,6.0118,5.9285,5.782,5.6363,5.4155,5.1234,4.838,4.6131,4.4634,4.3578,4.3266,4.3734,4.3811,4.4085,4.4449,4.4501,4.4501,4.4501,4.4501,4.4501,4.4501,4.4501,4.4501,4.4501,4.4501,4.4501,4.4501,4.4501,4.4501,4.4501,4.4501,4.4501,4.4501,4.4501,4.4501,4.4501,4.4501,4.4319,4.3837,4.3811,4.363,4.3292,4.3604,4.3889,4.4097,4.4461,4.4813,4.4995,4.4995,4.4943,4.4527,4.4501,4.4501,4.4501,4.4501,4.4501,4.4501,4.4501,4.4501,4.4501,4.4501,4.4501,4.4579,4.4954,4.5457,4.6097,4.6668,4.6531,4.5196,4.3076,4.0287,3.6401,3.2559,2.9602,2.7885,2.6177,2.4977,2.4593,2.4449,2.4633,2.4699,2.4712,2.4699,2.4696,2.4525,2.438,2.4314,2.4301,2.4526,2.4601,2.4676,2.4977,2.5577,2.5877,2.6252,7.1696,7.1599,7.101,7.0765,7.0582,6.9659,6.8633,6.7501,6.5646,6.3709,6.1844,6.0849,5.9666,5.8191,5.8242,5.8256,5.8277,5.9112,5.9548,5.953,5.9872,5.9399,5.8049,5.6461,5.4257,5.1413,4.8232,4.5945,4.4458,4.3105,4.2695,4.3188,4.324,4.3526,4.4045,4.4097,4.4293,4.4501,4.4501,4.4397,4.4215,4.4371,4.4501,4.4501,4.4501,4.4423,4.4189,4.4163,4.4033,4.3825,4.3825,4.3825,4.3799,4.3825,4.3799,4.3799,4.3825,4.3578,4.324,4.324,4.3084,4.2837,4.3058,4.3344,4.3486,4.3889,4.4097,4.4123,4.4397,4.4501,4.4527,4.4501,4.4501,4.4501,4.4501,4.4501,4.4501,4.4501,4.4501,4.4501,4.4501,4.4501,4.4579,4.4813,4.5188,4.5785,4.6356,4.6313,4.5283,4.3393,4.0557,3.7137,3.3892,3.1,2.8333,2.6552,2.5352,2.4553,2.4459,2.4475,2.4475,2.4488,2.4564,2.4475,2.4432,2.4327,2.4287,2.4301,2.4301,2.4376,2.4301,2.4301,2.4301,2.4676,2.4902,7.0765,7.0765,7.0814,7.0765,7.0628,6.9706,6.8679,6.7455,6.5496,6.3592,6.1714,6.0093,5.8782,5.7866,5.7524,5.742,5.7496,5.8201,5.8581,5.8695,5.9454,5.9154,5.7902,5.6735,5.4595,5.1557,4.8467,4.6032,4.4147,4.2697,4.2197,4.2539,4.2707,4.2928,4.3448,4.3435,4.3759,4.4345,4.4345,4.4085,4.3578,4.4085,4.4345,4.4345,4.4345,4.4045,4.3526,4.35,4.3266,4.2863,4.2773,4.2811,4.2837,4.2811,4.2747,4.2837,4.2695,4.2733,4.2643,4.2565,4.2499,4.2513,4.2551,4.2773,4.3253,4.3396,4.3448,4.3682,4.4137,4.4397,4.4501,4.4501,4.4501,4.4501,4.4501,4.4501,4.4501,4.4501,4.4501,4.4501,4.4501,4.4501,4.4501,4.4553,4.472,4.5214,4.5759,4.587,4.5028,4.342,4.11,3.829,3.5462,3.2485,2.9154,2.6762,2.5427,2.4526,2.4314,2.434,2.4353,2.434,2.4314,2.438,2.4301,2.4274,2.4261,2.4261,2.4248,2.4208,2.4208,2.4261,2.4301,2.4376,2.431,7.0765,7.0765,7.0765,7.0765,7.0674,7.0077,6.9007,6.7502,6.5883,6.3989,6.1937,5.9605,5.7971,5.6915,5.659,5.6493,5.6607,5.7366,5.78,5.7838,5.8028,5.7821,5.715,5.5943,5.4226,5.2114,4.9064,4.6546,4.4699,4.2885,4.1787,4.151,4.1864,4.2421,4.2902,4.2928,4.298,4.311,4.3175,4.3123,4.2928,4.3123,4.3136,4.3175,4.3201,4.3058,4.2954,4.2928,4.2876,4.2811,4.2811,4.2811,4.2811,4.2811,4.2811,4.2759,4.2395,4.2134,4.2108,4.1328,4.0834,4.0834,4.1162,4.1656,4.2239,4.2343,4.2681,4.3357,4.3682,4.3967,4.4371,4.4475,4.4501,4.4501,4.4501,4.4475,4.4501,4.4501,4.4501,4.4501,4.4501,4.4501,4.4501,4.4501,4.4579,4.472,4.5162,4.5597,4.5488,4.4204,4.2462,4.001,3.701,3.3522,3.0405,2.781,2.5877,2.4526,2.4301,2.4301,2.4301,2.4301,2.4301,2.4287,2.4287,2.4195,2.4037,2.3984,2.3984,2.3984,2.3984,2.4037,2.4208,2.4248,2.4169,7.0765,7.0765,7.0765,7.0765,7.0719,7.0492,6.9474,6.788,6.6601,6.473,6.2381,6.0083,5.8264,5.7026,5.6304,5.5815,5.5696,5.6531,5.691,5.691,5.7344,5.7145,5.6341,5.5171,5.3528,5.1354,4.8308,4.5987,4.4398,4.2498,4.1383,4.1094,4.1344,4.1786,4.2369,4.2421,4.2551,4.2721,4.2551,4.2421,4.2421,4.2655,4.2811,4.2811,4.2811,4.2617,4.2421,4.2421,4.2291,4.1968,4.1968,4.1838,4.1604,4.164,4.1448,4.1188,4.0877,4.0721,4.0721,4.015,3.9812,3.9812,4.0331,4.0799,4.1172,4.1406,4.1926,4.2721,4.3058,4.3318,4.3669,4.3721,4.3759,4.4019,4.4045,4.4215,4.4449,4.4501,4.4501,4.4501,4.4501,4.4501,4.4501,4.4501,4.4501,4.4527,4.4761,4.5098,4.5414,4.4271,4.2658,4.062,3.749,3.4057,3.0818,2.8274,2.6177,2.4526,2.4301,2.4301,2.4301,2.4301,2.4248,2.4142,2.4116,2.3997,2.3734,2.3767,2.3767,2.3767,2.3694,2.372,2.3852,2.3905,2.38,7.0765,7.0765,7.0765,7.0765,7.0765,7.0765,6.9982,6.8679,6.7644,6.5646,6.2971,6.0842,5.8984,5.7499,5.6306,5.5479,5.505,5.5734,5.5984,0.0,5.685,5.6635,5.5714,5.4544,5.2776,5.0441,4.747,4.5272,4.3835,4.1992,4.0943,4.0782,4.0738,4.1033,4.1562,4.1692,4.1952,4.2421,4.1978,4.177,4.1848,4.2253,4.2487,4.2513,4.2551,4.2291,4.1744,4.1781,4.1458,4.0825,4.0799,4.0565,4.0184,4.0158,3.9812,3.9208,3.9078,3.9,3.8923,3.8845,3.8819,3.8923,3.9578,3.9976,3.9924,4.0487,4.1162,4.1796,4.2369,4.2707,4.2811,4.2837,4.3006,4.3396,4.3448,4.363,4.4137,4.4215,4.4215,4.4319,4.4371,4.4371,4.4475,4.4501,4.4501,4.4501,4.4579,4.4664,4.4782,4.4072,4.2452,4.016,3.7233,3.3994,3.068,2.8105,2.5993,2.4406,2.4142,2.4116,2.4116,2.4103,2.4037,2.3939,2.3826,2.3707,2.3516,2.345,2.345,2.345,2.3463,2.349,2.3569,2.3463,2.3397,7.0765,7.0765,7.0765,7.0765,7.0765,7.0765,7.0628,7.0259,0.0,0.0,0.0,6.0992,5.8984,5.7499,5.6358,5.5531,5.5064,5.5164,5.5202,5.5254,5.5354,5.5493,5.5422,5.4237,5.3055,5.1653,4.8722,4.61,4.3935,4.2096,4.065,3.969,3.9571,3.9623,3.9752,4.0254,4.06,4.0704,4.06,4.0782,4.1162,4.1266,4.1344,4.1344,4.1282,4.1085,4.0574,4.0548,4.0288,3.9623,3.9571,3.9519,3.9441,3.9415,3.9182,3.8669,3.8202,3.7734,3.7211,3.68,3.6748,3.7159,3.8202,3.8591,3.8181,3.9534,4.0565,4.1137,4.177,4.2291,4.2695,4.2785,4.2773,4.2876,4.2876,4.2902,4.3097,4.3032,4.3266,4.363,4.3734,4.3889,4.4397,4.4449,4.4501,4.4501,4.4449,4.4565,4.4612,4.4061,4.2571,3.9782,3.619,3.2968,2.9946,2.7403,2.541,2.4007,2.3701,2.3675,2.3675,2.3675,2.3648,2.3609,2.3595,2.3391,2.3082,2.3003,2.3074,2.3074,2.3088,2.314,2.3325,2.3146,2.2784,7.0765,0.0,7.0765,7.0765,0.0,7.0765,7.0133,6.8973,6.8025,6.5825,6.2586,6.0281,5.8272,5.6488,5.5857,5.5135,5.4456,5.4822,5.5012,5.5012,5.5012,5.4941,5.4777,5.3611,5.2348,5.0909,4.796,4.5469,4.3441,4.1602,4.02,3.926,3.9286,3.9286,3.9286,3.963,3.976,3.976,3.976,3.989,4.0089,4.0115,4.0115,4.0115,0.0,0.0,0.0,0.0,0.0,0.0,0.0,0.0,0.0,0.0,0.0,3.7267,3.6929,3.667,3.6384,3.6098,3.6072,3.6332,3.6877,3.6955,3.6329,3.7973,3.9267,4.0038,4.0435,4.0695,4.0981,4.0945,4.124,4.1786,4.1864,4.2123,4.2617,4.2811,4.2851,4.311,4.3162,4.324,4.3552,4.3643,4.3643,4.3643,4.3811,4.3927,4.3491,4.2076,4.0472,3.8501,3.4633,3.102,2.8923,2.6684,2.4762,2.3806,2.3516,2.3516,2.3516,2.3516,2.3463,2.3246,2.3219,2.3127,2.2793,2.2714,2.2727,2.2714,2.2727,2.2779,2.2942,2.2784,2.2517,7.0133,7.0133,7.0133,7.0133,7.0133,7.0133,6.9063,6.7369,6.6487,6.4606,6.2005,5.972,5.7536,5.564,5.5237,5.4551,5.362,5.4215,5.4519,5.4519,5.4519,5.4312,5.381,5.2758,5.1347,4.9679,4.6823,4.4511,4.2733,4.0827,3.9569,3.8942,3.8851,3.8845,3.8949,0.0,0.0,0.0,3.9,3.9156,3.926,3.9286,3.9286,3.9286,3.9286,0.0,3.9104,3.9,3.8897,3.8793,3.8689,0.0,0.0,0.0,0.0,0.0,0.0,0.0,0.0,0.0,0.0,0.0,3.5267,3.5034,3.4748,3.6124,3.7501,3.8663,3.9,3.9104,3.9104,3.9208,3.9649,4.0591,4.0721,4.1059,4.1942,4.2071,4.2201,4.2383,4.2409,4.2487,4.2721,4.2811,4.2811,4.2825,4.3007,4.2798,4.1816,3.9382,3.7368,3.6281,3.2894,2.9463,2.7627,2.5624,2.4004,2.34,2.3185,2.3159,2.3119,2.3132,2.3066,2.2784,2.2687,2.2595,2.2455,2.2468,2.2494,2.2507,2.2547,2.256,2.2441,2.2415,2.2415,6.7891,6.7847,6.7847,6.7891,6.7891,6.7847,6.7701,6.7369,6.6442,6.5325,6.3971,6.0283,5.7536,5.5551,5.4645,5.365,5.2658,5.276,5.2848,5.276,5.2848,5.2798,5.2611,5.1659,5.0499,4.9178,4.6493,4.403,4.1889,3.9758,3.8368,3.7725,3.7278,3.7345,3.7869,3.7371,3.7056,3.7081,3.8098,3.8825,3.926,3.9286,3.9286,3.9286,3.9286,3.9026,3.8617,3.8124,3.7687,3.7081,3.6644,3.6306,3.6176,3.5629,3.5059,0.0,3.3994,0.0,0.0,0.0,0.0,0.0,0.0,0.0,0.0,3.4254,3.5319,3.69,3.802,3.8591,3.8591,3.8974,3.9337,3.9467,3.9493,3.9545,3.9675,3.9701,4.0089,4.1137,4.124,4.1656,4.2487,4.2811,4.2785,4.2591,4.2195,4.1085,3.8975,3.7573,3.6028,3.4122,3.1758,2.8521,2.5408,2.3717,2.2795,2.2171,2.2074,2.1995,2.2048,2.2048,2.2008,2.1969,2.1995,2.1955,2.1889,2.2033,2.2191,2.2204,2.2375,2.2389,2.1993,2.1929,2.1876,6.7457,6.7457,6.7457,6.6043,6.3848,6.3889,6.3889,6.3848,6.3019,6.2091,6.1022,5.8291,5.5491,5.2711,5.2122,5.1329,5.0542,5.1405,5.1823,5.1861,5.2317,5.2506,5.2457,5.1673,5.0574,4.9149,4.6686,4.4264,4.1791,3.9547,3.801,3.7094,3.6524,3.6436,3.6751,3.6462,3.6462,3.6718,3.7237,3.7812,3.8358,3.8384,3.841,3.8384,3.841,3.8124,3.7496,3.7293,3.6903,3.6332,3.5761,3.5293,3.4956,3.4462,3.3709,0.0,0.0,0.0,0.0,0.0,0.0,0.0,0.0,0.0,0.0,0.0,3.3553,3.4332,3.5681,3.6667,3.7059,3.7237,3.7522,3.7833,3.7859,3.7989,3.8358,3.8669,3.9,3.9552,3.983,4.0219,4.0773,4.0851,4.079,4.0851,3.9993,3.8897,3.7296,3.5269,3.3356,3.1422,2.9144,2.6519,2.3885,2.2548,2.1851,2.1797,2.177,2.177,2.177,2.177,2.177,2.177,2.177,2.177,2.177,2.1876,2.1955,2.1982,2.2006,2.2061,2.1823,2.177,2.177,6.5896,6.5896,6.536,6.3304,6.0317,6.0277,6.0277,6.0238,5.9459,5.8664,5.7774,5.5899,5.3408,5.0472,4.9583,4.8854,4.8224,4.9507,5.0191,5.0456,5.1254,5.1584,5.1584,5.1284,5.0322,4.8745,4.655,4.4212,4.167,3.9379,3.7728,3.675,3.5663,3.5111,3.5137,3.5397,3.5735,3.6122,3.6511,3.7007,3.7479,3.7635,3.7635,3.7449,3.7449,3.7163,3.6563,3.6278,3.5968,3.558,3.467,3.4021,3.3579,3.2953,0.0,0.0,0.0,0.0,0.0,0.0,0.0,0.0,0.0,2.8818,2.9476,0.0,3.1735,0.0,3.3399,3.4644,3.532,3.5502,0.0,0.0,3.6176,3.641,3.7011,3.7423,3.773,3.8046,3.8462,3.8767,3.9026,3.9052,3.8923,3.8508,3.7473,3.6527,3.5915,3.3293,3.076,2.9145,2.6863,2.4516,2.2963,2.167,2.0966,2.132,2.1347,2.136,2.1347,2.136,2.1373,2.144,2.1453,2.1492,2.1532,2.1625,2.1598,2.14,2.136,2.136,2.136,2.1334,2.1347,6.1546,6.14,5.9497,5.851,5.8179,5.8217,5.813,5.8054,5.7218,5.6596,5.6009,5.3979,5.2267,5.073,4.7839,0.0,4.6432,4.6584,4.7077,4.7799,4.8634,4.906,4.9098,4.933,4.8809,4.7669,4.5635,4.3528,4.1378,3.8869,3.7273,3.6683,3.4079,3.2748,3.28,3.3787,3.4384,3.4462,3.5968,3.6744,3.6796,3.7427,3.7453,3.6822,3.6796,3.6592,3.5994,3.4982,3.441,3.4332,3.2774,3.1939,3.1861,0.0,0.0,0.0,0.0,0.0,0.0,0.0,0.0,0.0,0.0,0.0,0.0,0.0,0.0,0.0,3.1683,0.0,3.3602,3.4072,0.0,0.0,0.0,3.4618,3.5163,3.5213,3.5707,3.6744,0.0,0.0,3.841,3.854,3.7994,3.6436,3.5224,3.4365,3.4066,3.1832,2.9691,2.8106,2.5677,2.3564,2.2196,2.0998,2.0183,2.0223,2.0121,2.0249,2.0249,2.0236,2.0315,2.0553,2.0503,2.0582,2.0795,2.1031,2.107,2.0355,2.0223,2.016,2.0262,2.0276,2.0289,5.8179,5.5224,5.4394,5.4051,5.4065,5.4051,5.41,5.3981,5.317,5.2601,5.2088,5.0202,4.8686,4.7411,4.5236,0.0,0.0,0.0,4.4686,4.5933,4.685,4.754,4.7989,4.8064,4.7434,4.6185,4.4785,4.2677,4.0051,3.7857,3.6019,3.4325,0.0,0.0,3.2017,3.2459,3.3187,3.4202,3.4878,3.5553,3.6254,3.6488,3.6514,3.628,3.628,3.5839,3.4904,3.4462,3.376,3.2745,3.1657,3.08,0.0,0.0,0.0,0.0,0.0,0.0,0.0,0.0,0.0,0.0,0.0,2.5295,2.6113,0.0,0.0,0.0,2.9632,3.0847,3.1709,3.1995,0.0,0.0,0.0,0.0,0.0,0.0,0.0,3.4696,3.5319,3.5809,3.6304,3.5853,3.5593,3.5943,3.4971,3.3902,3.3078,0.0,2.8693,2.6708,2.4552,2.2639,2.1082,2.0339,1.9929,1.9509,1.9738,2.0038,2.0038,2.0038,2.0077,2.017,2.0209,2.0187,2.0292,2.019,2.0032,1.973,1.9857,2.0038,2.0038,2.0038,2.0038,5.3884,0.0,0.0,0.0,0.0,4.9621,4.9767,5.0077,4.9357,4.8939,4.8775,4.6704,0.0,0.0,0.0,0.0,0.0,0.0,4.2292,4.3885,4.4799,4.5635,4.6394,4.666,4.6072,4.478,4.3576,4.1718,3.9069,3.6469,3.405,3.1815,0.0,0.0,0.0,0.0,3.2073,3.3421,3.3943,3.467,3.5683,3.5865,3.5943,3.5943,3.5658,3.5034,3.402,3.35,3.2618,3.1471,3.0359,0.0,0.0,0.0,0.0,0.0,0.0,0.0,0.0,0.0,0.0,0.0,0.0,0.0,0.0,0.0,0.0,0.0,0.0,0.0,2.9665,3.0099,3.0281,0.0,0.0,0.0,0.0,0.0,0.0,0.0,0.0,0.0,3.3408,3.3077,3.338,0.0,0.0,3.2965,3.2115,2.9991,2.7791,2.5775,2.3717,0.0,0.0,1.9726,1.9366,1.89,1.9198,1.9475,1.9548,1.9535,1.9514,1.9593,1.9667,1.958,1.9561,1.9303,1.9112,1.9112,1.933,1.9535,1.9535,1.9548,1.9475,0.0,0.0,0.0,0.0,0.0,0.0,0.0,0.0,4.6134,4.6116,0.0,4.3873,0.0,0.0,0.0,0.0,0.0,3.8459,0.0,0.0,4.2256,4.3091,4.3926,4.4728,4.4596,4.3567,4.212,4.0465,3.8485,3.443,0.0,0.0,0.0,0.0,0.0,0.0,3.1086,3.1857,3.3369,3.4462,3.5033,3.5631,3.5917,3.5891,3.4878,3.402,3.3419,3.1787,3.076,3.0656,2.8697,0.0,0.0,0.0,0.0,0.0,0.0,0.0,0.0,0.0,0.0,0.0,0.0,0.0,0.0,0.0,0.0,0.0,0.0,0.0,0.0,2.8532,0.0,0.0,0.0,0.0,0.0,0.0,0.0,0.0,0.0,0.0,2.966,3.0777,3.1766,3.1816,0.0,0.0,0.0,0.0,2.696,2.5664,2.3383,2.141,2.0177,1.9081,1.8331,1.8331,0.0,0.0,1.8358,1.8358,1.842,1.867,1.875,1.8631,1.8341,1.8275,1.8275,1.8331,1.8358,1.8358,1.8301,1.8354,1.8398,0.0,0.0,0.0,0.0,0.0,0.0,0.0,0.0,0.0,4.2547,0.0,4.0525,0.0,0.0,0.0,0.0,0.0,0.0,0.0,0.0,3.9636,4.051,4.1346,4.165,4.1448,0.0,3.9702,3.748,0.0,0.0,0.0,0.0,0.0,0.0,0.0,0.0,3.0652,3.1916,3.3015,3.3821,3.4349,3.4669,3.467,3.4306,3.389,3.3057,3.1709,3.0385,2.932,0.0,0.0,0.0,0.0,0.0,0.0,0.0,0.0,0.0,0.0,0.0,0.0,0.0,0.0,0.0,0.0,0.0,0.0,0.0,0.0,0.0,0.0,0.0,2.6853,0.0,0.0,0.0,0.0,0.0,0.0,0.0,0.0,0.0,2.7251,2.8062,2.9273,3.0606,3.031,2.9854,2.973,0.0,0.0,0.0,0.0,0.0,0.0,0.0,1.8445,1.8056,1.8159,1.8292,1.8292,1.8292,1.8275,1.8367,0.0,0.0,1.7246,1.7246,1.7378,1.7378,1.755,1.7668,1.7614,1.7614,1.7734,0.0,0.0,0.0,0.0,0.0,0.0,0.0,0.0,0.0,4.0303,4.0098,0.0,0.0,0.0,0.0,0.0,0.0,0.0,0.0,0.0,0.0,0.0,3.8343,3.8343,0.0,0.0,0.0,0.0,0.0,0.0,0.0,0.0,0.0,0.0,0.0,0.0,3.0382,3.1906,3.2724,3.3595,3.4515,3.4103,3.3829,3.3695,3.313,3.2173,3.0754,0.0,0.0,0.0,0.0,0.0,0.0,0.0,0.0,0.0,0.0,0.0,0.0,0.0,0.0,0.0,0.0,0.0,0.0,0.0,0.0,0.0,0.0,0.0,0.0,0.0,2.5165,0.0,0.0,0.0,0.0,0.0,0.0,0.0,0.0,0.0,0.0,0.0,2.6734,2.8504,2.8533,2.8365,2.8389,2.678,2.4967,0.0,0.0,0.0,0.0,0.0,0.0,0.0,0.0,0.0,0.0,0.0,0.0,0.0,0.0,1.7115,1.6337,1.6299,1.6444,1.6444,0.0,0.0,0.0,0.0,0.0,0.0,0.0,0.0,0.0,0.0,0.0,0.0,0.0,0.0,0.0,0.0,0.0,0.0,3.469,0.0,0.0,0.0,0.0,0.0,0.0,0.0,0.0,0.0,0.0,0.0,0.0,0.0,0.0,0.0,0.0,0.0,0.0,0.0,0.0,0.0,0.0,3.0425,3.17,3.2572,3.3774,3.5396,3.4048,3.3559,3.4087,3.2567,3.1367,3.0651,0.0,0.0,0.0,0.0,0.0,0.0,0.0,0.0,0.0,0.0,0.0,0.0,0.0,0.0,0.0,0.0,0.0,0.0,0.0,0.0,0.0,0.0,0.0,0.0,0.0,0.0,2.4745,2.5307,2.5414,0.0,0.0,0.0,0.0,0.0,0.0,0.0,0.0,0.0,0.0,2.6062,2.6458,2.6739,2.5744,2.4367,2.2727,2.1095,1.9616,1.8506,1.7741,1.7311,0.0,0.0,0.0,0.0,0.0,0.0,0.0,0.0,0.0,0.0,0.0,0.0,0.0,0.0,0.0,0.0,0.0,0.0,0.0,0.0,0.0,0.0,0.0,0.0,0.0,0.0,0.0,0.0,0.0,0.0,0.0,0.0,0.0,0.0,0.0,0.0,0.0,0.0,0.0,0.0,0.0,0.0,0.0,0.0,0.0,0.0,0.0,0.0,0.0,0.0,0.0,0.0,0.0,0.0,3.1082,3.2893,3.3841,3.4697,3.5281,3.4579,3.3788,3.2969,3.2062,3.0703,0.0,0.0,0.0,0.0,0.0,0.0,0.0,0.0,0.0,0.0,0.0,0.0,0.0,0.0,0.0,0.0,0.0,0.0,0.0,0.0,0.0,0.0,0.0,0.0,0.0,0.0,0.0,0.0,2.3772,2.4152,2.4845,0.0,0.0,0.0,0.0,0.0,0.0,0.0,0.0,0.0,0.0,2.418,2.5186,2.4232,2.3007,2.1632,2.0263,1.9135,1.8399,1.7566,1.7009,1.7009,0.0,0.0,0.0,0.0,0.0,0.0,0.0,0.0,0.0,0.0,0.0,0.0,0.0,0.0,0.0,0.0,0.0,0.0,0.0,0.0,0.0,0.0,0.0,0.0,0.0,0.0,0.0,0.0,0.0,0.0,0.0,0.0,0.0,0.0,0.0,0.0,0.0,0.0,0.0,0.0,0.0,0.0,0.0,0.0,0.0,0.0,0.0,0.0,0.0,0.0,0.0,0.0,0.0,3.1734,3.3537,3.4702,3.5501,3.5859,3.4972,3.4017,3.2957,3.1545,2.9926,0.0,0.0,0.0,0.0,0.0,0.0,0.0,0.0,0.0,0.0,0.0,0.0,0.0,0.0,0.0,0.0,0.0,0.0,0.0,0.0,0.0,0.0,0.0,0.0,0.0,0.0,0.0,0.0,2.2654,2.3009,2.3782,0.0,0.0,0.0,0.0,0.0,0.0,0.0,0.0,0.0,0.0,2.2311,2.3126,2.2848,0.0,0.0,1.937,1.8456,1.772,1.7086,1.6759,1.6759,1.6429,0.0,0.0,0.0,0.0,0.0,0.0,0.0,0.0,0.0,0.0,0.0,0.0,0.0,0.0,0.0,0.0,0.0,0.0,0.0,0.0,0.0,0.0,0.0,0.0,0.0,0.0,0.0,0.0,0.0,0.0,0.0,0.0,0.0,0.0,0.0,0.0,0.0,0.0,0.0,0.0,0.0,0.0,0.0,0.0,0.0,0.0,0.0,0.0,0.0,0.0,0.0,0.0,0.0,3.3919,3.52,3.6305,3.7143,3.5549,3.433,3.3638,3.117,2.9245,0.0,0.0,0.0,0.0,0.0,0.0,0.0,0.0,0.0,0.0,0.0,0.0,0.0,0.0,0.0,0.0,0.0,0.0,0.0,0.0,0.0,0.0,0.0,0.0,0.0,0.0,0.0,0.0,0.0,0.0,0.0,0.0,0.0,0.0,0.0,0.0,0.0,0.0,0.0,0.0,0.0,2.0639,2.0857,2.1492,2.1182,0.0,0.0,1.7667,1.6699,1.6506,1.648,1.648,0.0,0.0,0.0,0.0,0.0,0.0,0.0,0.0,0.0,0.0,0.0,0.0,0.0,0.0,0.0,0.0,0.0,0.0,0.0,0.0,0.0,0.0,0.0,0.0,0.0,0.0,0.0,0.0,0.0,0.0,0.0,0.0,0.0,0.0,0.0,0.0,0.0,0.0,0.0,0.0,0.0,0.0,0.0,0.0,0.0,0.0,0.0,0.0,0.0,0.0,0.0,0.0,0.0,0.0,3.5237,3.6382,3.728,3.7941,3.7441,3.6186,3.4106,3.1944,0.0,0.0,0.0,0.0,0.0,0.0,0.0,0.0,0.0,0.0,0.0,0.0,0.0,0.0,0.0,0.0,0.0,0.0,0.0,0.0,0.0,0.0,0.0,0.0,0.0,0.0,0.0,2.0937,0.0,0.0,0.0,0.0,0.0,0.0,0.0,0.0,0.0,0.0,0.0,0.0,0.0,0.0,1.8182,1.9529,1.961,1.9219,0.0,0.0,1.7246,1.6597,1.6126,1.58,0.0,0.0,0.0,0.0,0.0,0.0,0.0,0.0,0.0,0.0,0.0,0.0,0.0,0.0,0.0,0.0,0.0,0.0,0.0,0.0,0.0,0.0,0.0,0.0,0.0,0.0,0.0,0.0,0.0,0.0,0.0,0.0,0.0,0.0,0.0,0.0,0.0,0.0,0.0,0.0,0.0,0.0,0.0,0.0,0.0,0.0,0.0,0.0,0.0,0.0,0.0,0.0,0.0,0.0,3.3206,3.5472,3.6946,3.7786,3.8097,3.7824,3.6571,3.4288,3.2048,2.9774,0.0,0.0,0.0,0.0,0.0,0.0,0.0,0.0,0.0,0.0,0.0,0.0,0.0,0.0,0.0,0.0,0.0,0.0,0.0,0.0,0.0,0.0,0.0,0.0,0.0,0.0,0.0,0.0,0.0,0.0,0.0,0.0,0.0,0.0,0.0,0.0,0.0,0.0,0.0,0.0,0.0,0.0,1.7672,1.8036,0.0,0.0,0.0,1.6376,1.5841,0.0,0.0,0.0,0.0,0.0,0.0,0.0,0.0,0.0,0.0,0.0,0.0,0.0,0.0,0.0,0.0,0.0,0.0,0.0,0.0,0.0,0.0,0.0,0.0,0.0,0.0,0.0,0.0,0.0,0.0,0.0,0.0,0.0,0.0,0.0,0.0,0.0,0.0,0.0,0.0,0.0,0.0,0.0,0.0,0.0,0.0,0.0,0.0,0.0,0.0,0.0,0.0,0.0,0.0,0.0,0.0,0.0,3.5225,3.7106,3.8129,3.8116,3.767,3.6509,3.4523,3.2004,2.9714,0.0,0.0,0.0,0.0,0.0,0.0,0.0,0.0,0.0,0.0,0.0,0.0,0.0,0.0,0.0,0.0,0.0,0.0,0.0,0.0,0.0,0.0,0.0,0.0,0.0,0.0,0.0,0.0,0.0,0.0,0.0,0.0,0.0,0.0,0.0,0.0,0.0,0.0,0.0,0.0,0.0,1.5927,1.5789,1.6628,1.6894,0.0,0.0,1.5274,1.4859,1.4741,0.0,0.0,0.0,0.0,0.0,0.0,0.0,0.0,0.0,0.0,0.0,0.0,0.0,0.0,0.0,0.0,0.0,0.0,0.0,0.0,0.0,0.0,0.0,0.0,0.0,0.0,0.0,0.0,0.0,0.0,0.0,0.0,0.0,0.0,0.0,0.0,0.0,0.0,0.0,0.0,0.0,0.0,0.0,0.0,0.0,0.0,0.0,0.0,0.0,0.0,0.0,0.0,0.0,0.0,0.0,0.0,3.5464,3.7176,3.8581,3.9548,3.9416,3.8318,3.6277,3.3244,3.0306,0.0,0.0,0.0,0.0,0.0,0.0,0.0,0.0,0.0,0.0,0.0,0.0,0.0,0.0,0.0,0.0,0.0,0.0,0.0,0.0,0.0,0.0,0.0,0.0,0.0,0.0,0.0,0.0,0.0,0.0,0.0,0.0,0.0,0.0,0.0,0.0,0.0,0.0,0.0,0.0,0.0,1.4036,1.4622,1.4794,0.0,0.0,0.0,0.0,1.4787,1.457,0.0,0.0,0.0,0.0,0.0,0.0,0.0,0.0,0.0,0.0,0.0,0.0,0.0,0.0,0.0,0.0,0.0,0.0,0.0,0.0,0.0,0.0,0.0,0.0,0.0,0.0,0.0,0.0,0.0,0.0,0.0,0.0,0.0,0.0,0.0,0.0,0.0,0.0,0.0,0.0,0.0,0.0,0.0,0.0,0.0,0.0,0.0,0.0,0.0,0.0,0.0,0.0,0.0,0.0,0.0,0.0,3.4748,3.6777,3.8249,3.9067,3.9063,3.8218,3.654,3.3533,3.0657,0.0,0.0,0.0,0.0,0.0,0.0,0.0,0.0,0.0,0.0,0.0,0.0,0.0,0.0,0.0,0.0,0.0,0.0,0.0,0.0,0.0,0.0,0.0,0.0,0.0,0.0,0.0,0.0,0.0,0.0,0.0,0.0,0.0,0.0,0.0,0.0,0.0,0.0,0.0,0.0,1.2938,1.3362,1.3752,0.0,0.0,0.0,0.0,0.0,0.0,1.3848,1.3647,0.0,0.0,0.0,0.0,0.0,0.0,0.0,0.0,0.0,0.0,0.0,0.0,0.0,0.0,0.0,0.0,0.0,0.0,0.0,0.0,0.0,0.0,0.0,0.0,0.0,0.0,0.0,0.0,0.0,0.0,0.0,0.0,0.0,0.0,0.0,0.0,0.0,0.0,0.0,0.0,0.0,0.0,0.0,0.0,0.0,0.0,0.0,0.0,0.0,0.0,0.0,0.0,0.0,0.0,0.0,3.3821,3.5987,3.7408,3.8174,3.8097,3.7474,3.6328,3.3515,3.0821,2.8444,0.0,0.0,0.0,0.0,0.0,0.0,0.0,0.0,0.0,0.0,0.0,0.0,0.0,0.0,0.0,0.0,0.0,0.0,0.0,0.0,0.0,0.0,0.0,0.0,0.0,0.0,0.0,0.0,0.0,0.0,0.0,0.0,0.0,0.0,0.0,0.0,0.0,0.0,0.0,1.26,1.3013,0.0,0.0,0.0,0.0,0.0,0.0,0.0,0.0,1.3001,0.0,0.0,0.0,0.0,0.0,0.0,0.0,0.0,0.0,0.0,0.0,0.0,0.0,0.0,0.0,0.0,0.0,0.0,0.0,0.0,0.0,0.0,0.0,0.0,0.0,0.0,0.0,0.0,0.0,0.0,0.0,0.0,0.0,0.0,0.0,0.0,0.0,0.0,0.0,0.0,0.0,0.0,0.0,0.0,0.0,0.0,0.0,0.0,0.0,0.0,0.0,0.0,0.0,0.0,0.0,0.0,3.4852,3.6413,3.8465,3.7955,3.7174,3.6351,3.3769,3.0922,2.7864,0.0,0.0,0.0,0.0,0.0,0.0,0.0,0.0,0.0,0.0,0.0,0.0,0.0,0.0,0.0,0.0,0.0,0.0,0.0,0.0,0.0,0.0,0.0,0.0,0.0,0.0,0.0,0.0,0.0,0.0,0.0,0.0,0.0,0.0,0.0,0.0,0.0,0.0,1.1045,1.1533,0.0,0.0,0.0,0.0,0.0,0.0,0.0,0.0,1.3067,0.0,0.0,0.0,0.0,0.0,0.0,0.0,0.0,0.0,0.0,0.0,0.0,0.0,0.0,0.0,0.0,0.0,0.0,0.0,0.0,0.0,0.0,0.0,0.0,0.0,0.0,0.0,0.0,0.0,0.0,0.0,0.0,0.0,0.0,0.0,0.0,0.0,0.0,0.0,0.0,0.0,0.0,0.0,0.0,0.0,0.0,0.0,0.0,0.0,0.0,0.0,0.0,0.0,0.0,0.0,0.0,0.0,0.0,3.573,3.7288,3.7062,3.6559,3.5683,3.3189,3.0443,0.0,0.0,0.0,0.0,0.0,0.0,0.0,0.0,0.0,0.0,0.0,0.0,0.0,0.0,0.0,0.0,0.0,0.0,0.0,0.0,0.0,0.0,0.0,0.0,0.0,0.0,0.0,0.0,0.0,0.0,0.0,0.0,0.0,0.0,0.0,0.0,0.0,0.0,0.0,0.0,0.0,0.0,0.0,0.0,0.0,0.0,0.0,0.0,0.0,0.0,0.0,0.0,0.0,0.0,0.0,0.0,0.0,0.0,0.0,0.0,0.0,0.0,0.0,0.0,0.0,0.0,0.0,0.0,0.0,0.0,0.0,0.0,0.0,0.0,0.0,0.0,0.0,0.0,0.0,0.0,0.0,0.0,0.0,0.0,0.0,0.0,0.0,0.0,0.0,0.0,0.0,0.0,0.0,0.0,0.0,0.0,0.0,0.0,0.0,0.0,0.0,0.0,0.0,0.0,0.0,0.0,0.0,0.0,3.49,3.5885,3.6054,3.5827,3.5078,3.2161,2.9458,0.0,0.0,0.0,0.0,0.0,0.0,0.0,0.0,0.0,0.0,0.0,0.0,0.0,0.0,0.0,0.0,0.0,0.0,0.0,0.0,0.0,0.0,0.0,0.0,0.0,0.0,0.0,0.0,0.0,0.0,0.0,0.0,0.0,0.0,0.0,0.0,0.0,0.0,0.0,0.0,0.0,0.0,0.0,0.0,0.0,0.0,0.0,0.0,1.2023,0.0,0.0,0.0,0.0,0.0,0.0,0.0,0.0,0.0,0.0,0.0,0.0,0.0,0.0,0.0,0.0,0.0,0.0,0.0,0.0,0.0,0.0,0.0,0.0,0.0,0.0,0.0,0.0,0.0,0.0,0.0,0.0,0.0,0.0,0.0,0.0,0.0,0.0,0.0,0.0,0.0,0.0,0.0,0.0,0.0,0.0,0.0,0.0,0.0,0.0,0.0,0.0,0.0,0.0,0.0,0.0,0.0,0.0,0.0,3.3492,3.5085,3.5477,3.5299,3.4565,3.0553,2.7658,0.0,0.0,0.0,0.0,0.0,0.0,0.0,0.0,0.0,0.0,0.0,0.0,0.0,0.0,0.0,0.0,0.0,0.0,0.0,0.0,0.0,0.0,0.0,0.0,0.0,0.0,0.0,0.0,0.0,0.0,0.0,0.0,0.0,0.0,0.0,0.0,0.0,0.0,0.0,0.0,0.0,0.0,0.0,0.0,0.0,0.0,0.0,0.0,0.0,0.0,0.0,0.0,0.0,0.0,0.0,0.0,0.0,0.0,0.0,0.0,0.0,0.0,0.0,0.0,0.0,0.0,0.0,0.0,0.0,0.0,0.0,0.0,0.0,0.0,0.0,0.0,0.0,0.0,0.0,0.0,0.0,0.0,0.0,0.0,0.0,0.0,0.0,0.0,0.0,0.0,0.0,0.0,0.0,0.0,0.0,0.0,0.0,0.0,0.0,0.0,0.0,0.0,0.0,0.0,0.0,0.0,0.0,0.0,3.2347,3.346,3.3454,3.3248,3.2789,2.9825,2.7606,0.0,0.0,0.0,0.0,0.0,0.0,0.0,0.0,0.0,0.0,0.0,0.0,0.0,0.0,0.0,0.0,0.0,0.0,0.0,0.0,0.0,0.0,0.0,0.0,0.0,0.0,0.0,0.0,0.0,0.0,0.0,0.0,0.0,0.0,0.0,0.0,0.0,0.0,0.0,0.0,0.0,0.0,0.0,0.0,0.0,0.0,0.0,0.0,0.0,0.0,0.0,0.0,0.0,0.0,0.0,0.0,0.0,0.0,0.0,0.0,0.0,0.0,0.0,0.0,0.0,0.0,0.0,0.0,0.0,0.0,0.0,0.0,0.0,0.0,0.0,0.0,0.0,0.0,0.0,0.0,0.0,0.0,0.0,0.0,0.0,0.0,0.0,0.0,0.0,0.0,0.0,0.0,0.0,0.0,0.0,0.0,0.0,0.0,0.0,0.0,0.0,0.0,0.0,0.0,0.0,0.0,0.0,0.0,0.0,3.2127,3.1627,3.1242,3.0879,2.9122,2.7515,0.0,0.0,0.0,0.0,0.0,0.0,0.0,0.0,0.0,0.0,0.0,0.0,0.0,0.0,0.0,0.0,0.0,0.0,0.0,0.0,0.0,0.0,0.0,0.0,0.0,0.0,0.0,0.0,0.0,0.0,0.0,0.0,0.0,0.0,0.0,0.0,0.0,0.0,0.0,0.0,0.0,0.0,0.0,0.0,0.0,0.0,0.0,0.0,0.0,0.0,0.0,0.0,0.0,0.0,0.0,0.0,0.0,0.0,0.0,0.0,0.0,0.0,0.0,0.0,0.0,0.0,0.0,0.0,0.0,0.0,0.0,0.0,0.0,0.0,0.0,0.0,0.0,0.0,0.0,0.0,0.0,0.0,0.0,0.0,0.0,0.0,0.0,0.0,0.0,0.0,0.0,0.0,0.0,0.0,0.0,0.0,0.0,0.0,0.0,0.0,0.0,0.0,0.0,0.0,0.0,0.0,0.0,0.0,0.0,3.1343,3.0486,2.9831,2.9294,2.824,2.6917,0.0,0.0,0.0,0.0,0.0,0.0,0.0,0.0,0.0,0.0,0.0,0.0,0.0,0.0,0.0,0.0,0.0,0.0,0.0,0.0,0.0,0.0,0.0,0.0,0.0,0.0,0.0,0.0,0.0,0.0,0.0,0.0,0.0,0.0,0.0,0.0,0.0,0.0,0.0,0.0,0.0,0.0,0.0,0.0,0.0,0.0,0.0,0.0,0.0,0.0,0.0,0.0,0.0,0.0,0.0,0.0,0.0,0.0,0.0,0.0,0.0,0.0,0.0,0.0,0.0,0.0,0.0,0.0,0.0,0.0,0.0,0.0,0.0,0.0,0.0,0.0,0.0,0.0,0.0,0.0,0.0,0.0,0.0,0.0,0.0,0.0,0.0,0.0,0.0,0.0,0.0,0.0,0.0,0.0,0.0,0.0,0.0,0.0,0.0,0.0,0.0,0.0,0.0,0.0,0.0,0.0,0.0,0.0,0.0,3.0439,3.0078,2.9681,2.9204,2.8162,2.6878,2.5287,0.0,0.0,0.0,0.0,0.0,0.0,0.0,0.0,0.0,0.0,0.0,0.0,0.0,0.0,0.0,0.0,0.0,0.0,0.0,0.0,0.0,0.0,0.0,0.0,0.0,0.0,0.0,0.0,0.0,0.0,0.0,0.0,0.0,0.0,0.0,0.0,0.0,0.0,0.0,0.0,0.0,0.0,0.0,0.0,0.0,0.0,0.0,0.0,0.0,0.0,0.0,0.0,0.0,0.0,0.0,0.0,0.0,0.0,0.0,0.0,0.0,0.0,0.0,0.0,0.0,0.0,0.0,0.0,0.0,0.0,0.0,0.0,0.0,0.0,0.0,0.0,0.0,0.0,0.0,0.0,0.0,0.0,0.0,0.0,0.0,0.0,0.0,0.0,0.0,0.0,0.0,0.0,0.0,0.0,0.0,0.0,0.0,0.0,0.0,0.0,0.0,0.0,0.0,0.0,0.0,0.0,0.0,0.0,2.9955,2.9955,2.9671,2.9176,2.8248,2.7053,0.0,0.0,0.0,0.0,0.0,0.0,0.0,0.0,0.0,0.0,0.0,0.0,0.0,0.0,0.0,0.0,0.0,0.0,0.0,0.0,0.0,0.0,0.0,0.0,0.0,0.0,0.0,0.0,0.0,0.0,0.0,0.0,0.0,0.0,0.0,0.0,0.0,0.0,0.0,0.0,0.0,0.0,0.0,0.0,0.0,0.0,0.0,0.0,0.0,0.0,0.0,0.0,0.0,0.0,0.0,0.0,0.0,0.0,0.0,0.0,0.0,0.0,0.0,0.0,0.0,0.0,0.0,0.0,0.0,0.0,0.0,0.0,0.0,0.0,0.0,0.0,0.0,0.0,0.0,0.0,0.0,0.0,0.0,0.0,0.0,0.0,0.0,0.0,0.0,0.0,0.0,0.0,0.0,0.0,0.0,0.0,0.0,0.0,0.0,0.0,0.0,0.0,0.0,0.0,0.0,0.0,0.0,0.0,2.9955,2.9955,2.9955,2.9671,2.9176,2.8536,2.746,0.0,0.0,0.0,0.0,0.0,0.0,0.0,0.0,0.0,0.0,0.0,0.0,0.0,0.0,0.0,0.0,0.0,0.0,0.0,0.0,0.0,0.0,0.0,0.0,0.0,0.0,0.0,0.0,0.0,0.0,0.0,0.0,0.0,0.0,0.0,0.0,0.0,0.0,0.0,0.0,0.0,0.0,0.0,0.0,0.0,0.0,0.0,0.0,0.0,0.0,0.0,0.0,0.0,0.0,0.0,0.0,0.0,0.0,0.0,0.0,0.0,0.0,0.0,0.0,0.0,0.0,0.0,0.0,0.0,0.0,0.0,0.0,0.0,0.0,0.0,0.0,0.0,0.0,0.0,0.0,0.0,0.0,0.0,0.0,0.0,0.0,0.0,0.0,0.0,0.0,0.0,0.0,0.0,0.0,0.0,0.0,0.0,0.0,0.0,0.0,0.0,0.0,0.0,0.0,0.0,0.0,0.0,0.0,0.0,2.9955,0.0,2.9709,0.0,2.8565,2.746,0.0,0.0,0.0,0.0,0.0,0.0,0.0,0.0,0.0,0.0,0.0,0.0,0.0,0.0,0.0,0.0,0.0,0.0,0.0,0.0,0.0,0.0,0.0,0.0,0.0,0.0,0.0,0.0,0.0,0.0,0.0,0.0,0.0,0.0,0.0,0.0,0.0,0.0,0.0,0.0,0.0,0.0,0.0,0.0,0.0,0.0,0.0,0.0,0.0,0.0,0.0,0.0,0.0,0.0,0.0,0.0,0.0,0.0,0.0,0.0,0.0,0.0,0.0,0.0,0.0,0.0,0.0,0.0,0.0,0.0,0.0,0.0,0.0,0.0,0.0,0.0,0.0,0.0,0.0,0.0,0.0,0.0,0.0,0.0,0.0,0.0,0.0,0.0,0.0,0.0,0.0,0.0,0.0,0.0,0.0,0.0,0.0,0.0,0.0,0.0,0.0,0.0,0.0,0.0,0.0,0.0,0.0,0.0,0.0,2.9955,2.9955,2.9671,2.9176,2.8529,2.7489,0.0,0.0,0.0,0.0,0.0,0.0,0.0,0.0,0.0,0.0,0.0,0.0,0.0,0.0,0.0,0.0,0.0,0.0,0.0,0.0,0.0,0.0,0.0,0.0,0.0,0.0,0.0,0.0,0.0,0.0,0.0,0.0,0.0,0.0,0.0,0.0,0.0,0.0,0.0,0.0,0.0,0.0,0.0,0.0,0.0,0.0,0.0,0.0,0.0,0.0,0.0,0.0,0.0,0.0,0.0,0.0,0.0,0.0,0.0,0.0,0.0,0.0,0.0,0.0,0.0,0.0,0.0,0.0,0.0,0.0,0.0,0.0,0.0,0.0,0.0,0.0,0.0,0.0,0.0,0.0,0.0,0.0,0.0,0.0,0.0,0.0,0.0,0.0,0.0,0.0,0.0,0.0,0.0,0.0,0.0,0.0,0.0,0.0,0.0,0.0,0.0,0.0,0.0,0.0,0.0,0.0,0.0,0.0,0.0,0.0,2.9955,2.9671,2.9196,2.8565,2.7605,0.0,0.0,0.0,0.0,0.0,0.0,0.0,0.0,0.0,0.0,0.0,0.0,0.0,0.0,0.0,0.0,0.0,0.0,0.0,0.0,0.0,0.0,0.0,0.0,0.0,0.0,0.0,0.0,0.0,0.0,0.0,0.0,0.0,0.0,0.0,0.0,0.0,0.0,0.0,0.0,0.0,0.0,0.0,0.0,0.0,0.0,0.0,0.0,0.0,0.0,0.0,0.0,0.0,0.0,0.0,0.0,0.0,0.0,0.0,0.0,0.0,0.0,0.0,0.0,0.0,0.0,0.0,0.0,0.0,0.0,0.0,0.0,0.0,0.0,0.0,0.0,0.0,0.0,0.0,0.0,0.0,0.0,0.0,0.0,0.0,0.0,0.0,0.0,0.0,0.0,0.0,0.0,0.0,0.0,0.0,0.0,0.0,0.0,0.0,0.0,0.0,0.0,0.0,0.0,0.0,0.0,0.0,0.0,0.0,0.0,2.9955,0.0,2.9671,2.8701,2.7576,2.6263,0.0,0.0,0.0,0.0,0.0,0.0,0.0,0.0,0.0,0.0,0.0,0.0,0.0,0.0,0.0,0.0,0.0,0.0,0.0,0.0,0.0,0.0,0.0,0.0,0.0,0.0,0.0,0.0,0.0,0.0,0.0,0.0,0.0,0.0,0.0,0.0,0.0,0.0,0.0,0.0,0.0,0.0,0.0,0.0,0.0,0.0,0.0,0.0,0.0,0.0,0.0,0.0,0.0,0.0,0.0,0.0,0.0,0.0,0.0,0.0,0.0,0.0,0.0,0.0,0.0,0.0,0.0,0.0,0.0,0.0,0.0,0.0,0.0,0.0,0.0,0.0,0.0,0.0,0.0,0.0,0.0,0.0,0.0,0.0,0.0,0.0,0.0,0.0,0.0,0.0,0.0,0.0,0.0,0.0,0.0,0.0,0.0,0.0,0.0,0.0,0.0,0.0,0.0,0.0,0.0,0.0,0.0,0.0,0.0,0.0,0.0,2.9955,2.9082,2.7837,0.0,0.0,0.0,0.0,0.0,0.0,0.0,0.0,0.0,0.0,0.0,0.0,0.0,0.0,0.0,0.0,0.0,0.0,0.0,0.0,0.0,0.0,0.0,0.0,0.0,0.0,0.0,0.0,0.0,0.0,0.0,0.0,0.0,0.0,0.0,0.0,0.0,0.0,0.0,0.0,0.0,0.0,0.0,0.0,0.0,0.0,0.0,0.0,0.0,0.0,0.0,0.0,0.0,0.0,0.0,0.0,0.0,0.0,0.0,0.0,0.0,0.0,0.0,0.0,0.0,0.0,0.0,0.0,0.0,0.0,0.0,0.0,0.0,0.0,0.0,0.0,0.0,0.0,0.0,0.0,0.0,0.0,0.0,0.0,0.0,0.0,0.0,0.0,0.0,0.0,0.0,0.0,0.0,0.0,0.0,0.0,0.0,0.0,0.0,0.0,0.0,0.0,0.0,0.0,0.0,0.0,0.0,0.0,0.0,0.0,0.0,2.9955,2.9927,2.9453,0.0,2.6497,0.0,0.0,0.0,0.0,0.0,0.0,0.0,0.0,0.0,0.0,0.0,0.0,0.0,0.0,0.0,0.0,0.0,0.0,0.0,0.0,0.0,0.0,0.0,0.0,0.0,0.0,0.0,0.0,0.0,0.0,0.0,0.0,0.0,0.0,0.0,0.0,0.0,0.0,0.0,0.0,0.0,0.0,0.0,0.0,0.0,0.0,0.0,0.0,0.0,0.0,0.0,0.0,0.0,0.0,0.0,0.0,0.0,0.0,0.0,0.0,0.0,0.0,0.0,0.0,0.0,0.0,0.0,0.0,0.0,0.0,0.0,0.0,0.0,0.0,0.0,0.0,0.0,0.0,0.0,0.0,0.0,0.0,0.0,0.0,0.0,0.0,0.0,0.0,0.0,0.0,0.0,0.0,0.0,0.0,0.0,0.0,0.0,0.0,0.0,0.0,0.0,0.0,0.0,0.0,0.0,0.0,0.0,0.0,0.0,0.0,0.0,0.0,2.9624,2.9024,2.8039,0.0,0.0,0.0,0.0,0.0,0.0,0.0,0.0,0.0,0.0,0.0,0.0,0.0,0.0,0.0,0.0,0.0,0.0,0.0,0.0,0.0,0.0,0.0,0.0,0.0,0.0,0.0,0.0,0.0,0.0,0.0,0.0,0.0,0.0,0.0,0.0,0.0,0.0,0.0,0.0,0.0,0.0,0.0,0.0,0.0,0.0,0.0,0.0,0.0,0.0,0.0,0.0,0.0,0.0,0.0,0.0,0.0,0.0,0.0,0.0,0.0,0.0,0.0,0.0,0.0,0.0,0.0,0.0,0.0,0.0,0.0,0.0,0.0,0.0,0.0,0.0,0.0,0.0,0.0,0.0,0.0,0.0,0.0,0.0,0.0,0.0,0.0,0.0,0.0,0.0,0.0,0.0,0.0,0.0,0.0,0.0,0.0,0.0,0.0,0.0,0.0,0.0,0.0,0.0,0.0,0.0,0.0,0.0,0.0,0.0,2.9955,2.9927,2.9652,2.9347,2.8824,0.0,0.0,0.0,0.0,0.0,0.0,0.0,0.0,0.0,0.0,0.0,0.0,0.0,0.0,0.0,0.0,0.0,0.0,0.0,0.0,0.0,0.0,0.0,0.0,0.0,0.0,0.0,0.0,0.0,0.0,0.0,0.0,0.0,0.0,0.0,0.0,0.0,0.0,0.0,0.0,0.0,0.0,0.0,0.0,0.0,0.0,0.0,0.0,0.0,0.0,0.0,0.0,0.0,0.0,0.0,0.0,0.0,0.0,0.0,0.0,0.0,0.0,0.0,0.0,0.0,0.0,0.0,0.0,0.0,0.0,0.0,0.0,0.0,0.0,0.0,0.0,0.0,0.0,0.0,0.0,0.0,0.0,0.0,0.0,0.0,0.0,0.0,0.0,0.0,0.0,0.0,0.0,0.0,0.0,0.0,0.0,0.0,0.0,0.0,0.0,0.0,0.0,0.0,0.0,0.0,0.0,0.0,0.0,0.0,0.0,0.0,0.0,0.0,0.0,2.9204,0.0,0.0,0.0,0.0,0.0,0.0,0.0,0.0,0.0,0.0,0.0,0.0,0.0,0.0,0.0,0.0,0.0,0.0,0.0,0.0,0.0,0.0,0.0,0.0,0.0,0.0,0.0,0.0,0.0,0.0,0.0,0.0,0.0,0.0,0.0,0.0,0.0,0.0,0.0,0.0,0.0,0.0,0.0,0.0,0.0,0.0,0.0,0.0,0.0,0.0,0.0,0.0,0.0,0.0,0.0,0.0,0.0,0.0,0.0,0.0,0.0,0.0,0.0,0.0,0.0,0.0,0.0,0.0,0.0,0.0,0.0,0.0,0.0,0.0,0.0,0.0,0.0,0.0,0.0,0.0,0.0,0.0,0.0,0.0,0.0,0.0,0.0,0.0,0.0,0.0,0.0,0.0,0.0,0.0,0.0,0.0,0.0,0.0,0.0,0.0,0.0,0.0,0.0,0.0,0.0,0.0,0.0,0.0,0.0,0.0,0.0,0.0,0.0,0.0,0.0,0.0,0.0,0.0,0.0,0.0,0.0,0.0,0.0,0.0,0.0,0.0,0.0,0.0,0.0,0.0,0.0,0.0,0.0,0.0,0.0,0.0,0.0,0.0,0.0,0.0,0.0,0.0,0.0,0.0,0.0,0.0,0.0,0.0,0.0,0.0,0.0,0.0,0.0,0.0,0.0,0.0,0.0,0.0,0.0,0.0,0.0,0.0,0.0,0.0,0.0,0.0,0.0,0.0,0.0,0.0,0.0,0.0,0.0,0.0,0.0,0.0,0.0,0.0,0.0,0.0,0.0,0.0,0.0,0.0,0.0,0.0,0.0,0.0,0.0,0.0,0.0,0.0,0.0,0.0,0.0,0.0,0.0,0.0,0.0,0.0,0.0,0.0,0.0,0.0,0.0,0.0,0.0,0.0,0.0,0.0,0.0,0.0,0.0,0.0,0.0,0.0,0.0,0.0,0.0,0.0,0.0,0.0,0.0,0.0,0.0,0.0,0.0,0.0,0.0,0.0,0.0,0.0,0.0,0.0,0.0,0.0,0.0,0.0,0.0,0.0,0.0,0.0,0.0,0.0,0.0,0.0,0.0,0.0,0.0,0.0,0.0,0.0,0.0,0.0,0.0,0.0,0.0,0.0,0.0,0.0,0.0,0.0,0.0,0.0,0.0,0.0,0.0,0.0,0.0,0.0,0.0,0.0,0.0,0.0,0.0,0.0,0.0,0.0,0.0,0.0,0.0,0.0,0.0,0.0,0.0,0.0,0.0,0.0,0.0,0.0,0.0,0.0,0.0,0.0,0.0,0.0,0.0,0.0,0.0,0.0,0.0,0.0,0.0,0.0,0.0,0.0,0.0,0.0,0.0,0.0,0.0,0.0,0.0,0.0,0.0,0.0,0.0,0.0,0.0,0.0,0.0,0.0,0.0,0.0,0.0,0.0,0.0,0.0,0.0,0.0,0.0,0.0,0.0,0.0,0.0,0.0,0.0,0.0,0.0,0.0,0.0,0.0,0.0,0.0,0.0,0.0,0.0,0.0,0.0,0.0,0.0,0.0,0.0,0.0,0.0,0.0,0.0,0.0,0.0,0.0,0.0,0.0,0.0,0.0,0.0,0.0,0.0,0.0,0.0,0.0,0.0,0.0,0.0,0.0,0.0,0.0,0.0,0.0,0.0,0.0,0.0,0.0,0.0,0.0,0.0,0.0,0.0,0.0,0.0,0.0,0.0,0.0,0.0,0.0,0.0,0.0,0.0,0.0,0.0,0.0,0.0,0.0,0.0,0.0,0.0,0.0,0.0,0.0,0.0,0.0,0.0,0.0,0.0,0.0,0.0,0.0,0.0,0.0,0.0,0.0,0.0,0.0,0.0,0.0,0.0,0.0,0.0,0.0,0.0,0.0,0.0,0.0,0.0,0.0,0.0,0.0,0.0,0.0,0.0,0.0,0.0,0.0,0.0,0.0,0.0,0.0,0.0,0.0,0.0,0.0,0.0,0.0,0.0,0.0,0.0,0.0,0.0,0.0,0.0,0.0,0.0,0.0,0.0,0.0,0.0,0.0,0.0,0.0,0.0,0.0,0.0,0.0,0.0,0.0,0.0,0.0,0.0,0.0,0.0,0.0,0.0,0.0,0.0,0.0,0.0,0.0,0.0,0.0,0.0,0.0,0.0,0.0,0.0,0.0,0.0,0.0,0.0,0.0,0.0,0.0,0.0,0.0,0.0,0.0,0.0,0.0,0.0,0.0,0.0,0.0,0.0,0.0,0.0,0.0,0.0,0.0,0.0,0.0,0.0,0.0,0.0,0.0,0.0,0.0,0.0,0.0,0.0,0.0,0.0,0.0,0.0,0.0,0.0,0.0,0.0,0.0,0.0,0.0,0.0,0.0,0.0,0.0,0.0,0.0,0.0,0.0,0.0,0.0,0.0,0.0,0.0,0.0,0.0,0.0,0.0,0.0,0.0,0.0,0.0,0.0,0.0,0.0,0.0,0.0,0.0,0.0,0.0,0.0,0.0,0.0,0.0,0.0,0.0,0.0,0.0,0.0,0.0,0.0,0.0,0.0,0.0,0.0,0.0,0.0,0.0,0.0,0.0,0.0,0.0,0.0,0.0,0.0,0.0,0.0,0.0,0.0,0.0,0.0,0.0,0.0,0.0,0.0,0.0,0.0,0.0,0.0,0.0,0.0,0.0,0.0,0.0,0.0,0.0,0.0,0.0,0.0,0.0,0.0,0.0,0.0,0.0,0.0,0.0,0.0,0.0,0.0,0.0,0.0,0.0,0.0,0.0,0.0,0.0,0.0,0.0,0.0,0.0,0.0,0.0,0.0,0.0,0.0,0.0,0.0,0.0,0.0,0.0,0.0,0.0,0.0,0.0,0.0,0.0,0.0,0.0,0.0,0.0,0.0,0.0,0.0,0.0,0.0,0.0,0.0,0.0,0.0,0.0,0.0,0.0,0.0,0.0,0.0,0.0,0.0,0.0,0.0,0.0,0.0,0.0,0.0,0.0,0.0,0.0,0.0,0.0,0.0,0.0,0.0,0.0,0.0,0.0,0.0,0.0,0.0,0.0,0.0,0.0,0.0,0.0,0.0,0.0,0.0,0.0,0.0,0.0,0.0,0.0,0.0,0.0,0.0,0.0,0.0,0.0,0.0,0.0,0.0,0.0,0.0,0.0,0.0,0.0,0.0,0.0,0.0,0.0,0.0,0.0,0.0,0.0,0.0,0.0,0.0,0.0,0.0,0.0,0.0,0.0,0.0,0.0,0.0,0.0,0.0,0.0,0.0,0.0,0.0,0.0,0.0,0.0,0.0,0.0,0.0,0.0,0.0,0.0,0.0,0.0,0.0,0.0,0.0,0.0,0.0,0.0,0.0,0.0,0.0,0.0,0.0,0.0,0.0,0.0,0.0,0.0,0.0,0.0,0.0,0.0,0.0,0.0,0.0,0.0,0.0,0.0,0.0,0.0,0.0,0.0,0.0,0.0,0.0,0.0,0.0,0.0,0.0,0.0,0.0,0.0,0.0,0.0,0.0,0.0,0.0,0.0,0.0,0.0,0.0,0.0,0.0,0.0,0.0,0.0,0.0,0.0,0.0,0.0,0.0,0.0,0.0,0.0,0.0,0.0,0.0,0.0,0.0,0.0,0.0,0.0,0.0,0.0,0.0,0.0,0.0,0.0,0.0,0.0,0.0,0.0,0.0,0.0,0.0,0.0,0.0,0.0,0.0,0.0,0.0,0.0,0.0,0.0,0.0,0.0,0.0,0.0,0.0,0.0,0.0,0.0,0.0,0.0,0.0,0.0,0.0,0.0,0.0,0.0,0.0,0.0,0.0,0.0,0.0,0.0,0.0,0.0,0.0,0.0,0.0,0.0,0.0,0.0,0.0,0.0,0.0,0.0,0.0,0.0,0.0,0.0,0.0,0.0,0.0,0.0,0.0,0.0,0.0,0.0,0.0,0.0,0.0,0.0,0.0,0.0,0.0,0.0,0.0,0.0,0.0,0.0,0.0,0.0,0.0,0.0,0.0,0.0,0.0,0.0,0.0,0.0,0.0,0.0,0.0,0.0,0.0,0.0,0.0,0.0,0.0,0.0,0.0,0.0,0.0,0.0,0.0,0.0,0.0,0.0,0.0,0.0,0.0,0.0,0.0,0.0,0.0,0.0,0.0,0.0,0.0,0.0,0.0,0.0,0.0,0.0,0.0,0.0,0.0,0.0,0.0,0.0,0.0,0.0,0.0,0.0,0.0,0.0,0.0,0.0,0.0,0.0,0.0,0.0,0.0,0.0,0.0,0.0,0.0,0.0,0.0,0.0,0.0,0.0,0.0,0.0,0.0,0.0,0.0,0.0,0.0,0.0,0.0]}],[{"header":{"parameterUnit":"kt","parameterCategory":2,"dx":1,"dy":1,"la1":29.587661999999998,"la2":31.0,"lo1":-88.76705300000003,"lo2":-86.6583820000003,"nx":115,"ny":88,"refTime":"2022-09-30T18:00:00:Z","depth":0,"parameterNumber":2,"parameterNumberName":"V-component_of_WINDS"},"data":[9.3217,9.472,9.6534,9.8225,9.9844,10.1335,10.25,10.3304,10.3767,10.3997,10.3997,10.3997,10.3997,10.3997,10.3997,10.403,10.3997,10.4127,10.4514,10.4898,10.5651,10.7774,11.0628,11.3949,11.7053,11.9607,12.1545,12.1913,12.2059,12.2059,12.2059,12.2059,12.2059,12.2059,12.2059,12.2059,12.2059,12.2059,12.2059,12.2059,12.2059,12.2059,12.2059,12.2059,12.2059,12.2059,12.2059,12.2059,12.2059,12.2059,12.2059,12.2059,12.2059,12.2059,12.2059,12.2059,12.2059,12.2059,12.2059,12.2059,12.3011,12.3938,12.4295,12.4795,12.5508,12.5366,12.5794,12.5936,12.6793,12.8576,12.9387,13.0529,13.1314,13.1528,13.1599,13.1599,13.1599,13.1599,13.1599,13.1599,13.1599,13.1599,13.1599,13.1599,13.1599,13.1599,13.1599,13.217,13.2429,13.4285,13.6282,13.7709,13.9136,14.0278,14.092,13.9822,13.8324,13.6639,13.4927,13.3214,13.2099,13.1742,13.3027,13.5426,13.6711,13.7567,13.9065,14.092,13.9351,13.7495,13.6639,13.5355,13.3027,13.1599,13.1599,9.2364,9.3153,9.5159,9.7128,9.9005,10.0596,10.1919,10.2903,10.3668,10.3997,10.3997,10.3997,10.3997,10.3997,10.3997,10.3997,10.403,10.4095,10.4159,10.4546,10.5091,10.7542,11.0038,11.2503,11.5824,11.8679,12.0796,12.1566,12.201,12.2059,12.2059,12.2059,12.2059,12.2059,12.2059,12.2059,12.2059,12.2059,12.2059,12.2059,12.2059,12.2059,12.2059,12.2059,12.2059,12.2059,12.2059,12.2059,12.2059,12.2059,12.2059,12.2059,12.2059,12.2059,12.2059,12.2059,12.2059,12.2059,12.213,12.2273,12.3368,12.4224,12.4391,12.5248,12.6579,12.7078,12.772,12.8077,12.8576,12.9433,12.9789,13.0529,13.1171,13.1599,13.1599,13.1599,13.1599,13.1599,13.1599,13.1599,13.1599,13.1599,13.1599,13.1599,13.1599,13.1599,13.1885,13.2572,13.3428,13.4998,13.6853,13.8494,13.9779,14.0278,14.075,13.9608,13.7896,13.6211,13.457,13.3286,13.2242,13.1885,13.2741,13.5212,13.6925,13.7852,13.9351,14.0349,13.8922,13.6925,13.5997,13.4855,13.2741,13.1599,13.1599,9.2046,9.2548,9.476,9.6782,9.8598,10.056,10.1953,10.2869,10.3635,10.3997,10.3997,10.3997,10.3997,10.3997,10.3997,10.3997,10.3997,10.3997,10.4128,10.4587,10.5537,10.771,11.0071,11.2507,11.5454,11.7952,11.9926,12.1142,12.179,12.1962,12.2059,12.2059,12.2059,12.2059,12.2059,12.2059,12.2059,12.2059,12.2059,12.2059,12.2059,12.2059,12.2059,12.2059,12.2059,12.2059,12.2059,12.2059,12.2059,12.2059,12.2059,12.2059,12.2059,12.2059,12.2059,12.2059,12.2059,12.2059,12.2416,12.3058,12.4367,12.5865,12.6507,12.7603,12.8719,12.9076,12.9718,12.9718,13.0217,13.0217,13.0671,13.0743,13.1314,13.1599,13.1599,13.1599,13.1599,13.1599,13.1625,13.1625,13.1677,13.1677,13.1703,13.1703,13.1651,13.1651,13.1599,13.217,13.3642,13.5212,13.7424,13.9208,14.0135,14.0778,14.0393,13.9037,13.7353,13.5783,13.407,13.2955,13.1956,13.1813,13.2384,13.4855,13.6782,13.7995,13.878,13.9323,13.8352,13.6711,13.5569,13.4427,13.3027,13.1599,13.1599,9.2295,9.2239,9.4358,9.6434,9.8449,10.0596,10.1988,10.2869,10.3635,10.3997,10.3997,10.3997,10.3997,10.3997,10.3997,10.3997,10.3997,10.3997,10.4227,10.5016,10.5675,10.7689,11.0271,11.2407,11.4978,11.7374,11.913,12.0291,12.1269,12.1864,12.2059,12.2059,12.2059,12.2059,12.2059,12.2059,12.2059,12.2059,12.2059,12.2059,12.2059,12.2059,12.2059,12.2059,12.2059,12.2059,12.2059,12.2059,12.2059,12.2059,12.2059,12.2059,12.2059,12.2059,12.2059,12.2059,12.2059,12.2059,12.2416,12.3439,12.4937,12.665,12.822,12.9861,13.0957,13.1385,13.1528,13.1457,13.1457,13.1457,13.1528,13.1457,13.1599,13.1599,13.1599,13.1599,13.1599,13.1625,13.1625,13.1703,13.1781,13.1832,13.1858,13.1832,13.1755,13.1729,13.1703,13.2508,13.4124,13.6068,13.828,13.9779,14.0706,14.0421,13.9565,13.8352,13.6639,13.4998,13.35,13.2527,13.1671,13.1956,13.2527,13.4713,13.6853,13.8494,13.9565,13.9252,13.811,13.6639,13.5283,13.3928,13.2527,13.1599,13.1599,9.3279,9.269,9.3586,9.6092,9.8709,10.0553,10.1979,10.2869,10.393,10.4063,10.4194,10.4128,10.4359,10.4654,10.4654,10.4589,10.4654,10.472,10.5213,10.6036,10.6695,10.8149,11.0507,11.2271,11.4604,11.6562,11.8287,11.9725,12.0878,12.1666,12.2059,12.2059,12.2059,12.2059,12.2059,12.2059,12.2059,12.2059,12.2059,12.2059,12.2059,12.2059,12.2059,12.2059,12.2059,12.2059,12.2059,12.2059,12.2059,12.2059,12.2059,12.2059,12.2059,12.2059,12.2059,12.2059,12.2059,12.2059,12.2487,12.3653,12.5223,12.6864,12.8337,12.9789,13.0788,13.1314,13.1528,13.1599,13.1599,13.1599,13.1599,13.1599,13.1599,13.1599,13.1599,13.1599,13.1599,13.1599,13.1703,13.1838,13.1965,13.2267,13.2292,13.2267,13.2171,13.2037,13.2364,13.3425,13.5132,13.7139,13.8994,14.0492,14.0706,14.0492,13.9351,13.7852,13.6068,13.4356,13.2786,13.1885,13.1599,13.2099,13.2812,13.4855,13.6996,13.8752,13.9921,13.8681,13.7638,13.6211,13.4784,13.3357,13.2429,13.1742,13.1599,9.4998,9.5002,9.5891,9.7713,10.026,10.2189,10.4036,10.5443,10.6257,10.6561,10.6561,10.6495,10.6561,10.6463,10.6429,10.6429,10.6364,10.6298,10.666,10.7646,10.8436,10.9728,11.1031,11.2739,11.4498,11.6143,11.7817,11.9326,12.0617,12.1516,12.2059,12.2059,12.2059,12.2059,12.2059,12.2059,12.2059,12.2059,12.2059,12.2059,12.2059,12.2059,12.2059,12.2059,12.2059,12.2059,12.2059,12.2059,12.2059,12.2059,12.2059,12.2059,12.2059,12.2059,12.2059,12.2059,12.2059,12.2059,12.2344,12.3653,12.5223,12.6864,12.8337,12.9433,13.0217,13.1171,13.1457,13.1599,13.1599,13.1599,13.1599,13.1599,13.1599,13.1599,13.1599,13.1599,13.1599,13.1599,13.1735,13.1991,13.2342,13.2661,13.2758,13.2734,13.2638,13.2607,13.3074,13.4302,13.6122,13.8033,13.962,14.0706,14.0706,14.0278,13.8922,13.7424,13.5712,13.407,13.2572,13.1813,13.1671,13.2027,13.2786,13.4713,13.6897,13.8823,14.0536,13.9037,13.721,13.5783,13.4356,13.2929,13.1956,13.1599,13.1599,9.6384,9.6699,9.76,9.9118,10.1288,10.3685,10.564,10.7241,10.7961,10.827,10.827,10.827,10.7941,10.827,10.827,10.8204,10.8204,10.827,10.8467,10.8993,10.9619,11.0651,11.1891,11.3237,11.474,11.6264,11.7617,11.9017,12.0432,12.1315,12.1815,12.2035,12.2059,12.2059,12.2059,12.2059,12.2059,12.2059,12.2059,12.2059,12.2059,12.2059,12.2059,12.2059,12.2059,12.2059,12.2059,12.2059,12.2059,12.2059,12.2059,12.2059,12.2059,12.2059,12.2059,12.2059,12.2059,12.213,12.2344,12.3653,12.4962,12.615,12.7577,12.8434,12.9575,13.06,13.1528,13.1599,13.1599,13.1599,13.1599,13.1599,13.1599,13.1599,13.1599,13.1599,13.1625,13.1729,13.1991,13.2292,13.2758,13.3114,13.3552,13.3552,13.3514,13.3287,13.3853,13.5369,13.7068,13.8767,14.023,14.0734,14.0635,13.9779,13.8494,13.6996,13.5355,13.3785,13.2598,13.1599,13.1599,13.1956,13.2786,13.4285,13.6211,13.828,14.0322,13.8994,13.6853,13.5355,13.3928,13.2598,13.1599,13.1599,13.1599,9.7392,9.7291,9.8024,9.9506,10.1479,10.4292,10.6249,10.7746,10.8196,10.8467,10.8401,10.8664,10.8796,10.8533,10.8467,10.8599,10.8796,10.873,10.9387,11.0211,11.0671,11.1608,11.2685,11.3736,11.4975,11.6264,11.7647,11.9045,12.0432,12.1238,12.1716,12.1962,12.2059,12.2059,12.2059,12.2059,12.2059,12.2059,12.2059,12.2059,12.2059,12.2059,12.2059,12.2059,12.2059,12.2059,12.2059,12.2059,12.2059,12.2059,12.2059,12.2059,12.2059,12.2059,12.2059,12.2059,12.2059,12.2059,12.2273,12.3368,12.4438,12.4723,12.6079,12.7649,12.8933,13.0243,13.11,13.1457,13.1599,13.1599,13.1599,13.1599,13.1599,13.1599,13.1599,13.1625,13.1651,13.1884,13.2142,13.2589,13.3042,13.3704,13.4235,13.4393,13.4359,13.4513,13.5234,13.6745,13.8282,13.9912,14.05,14.1004,14.0207,13.9351,13.7923,13.6425,13.4713,13.2786,13.1742,13.1599,13.1599,13.1813,13.3169,13.4641,13.5926,13.7424,13.9422,13.8851,13.6782,13.4998,13.3597,13.2313,13.1599,13.1599,13.1599,9.9011,9.927,10.0134,10.171,10.3775,10.5669,10.7338,10.8945,11.0366,11.1066,11.1,11.1,11.1,11.1,11.1066,11.1066,11.1066,11.1066,11.1592,11.1658,11.1789,11.2334,11.3051,11.3869,11.5041,11.6515,11.7886,11.9214,12.0669,12.1264,12.1691,12.1962,12.2059,12.2059,12.2059,12.2059,12.2059,12.2059,12.2059,12.2059,12.2059,12.2059,12.2059,12.2059,12.2059,12.2059,12.2059,12.2059,12.2059,12.2059,12.2059,12.2059,12.2059,12.2059,12.2059,12.2059,12.2059,12.2059,12.2059,12.294,12.3082,12.3225,12.4509,12.6079,12.7649,12.9361,13.0386,13.1314,13.1528,13.1599,13.1599,13.1599,13.1599,13.1599,13.1599,13.1625,13.1677,13.1935,13.2192,13.2878,13.3434,13.4332,13.504,13.5113,13.5553,13.6126,13.6704,13.8076,13.9587,14.0384,14.1082,14.0675,13.9921,13.8692,13.7291,13.589,13.4034,13.1956,13.1599,13.1599,13.1599,13.2027,13.374,13.5382,13.6354,13.7495,13.8994,13.9136,13.7281,13.5498,13.3526,13.2313,13.1742,13.1599,13.1599,9.9796,10.0442,10.1277,10.2708,10.4398,10.5994,10.7763,10.9584,11.1114,11.2192,11.2477,11.2548,11.2548,11.2548,11.2416,11.2351,11.2416,11.2548,11.2548,11.2482,11.2416,11.283,11.3388,11.4174,11.5237,11.6795,11.8181,11.9521,12.0878,12.1391,12.179,12.201,12.2059,12.2059,12.2059,12.2059,12.2059,12.2059,12.2059,12.2059,12.2059,12.2059,12.2059,12.2059,12.2059,12.2059,12.2059,12.2059,12.2059,12.2059,12.2059,12.2059,12.2059,12.2059,12.2059,12.2059,12.2059,12.2059,12.2059,12.2059,12.2059,12.263,12.3796,12.5437,12.6839,12.8362,12.9861,13.1171,13.1528,13.1599,13.1599,13.1599,13.1599,13.1599,13.1599,13.1625,13.1832,13.2088,13.2539,13.3158,13.4003,13.4967,13.5711,13.5913,13.7148,13.7983,13.9326,14.0709,14.1189,14.1721,14.1454,14.0834,13.9686,13.8213,13.6739,13.561,13.3919,13.2287,13.1781,13.1677,13.1956,13.2287,13.3856,13.5712,13.6711,13.7709,13.9208,13.9993,13.7995,13.5712,13.3383,13.1813,13.1599,13.1599,13.1599,9.9796,10.0383,10.1233,10.2202,10.3226,10.4961,10.7167,10.9253,11.0514,11.1544,11.2477,11.2548,11.2548,11.2548,11.2548,11.2548,11.2548,11.2548,11.2548,11.2548,11.2548,11.3071,11.3629,11.4444,11.5465,11.7171,11.8501,11.9783,12.1001,12.1491,12.1815,12.201,12.2059,12.2059,12.2059,12.2059,12.2059,12.2059,12.2059,12.2059,12.2059,12.2059,12.2059,12.2059,12.2059,12.2059,12.2059,12.2059,12.2059,12.2059,12.2059,12.2059,12.2059,12.2059,12.2059,12.2059,12.2059,12.2059,12.2059,12.2059,12.2059,12.2273,12.3154,12.4795,12.6579,12.8148,12.9504,13.0743,13.1457,13.1599,13.1599,13.1599,13.1599,13.1599,13.1599,13.1677,13.1991,13.2292,13.3043,13.3704,13.4653,13.56,13.6194,13.7052,13.841,14.0054,14.1848,14.2727,14.3007,14.2879,14.2091,14.1201,13.9761,13.8354,13.7044,13.5589,13.4083,13.2732,13.1889,13.1807,13.1989,13.267,13.407,13.5926,13.721,13.8423,13.9636,14.0778,13.8566,13.6282,13.3669,13.2099,13.1671,13.1599,13.1599,9.9627,9.99,10.0846,10.1823,10.2855,10.4836,10.6846,10.8663,11.0177,11.1435,11.2513,11.2548,11.2548,11.2548,11.2548,11.2548,11.2548,11.2548,11.2548,11.2548,11.2619,11.3005,11.3664,11.4544,11.5658,11.7398,11.8818,12.0056,12.1181,12.1691,12.1937,12.2035,12.2059,12.2059,12.2059,12.2059,12.2059,12.2059,12.2059,12.2059,12.2059,12.2059,12.2059,12.2059,12.2059,12.2059,12.2059,12.2059,12.2059,12.2059,12.2059,12.2059,12.2059,12.2059,12.2059,12.2059,12.2059,12.2059,12.2059,12.2059,12.2059,12.2273,12.2915,12.3724,12.5151,12.6721,12.8505,12.9861,13.1028,13.1599,13.1599,13.1599,13.1599,13.1599,13.1599,13.1755,13.2067,13.2565,13.3342,13.4226,13.5109,13.6016,13.6566,13.7189,13.8691,14.0327,14.1932,14.3024,14.3645,14.3526,14.2706,14.1628,13.9978,13.8559,13.7264,13.5396,13.367,13.2515,13.2192,13.1991,13.2398,13.3124,13.4356,13.6354,13.7923,13.918,14.0036,14.0706,13.9136,13.6853,13.5355,13.3812,13.3098,13.1599,13.1599,9.9536,9.9627,10.0622,10.1602,10.2595,10.4646,10.6523,10.8352,10.9913,11.1216,11.2335,11.2477,11.2548,11.2548,11.2548,11.2548,11.2548,11.2548,11.2548,11.2548,11.2619,11.3005,11.3664,11.4578,11.5723,11.7519,11.896,12.0191,12.1284,12.1765,12.1986,12.2059,12.2059,12.2059,12.2059,12.2059,12.2059,12.2059,12.2059,12.2059,12.2059,12.2059,12.2059,12.2059,12.2059,12.2059,12.2059,12.2059,12.2059,12.2059,12.2059,12.2059,12.2059,12.2059,12.2059,12.2059,12.2059,12.2059,12.2059,12.2701,12.3011,12.2986,12.2558,12.2844,12.4677,12.6079,12.7577,12.9076,13.0671,13.1528,13.1599,13.1599,13.1599,13.1599,13.1677,13.1858,13.2217,13.2782,13.3524,13.4582,13.5452,13.6326,13.6903,13.7399,13.896,14.0673,14.2038,14.3289,14.3925,14.4115,14.3503,14.2566,14.015,13.8462,13.8051,13.5786,13.3354,13.283,13.2539,13.2766,13.3171,13.3944,13.5168,13.6853,13.8609,13.968,14.0421,14.0849,13.9636,13.721,13.5854,13.4927,13.3455,13.1742,13.1599,9.942,9.9511,10.0504,10.1483,10.2595,10.4351,10.6342,10.8235,10.9648,11.0885,11.1905,11.2335,11.2548,11.2548,11.2548,11.2548,11.2548,11.2548,11.2548,11.2548,11.2619,11.3071,11.373,11.4578,11.5723,11.7548,11.896,12.0191,12.1136,12.179,12.201,12.2059,12.2059,12.2059,12.2059,12.2059,12.2059,12.2059,12.2059,12.2059,12.2059,12.2059,12.2059,12.2059,12.2059,12.2059,12.2059,12.2059,12.2059,12.2059,12.2416,12.263,12.2844,12.2986,12.3272,12.3272,12.32,12.3272,12.3414,12.4153,12.4652,12.4295,12.3582,12.3082,12.3938,12.5722,12.7363,12.8719,13.0029,13.1028,13.1528,13.1599,13.1599,13.1599,13.1651,13.1884,13.2292,13.2902,13.3814,13.4907,13.5801,13.6616,13.7208,13.7528,13.8829,14.1383,14.2912,14.3634,14.4253,14.4875,14.4254,14.3199,14.064,13.9016,13.8642,13.6929,13.4519,13.3479,13.3043,13.3332,13.393,13.5193,13.6292,13.7907,13.918,14.0135,14.092,14.0706,13.985,13.7495,13.564,13.4499,13.3098,13.1885,13.1599,9.8082,9.8172,9.9167,10.0712,10.2595,10.4455,10.6178,10.7944,10.9534,11.07,11.1544,11.2228,11.2548,11.2548,11.2548,11.2548,11.2548,11.2548,11.2548,11.2548,11.2619,11.3071,11.3732,11.4511,11.5787,11.7638,11.8988,12.0148,12.1136,12.174,12.2059,12.2059,12.2059,12.2059,12.2059,12.2059,12.2059,12.2059,12.2059,12.2059,12.2059,12.2059,12.2059,12.2059,12.2059,12.2059,12.2059,12.213,12.2202,12.2487,12.3296,12.3938,12.4081,12.4699,12.5198,12.5269,12.5626,12.5697,12.5936,12.5936,12.6293,12.5865,12.508,12.3653,12.351,12.4224,12.5865,12.7552,12.9076,13.0457,13.1242,13.1599,13.1599,13.1599,13.1599,13.1961,13.2342,13.309,13.3946,13.4987,13.5891,13.6729,13.7267,13.7612,13.9257,14.1962,14.3301,14.3914,14.4677,14.5484,14.5114,14.4571,14.1931,13.9765,13.8969,13.7516,13.5595,13.4183,13.3569,13.3693,13.4669,13.591,13.7212,13.8478,13.9779,14.0564,14.092,14.0564,14.0064,13.7923,13.5926,13.4427,13.3027,13.2099,13.1599,9.628,9.695,9.8506,10.0059,10.1798,10.4211,10.6097,10.7786,10.9458,11.0625,11.1435,11.2192,11.2548,11.2548,11.2548,11.2548,11.2548,11.2548,11.2548,11.2548,11.276,11.3246,11.3903,11.4777,11.6074,11.7787,11.9088,12.0308,12.1238,12.1839,12.2059,12.2059,12.2059,12.2059,12.2059,12.2059,12.2059,12.2059,12.2059,12.2059,12.2059,12.2059,12.2059,12.2059,12.2059,12.2558,12.3011,12.3129,12.3439,12.4342,12.4937,12.558,12.5865,12.6364,12.6981,12.7124,12.8077,12.8862,12.879,12.8291,12.8077,12.7577,12.6507,12.4937,12.3796,12.4224,12.5294,12.6767,12.8362,12.9932,13.1171,13.1528,13.1599,13.1599,13.1599,13.1961,13.2391,13.3184,13.3968,13.4953,13.5945,13.6599,13.7103,13.7649,13.9039,14.156,14.3134,14.4304,14.5359,14.6042,14.5936,14.5406,14.3059,14.0589,13.9376,13.781,13.596,13.4927,13.4353,13.4593,13.5546,13.6594,13.7891,13.9175,14.0219,14.0691,14.0849,14.0492,13.9664,13.8022,13.6282,13.4285,13.2456,13.1742,13.1599,9.439,9.5757,9.7757,9.9363,10.0839,10.3517,10.587,10.7786,10.9496,11.0625,11.1435,11.2157,11.2548,11.2548,11.2548,11.2548,11.2548,11.2548,11.2548,11.2583,11.29,11.3457,11.4276,11.527,11.6633,11.8229,11.9493,12.0573,12.0994,12.1414,12.1702,12.1774,12.1774,12.2059,12.2059,12.2059,12.2059,12.2059,12.2059,12.2059,12.2059,12.2059,12.2273,12.2416,12.263,12.32,12.4652,12.4866,12.5294,12.6553,12.691,12.7195,12.7195,12.7267,12.7481,12.8291,12.9718,13.1528,13.11,13.0217,12.9575,12.929,12.8077,12.665,12.558,12.5319,12.508,12.6696,12.8006,12.9433,13.06,13.1385,13.1599,13.1599,13.1599,13.1884,13.2267,13.2925,13.3726,13.4713,13.5637,13.6292,13.6966,13.7728,13.876,14.1098,14.3233,14.4852,14.6124,14.6678,14.6738,14.558,14.3605,14.1753,14.0324,13.8222,13.6645,13.5748,13.5473,13.5569,13.6629,13.7675,13.881,13.9795,14.0456,14.1143,14.117,14.0571,13.9291,13.7978,13.6666,13.4597,13.2242,13.1742,13.1599,9.3067,9.4374,9.5124,9.7344,10.0496,10.2292,10.4799,10.7597,10.9496,11.0662,11.1435,11.2157,11.2548,11.2548,11.2548,11.2548,11.2548,11.2548,11.2548,11.2619,11.297,11.3698,11.4645,11.5723,11.7064,11.872,11.9764,12.0191,12.0219,12.0322,12.03,12.0656,12.1631,12.2059,12.2059,12.2059,12.2059,12.2059,12.2059,12.2059,12.2059,12.213,12.263,12.3938,12.4081,12.4866,12.6293,12.6507,12.6793,12.7435,12.8148,12.879,12.9004,13.0029,13.0671,13.0717,13.1171,13.1528,13.1528,13.1028,13.0886,13.0814,12.9575,12.879,12.7863,12.6222,12.4937,12.5223,12.665,12.8362,12.9789,13.0886,13.1457,13.1599,13.1625,13.1755,13.2142,13.271,13.3524,13.4238,13.5206,13.5998,13.6697,13.7534,13.9035,14.1252,14.2873,14.4582,14.6765,14.7258,14.7013,14.5872,14.455,14.2849,14.0604,13.8427,13.7061,13.6303,13.6257,13.6555,13.7652,13.8651,13.9803,14.0836,14.1427,14.158,14.1526,14.1212,13.9376,13.7927,13.689,13.5096,13.267,13.1671,13.1599,9.2369,9.3051,9.406,9.6304,9.9241,10.1476,10.4287,10.7423,10.9381,11.0662,11.1435,11.2157,11.2548,11.2548,11.2548,11.2548,11.2548,11.2548,11.2548,11.2725,11.3284,11.4141,11.5009,11.6358,11.7787,11.8977,11.9561,11.9609,11.956,11.9681,11.98,12.0109,12.1298,12.2059,12.2059,12.2059,12.2059,12.2059,12.2059,12.2059,12.2059,12.3011,12.4153,12.5294,12.5794,12.6579,12.772,12.8051,12.8362,12.9147,12.9958,13.0315,13.06,13.1028,13.1528,13.1457,13.1528,13.1599,13.1599,13.1599,13.1599,13.1457,13.0886,13.0172,12.903,12.7863,12.6721,12.6436,12.7149,12.8434,12.9147,13.0671,13.1457,13.1599,13.1599,13.1729,13.1991,13.2564,13.2995,13.3614,13.453,13.5377,13.6224,13.7572,13.9263,14.0911,14.2457,14.4774,14.7212,14.7543,14.7422,14.6385,14.5413,14.3241,14.0664,13.8667,13.7162,13.6937,13.689,13.7618,13.8519,13.9258,14.0398,14.1705,14.1914,14.2039,14.196,14.1613,13.9456,13.7569,13.6453,13.5123,13.291,13.1599,13.1599,9.1962,9.2062,9.3449,9.5502,9.8024,10.0639,10.3795,10.7121,10.9164,11.0551,11.1435,11.2192,11.2548,11.2548,11.2548,11.2548,11.2548,11.2548,11.2583,11.283,11.3563,11.4578,11.5562,11.6949,11.8414,11.9239,11.9311,11.9386,11.9609,11.9729,11.9729,12.0085,12.1298,12.2059,12.2059,12.2059,12.2059,12.2059,12.2059,12.2416,12.2868,12.3867,12.5223,12.7149,12.7292,12.8148,12.929,12.9718,13.0243,13.1457,13.1528,13.1528,13.1457,13.1457,13.1599,13.1599,13.1599,13.1599,13.1599,13.1599,13.1599,13.1599,13.1457,13.0814,13.0029,12.9219,12.8291,12.7863,12.822,12.8862,12.9219,13.0671,13.1457,13.1599,13.1599,13.1677,13.1863,13.2267,13.2734,13.3137,13.3829,13.4713,13.5637,13.6887,13.9051,14.1126,14.2405,14.4194,14.6778,14.7631,14.7333,14.6512,14.5781,14.3199,14.0719,13.89,13.7637,13.7445,13.83,13.8973,13.9708,14.0216,14.0972,14.2445,14.3049,14.2902,14.2361,14.1767,13.9998,13.765,13.6235,13.4935,13.3196,13.1599,13.1599,9.1962,9.1962,9.2279,9.4484,9.766,9.9151,10.2507,10.6899,10.8895,11.0262,11.1362,11.2228,11.2548,11.2548,11.2548,11.2548,11.2548,11.2548,11.2725,11.304,11.3835,11.481,11.6105,11.7437,11.8846,12.0087,11.9356,11.9293,11.9609,11.9729,11.9729,12.0014,12.137,12.1988,12.2059,12.2059,12.2059,12.2059,12.213,12.2558,12.3938,12.4534,12.6247,12.8148,12.879,12.9647,13.0671,13.1028,13.1242,13.1528,13.1599,13.1599,13.1599,13.1599,13.1599,13.1599,13.1599,13.1599,13.1599,13.1599,13.1599,13.1599,13.1599,13.1385,13.0957,13.0101,12.9433,12.879,12.822,12.8123,12.9219,13.0646,13.1457,13.1599,13.1599,13.1625,13.1729,13.1935,13.2292,13.2782,13.3434,13.4217,13.5148,13.6476,13.9047,14.126,14.2125,14.3554,14.6194,14.7568,14.6689,14.5869,14.4734,14.2583,14.0683,13.8951,13.8231,13.8527,13.9869,14.0687,14.148,14.2098,14.2925,14.3891,14.4014,14.3854,14.3454,14.2107,14.0216,13.7916,13.6097,13.4361,13.3008,13.1813,13.1599,9.1962,9.1962,9.1962,9.4038,9.7304,9.8763,10.1913,10.6109,10.8522,11.0075,11.1142,11.2121,11.2548,11.2548,11.2548,11.2548,11.2548,11.2548,11.2725,11.3214,11.4039,11.5108,11.6327,11.7737,11.9102,12.0097,11.9477,11.9293,11.9609,11.9729,11.98,11.9871,12.1274,12.1988,12.2059,12.2059,12.2059,12.2059,12.213,12.2915,12.4509,12.5366,12.7149,12.8862,13.0075,13.0743,13.1457,13.1599,13.1599,13.1599,13.1599,13.1599,13.1599,13.1599,13.1599,13.1599,13.1599,13.1599,13.1599,13.1599,13.1599,13.1599,13.1599,13.1599,13.1314,13.1028,13.0529,13.0146,12.929,12.8362,12.9219,13.0671,13.1457,13.1599,13.1599,13.1599,13.1625,13.1729,13.1986,13.2367,13.3043,13.3814,13.503,13.6611,13.8853,14.1191,14.2101,14.3945,14.6542,14.6647,14.5915,14.4941,14.376,14.2219,14.0392,13.9277,13.8484,13.9412,14.0787,14.198,14.2892,14.3844,14.4698,14.4771,14.4813,14.4665,14.4057,14.2137,14.0342,13.7929,13.5768,13.3801,13.2417,13.1839,13.1599,9.1962,9.1962,9.1962,9.3969,9.7048,9.8554,10.1584,10.5912,10.8171,10.9774,11.0885,11.1941,11.2442,11.2548,11.2548,11.2548,11.2548,11.2548,11.2689,11.3211,11.4141,11.5304,11.6552,11.7955,11.934,12.0167,11.976,11.979,12.018,12.0442,12.03,12.0442,12.156,12.2059,12.2059,12.2059,12.2059,12.2059,12.2059,12.3129,12.4937,12.6339,12.7766,12.9789,13.0886,13.1528,13.1599,13.1599,13.1599,13.1599,13.1599,13.1599,13.1599,13.1599,13.1599,13.1599,13.1599,13.1599,13.1599,13.1599,13.1599,13.1599,13.1599,13.1599,13.1599,13.1528,13.1528,13.1385,13.0503,12.9886,13.0029,13.0957,13.1457,13.1599,13.1599,13.1599,13.1599,13.1599,13.1755,13.2016,13.2516,13.3088,13.4004,13.5893,13.8012,14.0794,14.2748,14.455,14.5322,14.5687,14.4959,14.4049,14.2675,14.0893,13.9365,13.8543,13.8657,13.962,14.149,14.3017,14.4123,14.5101,14.562,14.5804,14.567,14.5243,14.4896,14.3003,14.0111,13.7835,13.5603,13.3664,13.2158,13.1937,13.1599,9.1962,9.1962,9.1962,9.3969,9.7006,9.8278,10.1294,10.548,10.7684,10.9317,11.0737,11.1653,11.2228,11.2548,11.2548,11.2548,11.2548,11.2548,11.2619,11.304,11.3971,11.5402,11.6677,11.8142,11.934,12.0335,12.0937,12.1186,12.1463,12.1631,12.1774,12.1702,12.1845,12.2059,12.2059,12.2059,12.2059,12.2059,12.2059,12.3414,12.5697,12.6507,12.8006,13.0243,13.1242,13.1314,13.1528,13.1599,13.1599,13.1599,13.1599,13.1599,13.1599,13.1599,13.1599,13.1599,13.1599,13.1599,13.1599,13.1599,13.1599,13.1599,13.1599,13.1599,13.1599,13.1599,13.1599,13.1599,13.1457,13.1171,13.1171,13.1385,13.1599,13.1528,13.1528,13.1528,13.1599,13.1599,13.1703,13.2012,13.2192,13.271,13.3415,13.4389,13.6239,14.0055,14.1335,14.3339,14.4746,14.4096,14.3084,14.2542,14.1126,13.945,13.8713,13.7973,13.8754,13.9969,14.1931,14.3706,14.482,14.5973,14.6556,14.6653,14.6282,14.588,14.5146,14.2727,13.9913,13.7469,13.4965,13.3192,13.1852,13.1703,13.1599,9.1962,9.1962,9.1962,9.356,9.6077,9.7835,10.0764,10.4308,10.7029,10.9151,11.0439,11.1507,11.2192,11.2513,11.2548,11.2548,11.2548,11.2548,11.2548,11.2725,11.3629,11.5108,11.6739,11.8172,11.941,12.0458,12.1008,12.1541,12.1986,12.2059,12.2059,12.2059,12.2059,12.2059,12.2059,12.2059,12.2059,12.2059,12.213,12.3129,12.5366,12.558,12.7292,12.9575,13.0217,13.0814,13.1528,13.1599,13.1599,13.1528,13.1599,13.1599,13.1599,13.1599,13.1599,13.1599,13.1599,13.1599,13.1599,13.1599,13.1599,13.1599,13.1599,13.1599,13.1599,13.1599,13.1599,13.1599,13.1599,13.1599,13.1599,13.1599,13.1599,13.1528,13.0814,13.0217,13.0217,12.9504,12.9438,13.0137,13.0748,13.1289,13.2902,13.4376,13.6618,13.8907,14.0022,14.1905,14.3753,14.2041,14.0779,14.0327,13.9263,13.8576,13.7897,13.7796,13.8496,14.0065,14.1931,14.3915,14.5386,14.6918,14.7083,14.6928,14.6764,14.6104,14.418,14.2033,13.948,13.6976,13.432,13.2554,13.2058,13.1781,13.1651,9.1962,9.1962,9.1962,9.3209,9.5368,9.7179,9.9792,10.2914,10.6118,10.822,10.9801,11.1167,11.2049,11.2513,11.2548,11.2548,11.2548,11.2548,11.2548,11.2654,11.3319,11.4678,11.6237,11.7895,11.941,12.0432,12.1078,12.1541,12.2035,12.2059,12.2059,12.2059,12.2059,12.2059,12.2059,12.2059,12.2059,12.2059,12.2059,12.2915,12.4367,12.4677,12.5936,12.8434,12.8648,12.9219,13.0146,13.0717,13.0886,13.0432,13.0671,13.1171,13.1528,13.1599,13.1599,13.1599,13.1599,13.1599,13.1599,13.1599,13.1599,13.1599,13.1599,13.1599,13.1599,13.1599,13.1599,13.1599,13.1599,13.1599,13.1599,13.1599,13.1599,13.1385,13.0289,12.9219,12.8648,12.7623,12.7338,12.8434,12.9254,13.0297,13.1747,13.3455,13.5564,13.7584,13.8694,13.9691,14.1096,14.0411,13.9501,13.8807,13.8351,13.7773,13.7542,13.7708,13.855,14.0256,14.213,14.4183,14.602,14.7318,14.7363,14.7078,14.6758,14.5674,14.3657,14.1277,13.9148,13.6794,13.4511,13.2779,13.2289,13.1965,13.1935,9.1962,9.1962,9.1962,9.3209,9.5131,9.6344,9.848,10.1418,10.4566,10.6795,10.8401,11.0196,11.1572,11.234,11.2285,11.2416,11.2548,11.2548,11.2548,11.2593,11.3385,11.4107,11.5272,11.7445,11.9171,12.0405,12.1078,12.1541,12.2035,12.2059,12.2059,12.2059,12.2059,12.2059,12.2059,12.2059,12.2059,12.2059,12.2059,12.2844,12.432,12.4438,12.5366,12.6935,12.7078,12.7221,12.772,12.8576,12.8576,12.7623,12.8719,13.0003,13.1242,13.1599,13.1599,13.1599,13.1599,13.1599,13.1599,13.1599,13.1599,13.1599,13.1599,13.1599,13.1599,13.1599,13.1599,13.1599,13.1599,13.1599,13.1599,13.1599,13.1528,13.1385,12.9932,12.8434,12.7292,12.6839,12.6625,12.7149,12.8316,12.9443,13.0082,13.1574,13.3526,13.5329,13.6326,13.7492,13.8709,13.8914,13.8308,13.8039,13.7716,13.7401,13.7457,13.7775,13.8924,14.0643,14.2485,14.4611,14.6628,14.7301,14.7585,14.7064,14.6483,14.5035,14.3142,14.0468,13.8047,13.6448,13.4971,13.3382,13.2637,13.2465,13.2414,9.1962,9.1962,9.1962,9.2631,9.3711,9.5743,9.7693,9.9686,10.2909,10.5258,10.6756,10.8177,10.9641,11.0961,11.1197,11.1658,11.2482,11.2548,11.2052,11.15,11.2855,11.4106,11.4943,11.6708,11.8513,12.0245,12.1008,12.1541,12.2035,12.2059,12.2059,12.2059,12.2059,12.2059,12.2059,12.2059,12.2059,12.2059,12.2059,12.2344,12.2868,12.2986,12.3796,12.5151,12.5437,12.5936,12.6864,12.6436,12.6079,12.5865,12.6935,12.8505,13.0003,13.1028,13.1599,13.1599,13.1528,13.1528,13.1599,13.1385,13.1599,13.1599,13.1599,13.1528,13.1599,13.1599,13.1599,13.1599,13.1599,13.1599,13.1599,13.1599,13.11,13.0315,12.8719,12.7221,12.5722,12.4556,12.4342,12.5366,12.6008,12.7443,12.8976,13.049,13.174,13.4195,13.4609,13.5025,13.6457,13.6608,13.6699,13.6645,13.6929,13.7325,13.743,13.8256,13.9345,14.0956,14.2662,14.4695,14.6639,14.7237,14.7462,14.6942,14.6197,14.4778,14.1974,13.9366,13.759,13.618,13.4779,13.3849,13.3323,13.309,13.2997,9.1962,9.1962,9.1962,9.2172,9.2773,9.4782,9.6545,9.8102,10.1343,10.3685,10.5276,10.6554,10.8073,10.9481,10.9716,11.0277,11.1197,11.1197,11.0671,11.0118,11.1394,11.2438,11.3469,11.5097,11.7177,11.9111,12.057,12.1612,12.1986,12.2059,12.2059,12.2059,12.2059,12.2059,12.2059,12.2059,12.2059,12.2059,12.2059,12.2059,12.2059,12.213,12.263,12.3653,12.3796,12.4295,12.5269,12.4438,12.3796,12.3796,12.5366,12.6935,12.8362,12.9575,13.0146,13.0146,13.0146,13.0146,13.0146,13.0101,13.0003,13.0075,13.0075,13.0315,13.0743,13.0814,13.1028,13.1528,13.1599,13.1599,13.1457,13.1242,13.0146,12.8719,12.7149,12.5722,12.4723,12.3225,12.2772,12.3582,12.4224,12.5536,12.7471,12.9284,13.0432,13.2404,13.2921,13.3358,13.4738,13.5007,13.506,13.5839,13.65,13.7086,13.7356,13.7971,13.9107,14.0582,14.2227,14.4022,14.5816,14.6938,14.7088,14.6671,14.5792,14.402,14.0871,13.8659,13.7338,13.6005,13.5305,13.477,13.4235,13.3953,13.3776,9.1903,9.1729,9.1903,9.188,9.228,9.3327,9.478,9.6518,9.9481,10.1752,10.3638,10.597,10.7224,10.8167,10.827,10.827,10.8336,10.8467,10.8401,10.8404,10.8943,10.9744,11.0723,11.3078,11.5061,11.6664,11.9736,12.1445,12.2035,12.2059,12.2059,12.2059,12.2059,12.2059,12.2059,12.2059,12.2059,12.2059,12.2059,12.2059,12.2059,12.2059,12.2202,12.2202,12.2273,12.2344,12.2344,12.2273,12.2344,12.2416,12.3796,12.5294,12.6721,12.7267,12.7124,12.7338,12.7195,12.7124,12.7195,12.7338,12.7481,12.7481,12.7195,12.8006,12.9004,12.929,12.9789,13.0743,13.11,13.1314,13.0957,12.9932,12.8434,12.7124,12.558,12.4652,12.4153,12.3082,12.213,12.2416,12.3439,12.4509,12.5319,12.7271,12.9153,13.0086,13.1199,13.251,13.3332,13.4016,13.4541,13.5543,13.6366,13.7024,13.7341,13.7761,13.8931,14.0133,14.1778,14.3485,14.5368,14.634,14.6489,14.5966,14.5013,14.3162,14.0098,13.8548,13.72,13.6446,13.6057,13.5488,13.5124,13.4827,13.4697,9.0158,8.9344,8.9286,8.9368,8.9612,9.074,9.1885,9.3206,9.6622,9.9013,10.0915,10.3142,10.5198,10.6659,10.6792,10.6331,10.5509,10.6397,10.6792,10.6957,10.8249,10.918,11.0096,11.1704,11.3247,11.4911,11.774,12.0246,12.1819,12.2059,12.2059,12.2059,12.2059,12.2059,12.2059,12.2059,12.2059,12.2059,12.2059,12.2059,12.2059,12.2059,12.2059,12.2059,12.2059,12.2059,12.2059,12.2059,12.2059,12.213,12.2558,12.3653,12.5223,12.6339,12.6981,12.6981,12.691,12.6981,12.6981,12.6981,12.691,12.691,12.691,12.7053,12.7552,12.7695,12.7837,12.8291,12.8434,12.8434,12.8148,12.7007,12.5936,12.5294,12.3867,12.294,12.2868,12.2416,12.213,12.213,12.263,12.3439,12.4581,12.6436,12.7934,12.9147,13.0831,13.2096,13.283,13.3574,13.4489,13.5391,13.6263,13.6946,13.7326,13.7626,13.855,13.9909,14.1479,14.326,14.4905,14.5429,14.5578,14.4919,14.362,14.1873,14.0132,13.8558,13.7535,13.6899,13.6459,13.6241,13.5998,13.5711,13.5618,8.878,8.8105,8.8006,8.8006,8.8167,8.9301,9.0319,9.1455,9.4383,9.6924,9.9202,10.1029,10.3138,10.5345,10.5345,10.4819,10.4161,10.4885,10.5345,10.551,10.6532,10.749,10.83,10.9871,11.1378,11.3095,11.5783,11.8553,12.0964,12.1298,12.1488,12.1988,12.2059,12.2059,12.2059,12.2059,12.2059,12.2059,12.2059,12.2059,12.2059,12.2059,12.2059,12.2059,12.2059,12.2059,12.2059,12.2059,12.2059,12.2059,12.2059,12.2558,12.3653,12.4652,12.5127,12.5198,12.5198,12.5198,12.5127,12.5127,12.5198,12.5198,12.5198,12.5269,12.5936,12.6079,12.6364,12.6839,12.6981,12.6197,12.5412,12.4367,12.3653,12.3582,12.2701,12.213,12.2059,12.2059,12.2059,12.2059,12.213,12.2416,12.3653,12.508,12.665,12.822,12.9943,13.135,13.2469,13.3438,13.4363,13.5314,13.6212,13.6993,13.7415,13.7626,13.8114,13.9535,14.0806,14.2377,14.3124,14.3573,14.3709,14.305,14.2152,14.048,13.9345,13.7938,13.7794,13.7222,13.7148,13.695,13.6777,13.6517,13.6383,8.7948,8.7948,8.789,8.7715,8.7912,8.873,8.9848,9.076,9.2685,9.542,9.8489,9.9758,10.1503,10.3636,10.38,10.3898,10.3898,10.403,10.4128,10.4161,10.4161,10.4516,10.5433,10.7548,10.9494,11.1297,11.4033,11.6751,11.9229,11.9562,12.0442,12.1845,12.1845,12.1988,12.2059,12.2059,12.2059,12.2059,12.2059,12.2059,12.2059,12.2059,12.2059,12.2059,12.2059,12.2059,12.2059,12.2059,12.2059,12.2059,12.2059,12.2059,12.213,12.2202,12.2273,12.2273,12.2202,12.213,12.213,12.213,12.1988,12.1916,12.2059,12.2654,12.3963,12.4367,12.5009,12.6411,12.6268,12.5269,12.2915,12.2487,12.2273,12.2273,12.213,12.2059,12.2059,12.2059,12.2059,12.2059,12.2059,12.2202,12.2202,12.3582,12.5366,12.6935,12.8362,13.0167,13.2156,13.3277,13.4141,13.5237,13.616,13.6978,13.7386,13.7584,13.7762,13.8488,13.9623,14.067,14.1031,14.133,14.1255,14.0956,14.0283,13.9386,13.8339,13.7775,13.7708,13.7653,13.7556,13.7485,13.7178,13.7088,13.6981,8.6668,8.6454,8.5582,8.5233,8.5311,8.6222,8.7138,8.8247,9.0894,9.3295,9.5552,9.8751,10.0264,10.0621,10.1763,10.232,10.2452,10.3504,10.3997,10.3997,10.3997,10.4387,10.5119,10.6423,10.7733,10.9404,11.2269,11.4358,11.5521,11.7139,11.8872,12.0157,12.0371,12.0918,12.1916,12.2059,12.2059,12.2059,12.2059,12.2059,12.2059,12.2059,12.2059,12.2059,12.2059,12.2059,12.2059,12.2059,12.2059,12.2059,12.2059,12.2059,12.2059,12.2059,12.2059,12.2059,12.2059,12.156,12.0442,12.0371,11.9871,11.8944,11.98,12.0585,12.1156,12.2155,12.2915,12.3414,12.3414,12.3272,12.213,12.2059,12.2059,12.2059,12.2059,12.2059,12.2059,12.2059,12.2059,12.2059,12.2059,12.2059,12.2273,12.351,12.5105,12.665,12.822,13.0045,13.196,13.3067,13.3858,13.4967,13.5945,13.6697,13.7058,13.7471,13.7694,13.8149,13.91,14.0147,14.0521,14.0596,14.0521,14.0059,13.9086,13.8264,13.789,13.7815,13.7775,13.7762,13.7748,13.7694,13.7584,13.7528,13.7457,8.535,8.5233,8.4439,8.4148,8.4302,8.5164,8.5994,8.6885,8.9428,9.1836,9.4103,9.6908,9.8086,9.8175,9.9994,10.0776,10.0939,10.2386,10.3011,10.3109,10.3701,10.4322,10.4993,10.5769,10.6917,10.8397,11.0761,11.2303,11.3226,11.529,11.7303,11.8658,11.8801,11.9586,12.1013,12.1156,12.1488,12.2059,12.2059,12.1774,12.1274,12.1702,12.2059,12.2059,12.2059,12.1845,12.1203,12.1132,12.0775,12.0204,12.0204,12.0204,12.0133,12.0204,12.0133,12.0133,12.0204,11.9729,11.8801,11.8801,11.8373,11.7493,11.8302,11.9087,11.9681,12.0585,12.1156,12.1227,12.1774,12.2059,12.213,12.2059,12.2059,12.2059,12.2059,12.2059,12.2059,12.2059,12.2059,12.2059,12.2059,12.2059,12.2273,12.2915,12.4153,12.5794,12.7363,12.8994,13.1047,13.2564,13.3697,13.4766,13.5619,13.6309,13.6966,13.7399,13.7626,13.7925,13.8713,13.9249,13.9249,13.9324,13.9311,13.9249,13.8563,13.7965,13.774,13.7815,13.7815,13.7802,13.7815,13.7815,13.7815,13.7748,13.7708,8.4148,8.4148,8.4206,8.4148,8.4264,8.5126,8.5956,8.6825,8.8311,9.0714,9.3461,9.4782,9.5689,9.6424,9.8391,9.933,9.9461,10.0808,10.1465,10.1662,10.2978,10.4025,10.4727,10.545,10.6573,10.8244,10.9663,11.0789,11.1717,11.3821,11.5544,11.6875,11.7137,11.7945,11.9372,11.9538,12.0228,12.1631,12.1631,12.0918,11.9729,12.0918,12.1631,12.1631,12.1631,12.1013,11.9586,11.9515,11.8872,11.7565,11.7517,11.7422,11.7493,11.7422,11.7445,11.7493,11.7303,11.7208,11.716,11.6946,11.6566,11.6803,11.6709,11.7517,11.9039,11.9229,11.9372,12.0014,12.106,12.1774,12.2059,12.2059,12.2059,12.2059,12.2059,12.2059,12.2059,12.2059,12.2059,12.2059,12.2059,12.2059,12.2059,12.2202,12.2868,12.4224,12.5722,12.7539,12.985,13.1676,13.3134,13.4364,13.5295,13.5963,13.6793,13.7281,13.7612,13.7775,13.789,13.804,13.8114,13.804,13.789,13.8264,13.7815,13.7666,13.7591,13.7591,13.7516,13.7292,13.7292,13.7591,13.7815,13.7802,13.7428,8.4148,8.4148,8.4148,8.4148,8.4225,8.4821,8.5694,8.6788,8.7928,8.9503,9.1394,9.3112,9.4138,9.4957,9.6914,9.7848,9.8046,9.9361,9.9987,10.0053,10.0381,10.1551,10.3234,10.3979,10.5568,10.7893,10.9397,11.0492,11.1333,11.2451,11.3268,11.3855,11.5019,11.6352,11.7874,11.7945,11.8088,11.8444,11.8421,11.8278,11.7945,11.8278,11.8516,11.8421,11.8492,11.8302,11.8016,11.7945,11.7802,11.7422,11.7422,11.7422,11.7422,11.7422,11.7422,11.7279,11.6281,11.5567,11.5496,11.3356,11.2,11.2,11.3093,11.4449,11.5853,11.6138,11.7065,11.9324,12.0014,12.0799,12.1702,12.1988,12.2059,12.2059,12.2059,12.1988,12.2059,12.2059,12.2059,12.2059,12.2059,12.2059,12.2059,12.2059,12.2273,12.2868,12.4081,12.6347,12.9126,13.0454,13.1909,13.3466,13.488,13.5711,13.6443,13.7073,13.7528,13.7775,13.7815,13.7815,13.7815,13.7815,13.7815,13.774,13.774,13.7217,13.632,13.6021,13.6021,13.6021,13.6021,13.632,13.7292,13.7516,13.7067,8.4148,8.4148,8.4148,8.4148,8.4187,8.4476,8.5316,8.6493,8.7386,8.8686,9.0447,9.208,9.3242,9.4092,9.5585,9.6311,9.6468,9.7914,9.8572,9.8572,9.9198,10.0363,10.1772,10.2411,10.3792,10.573,10.7239,10.8667,11.0063,11.0892,11.1799,11.2714,11.3592,11.4805,11.6209,11.6352,11.6709,11.7374,11.6709,11.6352,11.6352,11.6994,11.7422,11.7422,11.7422,11.7089,11.6352,11.6352,11.5995,11.5305,11.5305,11.4948,11.4306,11.4212,11.3878,11.3164,11.2308,11.188,11.188,11.031,10.9383,10.9383,11.081,11.2094,11.2928,11.357,11.4997,11.7374,11.8302,11.9015,11.9776,11.9919,12.0228,12.0942,12.1013,12.1274,12.1916,12.2059,12.2059,12.2059,12.2059,12.2059,12.2059,12.2059,12.2059,12.213,12.2772,12.4751,12.8025,12.8344,12.9129,13.209,13.3486,13.4716,13.6194,13.7055,13.7471,13.7775,13.7815,13.7815,13.7815,13.7815,13.7516,13.6918,13.6768,13.6095,13.46,13.4363,13.4363,13.4363,13.4375,13.4525,13.5273,13.5572,13.4974,8.4148,8.4148,8.4148,8.4148,8.4148,8.4148,8.4801,8.586,8.6581,8.8011,9.0037,9.1489,9.2698,9.3715,9.4525,9.5013,9.535,9.6533,9.709,0.0,9.8344,9.9343,10.0123,10.0851,10.1788,10.3134,10.4618,10.6331,10.8325,10.9215,11.0423,11.1858,11.2116,11.2736,11.3998,11.4355,11.5068,11.6352,11.5139,11.4569,11.4783,11.609,11.6732,11.6803,11.6709,11.5995,11.4497,11.4403,11.3713,11.2165,11.2094,11.1452,11.0217,11.0146,10.9383,10.7906,10.7549,10.7335,10.7121,10.6907,10.6835,10.7121,10.8741,10.9646,10.9504,11.1238,11.3093,11.464,11.6209,11.7137,11.7422,11.7493,11.8159,11.9229,11.9372,11.9871,12.106,12.1274,12.1274,12.156,12.1702,12.1702,12.1988,12.2059,12.2059,12.2059,12.2273,12.3131,12.559,12.5761,12.6877,13.0087,13.1744,13.3243,13.4902,13.6237,13.6501,13.7103,13.6918,13.6768,13.6768,13.6694,13.632,13.5335,13.5123,13.445,13.2942,13.2568,13.2568,13.2568,13.2643,13.2792,13.3241,13.2643,13.2269,8.4148,8.4148,8.4148,8.4148,8.4148,8.4148,8.4264,8.4571,0.0,0.0,0.0,9.1389,9.2698,9.3715,9.4494,9.4982,9.5254,9.5547,9.5613,9.5583,9.5876,9.6847,9.8459,9.9117,10.0442,10.2617,10.4041,10.5394,10.6562,10.7383,10.8182,10.8862,10.8905,10.9048,10.9404,11.0596,11.1358,11.1644,11.1358,11.1858,11.3093,11.3378,11.3592,11.3592,11.3615,11.2879,11.1287,11.1216,11.0502,10.9048,10.8905,10.8762,10.8548,10.8477,10.7834,10.6243,10.4959,10.3675,10.241,10.1106,10.0963,10.2268,10.4959,10.6029,10.4724,10.8434,11.1452,11.3022,11.4569,11.5995,11.7303,11.7351,11.7517,11.7802,11.7802,11.7874,11.8207,11.823,11.8872,11.9871,12.0157,12.0585,12.1774,12.1916,12.2059,12.2059,12.1916,12.244,12.2988,12.3993,12.5635,12.8614,13.0222,13.131,13.2343,13.3203,13.3443,13.4011,13.3989,13.3839,13.3839,13.3839,13.369,13.3465,13.3391,13.2656,13.1322,13.0874,13.0861,13.0861,13.0936,13.1235,13.2282,13.0848,12.9216,8.4148,0.0,8.4148,8.4148,0.0,8.4148,8.3489,8.2381,8.3166,8.4918,8.7239,8.8847,9.0268,9.1395,9.2847,9.3718,9.4202,9.4955,9.5284,9.5284,9.5284,9.5763,9.6818,9.7468,9.8582,10.0185,10.1546,10.3184,10.4876,10.5782,10.681,10.8048,10.812,10.812,10.812,10.8883,10.924,10.924,10.924,10.9597,11.0332,11.0403,11.0403,11.0403,0.0,0.0,0.0,0.0,0.0,0.0,0.0,0.0,0.0,0.0,0.0,10.239,10.1463,10.0749,9.9964,9.9179,9.9108,9.9821,10.132,10.1534,9.9984,10.4153,10.7884,11.0189,11.1095,11.1809,11.2594,11.2687,11.3307,11.4805,11.5019,11.5733,11.7089,11.7422,11.7731,11.8444,11.8587,11.8801,11.9657,11.9705,11.9705,11.9705,12.0371,12.0894,12.1133,12.1551,12.2734,12.4957,12.7579,13.0145,13.1482,13.2265,13.2793,13.289,13.2942,13.2942,13.2942,13.2942,13.2643,13.1833,13.1684,13.116,12.9677,12.9228,12.9303,12.9228,12.9303,12.9602,13.0113,12.9216,12.8106,8.3489,8.3489,8.3489,8.3489,8.3489,8.3489,8.2306,8.0555,8.1285,8.2691,8.4565,8.6286,8.7757,8.9151,9.0915,9.2035,9.2756,9.3903,9.4429,9.4429,9.4429,9.4548,9.4747,9.5424,9.619,9.6977,9.8304,10.012,10.2375,10.315,10.4613,10.6629,10.6743,10.6907,10.7192,0.0,0.0,0.0,10.7335,10.7763,10.8048,10.812,10.812,10.812,10.812,0.0,10.762,10.7335,10.7049,10.6764,10.6478,0.0,0.0,0.0,0.0,0.0,0.0,0.0,0.0,0.0,0.0,0.0,9.6896,9.6254,9.5631,9.9251,10.3032,10.6407,10.7335,10.762,10.762,10.7906,10.9119,11.1523,11.188,11.2808,11.5234,11.559,11.5947,11.6447,11.6518,11.6732,11.7374,11.7422,11.7422,11.766,11.8563,11.9203,11.8908,11.8776,11.9425,12.1266,12.4665,12.7936,12.9976,13.0308,13.0308,13.1035,13.1073,13.0923,13.0699,13.0774,13.04,12.9216,12.9079,12.8555,12.7346,12.7421,12.7571,12.7646,12.787,12.7945,12.7272,12.7122,12.7122,8.091,8.0947,8.0947,8.091,8.091,8.0947,8.0772,8.0555,8.1321,8.2125,8.3087,8.5894,8.7757,8.9117,8.9942,9.0627,9.1207,9.1499,9.1536,9.1499,9.1536,9.1564,9.1585,9.2125,9.2766,9.3473,9.4668,9.5922,9.7207,9.8097,9.9627,10.1575,10.1901,10.2604,10.3868,10.2676,10.1982,10.2054,10.4673,10.6671,10.8048,10.812,10.812,10.812,10.812,10.7406,10.61,10.4745,10.3369,10.2054,10.0678,9.975,9.9393,9.8057,9.6487,0.0,9.3239,0.0,0.0,0.0,0.0,0.0,0.0,0.0,0.0,9.3952,9.7039,10.1554,10.4459,10.6029,10.6029,10.7263,10.8263,10.8619,10.8691,10.8833,10.919,10.9262,11.0332,11.3022,11.3307,11.4449,11.6732,11.7422,11.7351,11.7017,11.7322,11.683,11.5229,11.5853,11.7614,12.0235,12.143,12.2621,12.3846,12.4181,12.4508,12.4544,12.4792,12.4343,12.4642,12.4642,12.4418,12.4194,12.4343,12.4119,12.3745,12.4954,12.5851,12.5926,12.6898,12.6973,12.4729,12.3969,12.367,8.0481,8.0481,8.0481,7.8794,7.6175,7.614,7.614,7.6175,7.696,7.7711,7.8457,8.0507,8.2462,8.4355,8.5789,8.6707,8.7431,8.9037,8.976,8.9826,9.0615,9.0944,9.0972,9.1333,9.1946,9.2801,9.3895,9.5061,9.6256,9.7118,9.8218,9.9379,9.9671,10.0107,10.08,10.0178,10.0178,10.1055,10.2482,10.3889,10.5387,10.5458,10.553,10.5458,10.553,10.4745,10.3196,10.2462,10.1391,9.9821,9.8252,9.6967,9.604,9.4523,9.2615,0.0,0.0,0.0,0.0,0.0,0.0,0.0,0.0,0.0,0.0,0.0,9.2187,9.4327,9.82,10.0912,10.1819,10.2482,10.3267,10.4123,10.4195,10.4551,10.5387,10.6243,10.7335,10.8669,10.9618,11.0689,11.2023,11.2237,11.2259,11.2237,11.2545,11.2367,11.1467,11.2285,11.3976,11.6255,11.716,11.8094,11.9738,12.0924,12.1978,12.2836,12.3072,12.3072,12.3072,12.3072,12.3072,12.3072,12.3072,12.3072,12.3072,12.367,12.4119,12.4269,12.4804,12.4717,12.3371,12.3072,12.3072,7.8619,7.8619,7.7979,7.5442,7.1803,7.1836,7.1836,7.1869,7.2613,7.3257,7.3864,7.5199,7.6988,7.9034,8.1111,8.2525,8.3421,8.5749,8.6933,8.7393,8.8774,8.946,8.946,9.007,9.0784,9.1555,9.2605,9.3743,9.4984,9.5956,9.6862,9.7643,9.6832,9.6468,9.6539,9.7253,9.818,9.9413,10.0484,10.1677,10.2798,10.3226,10.3226,10.289,10.289,10.2105,10.0626,9.9841,9.8823,9.759,9.5255,9.3471,9.2258,9.0385,0.0,0.0,0.0,0.0,0.0,0.0,0.0,0.0,0.0,7.9042,8.0985,0.0,8.7192,0.0,9.192,9.5345,9.6877,9.7376,0.0,0.0,9.9393,10.0036,10.1514,10.2818,10.3838,10.4531,10.5672,10.6692,10.7406,10.7477,10.7121,10.5979,10.6188,10.6838,10.7926,10.8684,11.0217,11.2695,11.3807,11.4724,11.6438,11.7998,11.9282,12.053,12.068,12.0754,12.068,12.0754,12.0829,12.1203,12.1278,12.1502,12.1726,12.225,12.21,12.0979,12.0754,12.0754,12.0754,12.0605,12.068,7.3348,7.3174,7.0905,6.9652,6.9335,6.9303,6.9277,6.934,7.0032,7.0438,7.0809,7.2368,7.3614,7.4682,7.6745,0.0,8.0423,8.0686,8.154,8.279,8.4236,8.4867,8.4933,8.6638,8.7716,8.8254,8.9323,9.0368,9.1456,9.255,9.4022,9.5719,9.1913,8.9975,9.0118,9.2829,9.4309,9.4523,9.8823,10.1126,10.1269,10.2655,10.2727,10.134,10.1269,10.0535,9.8894,9.6111,9.438,9.4166,9.0046,8.7603,8.7389,0.0,0.0,0.0,0.0,0.0,0.0,0.0,0.0,0.0,0.0,0.0,0.0,0.0,0.0,0.0,8.7049,0.0,9.2008,9.3453,0.0,0.0,0.0,9.5112,9.6773,9.7077,9.8271,10.1126,0.0,0.0,10.553,10.5886,10.4388,10.0107,9.9815,10.1237,10.4458,10.5557,10.7519,11.0923,11.2056,11.2674,11.2874,11.3644,11.41,11.4324,11.4111,11.4474,11.4474,11.4399,11.4847,11.6193,11.6279,11.6728,11.831,11.9656,11.9495,11.5072,11.4324,11.4335,11.4548,11.4623,11.4698,6.9335,6.5668,6.468,6.4273,6.4361,6.4273,6.4332,6.4332,6.5004,6.5466,6.5778,6.7228,6.8334,6.9225,7.0665,0.0,0.0,0.0,7.7398,7.9658,8.1146,8.2238,8.3119,8.3776,8.4483,8.5172,8.5917,8.6898,8.8139,8.9186,8.929,8.8409,0.0,0.0,8.7817,8.903,9.1027,9.3809,9.5826,9.7681,9.9607,10.025,10.0321,9.9679,9.9679,9.8466,9.5897,9.4523,9.2597,8.9814,8.6978,8.4624,0.0,0.0,0.0,0.0,0.0,0.0,0.0,0.0,0.0,0.0,0.0,6.9497,7.1623,0.0,0.0,0.0,8.1413,8.4607,8.7121,8.7906,0.0,0.0,0.0,0.0,0.0,0.0,0.0,9.5165,9.7039,9.8719,9.9913,9.9349,9.8797,9.8751,9.9099,9.9871,10.1426,0.0,10.3462,10.5402,10.6081,10.6506,10.6902,10.8746,11.0211,11.0286,11.1942,11.3277,11.3277,11.3277,11.3502,11.4025,11.4249,11.4485,11.5083,11.487,11.3972,11.2252,11.2615,11.3277,11.3277,11.3277,11.3277,6.4216,0.0,0.0,0.0,0.0,5.907,5.9245,5.9679,6.0276,6.0908,6.1525,6.2544,0.0,0.0,0.0,0.0,0.0,0.0,7.3344,7.6106,7.7595,7.9042,8.0357,8.0817,8.1328,8.2047,8.2606,8.356,8.4747,8.3998,8.2713,8.1156,0.0,0.0,0.0,0.0,8.812,9.1669,9.3257,9.5255,9.8038,9.8537,9.8751,9.8751,9.7804,9.6092,9.331,9.1883,8.9618,8.6319,8.3411,0.0,0.0,0.0,0.0,0.0,0.0,0.0,0.0,0.0,0.0,0.0,0.0,0.0,0.0,0.0,0.0,0.0,0.0,0.0,8.1643,8.2697,8.3196,0.0,0.0,0.0,0.0,0.0,0.0,0.0,0.0,0.0,9.3208,9.3407,9.4427,0.0,0.0,9.8344,9.9024,9.9847,10.0639,10.1722,10.2222,0.0,0.0,10.5153,10.6764,10.6847,10.8876,11.0447,11.0511,11.0436,11.0671,11.112,11.1184,11.1045,11.0586,10.9475,10.8737,10.8737,10.9624,11.0436,11.0436,11.0511,11.0447,0.0,0.0,0.0,0.0,0.0,0.0,0.0,0.0,5.6339,5.7332,0.0,5.8687,0.0,0.0,0.0,0.0,0.0,6.6613,0.0,0.0,7.3189,7.4636,7.6082,7.7373,7.8324,7.8901,7.9425,8.0281,8.0913,7.6098,0.0,0.0,0.0,0.0,0.0,0.0,8.5408,8.7229,9.1526,9.4684,9.6416,9.7895,9.868,9.8609,9.5664,9.331,9.1508,8.7335,8.48,8.4514,7.8844,0.0,0.0,0.0,0.0,0.0,0.0,0.0,0.0,0.0,0.0,0.0,0.0,0.0,0.0,0.0,0.0,0.0,0.0,0.0,0.0,7.8258,0.0,0.0,0.0,0.0,0.0,0.0,0.0,0.0,0.0,0.0,8.5834,8.9384,9.2256,9.2399,0.0,0.0,0.0,0.0,9.9528,10.1515,10.2299,10.2652,10.2902,10.3265,10.3632,10.3632,0.0,0.0,10.3781,10.3781,10.4464,10.5885,10.6334,10.5661,10.4016,10.3642,10.3642,10.3632,10.3781,10.3781,10.3791,10.4091,10.4006,0.0,0.0,0.0,0.0,0.0,0.0,0.0,0.0,0.0,5.2894,0.0,5.4269,0.0,0.0,0.0,0.0,0.0,0.0,0.0,0.0,6.8652,7.0076,7.1523,7.2048,7.2427,0.0,7.3313,7.1999,0.0,0.0,0.0,0.0,0.0,0.0,0.0,0.0,8.144,8.494,8.8744,9.1522,9.3108,9.477,9.5093,9.4095,9.2953,9.067,8.7121,8.3482,8.0556,0.0,0.0,0.0,0.0,0.0,0.0,0.0,0.0,0.0,0.0,0.0,0.0,0.0,0.0,0.0,0.0,0.0,0.0,0.0,0.0,0.0,0.0,0.0,7.3778,0.0,0.0,0.0,0.0,0.0,0.0,0.0,0.0,0.0,8.264,8.5571,8.8609,9.0486,9.2425,9.4327,9.6116,0.0,0.0,0.0,0.0,0.0,0.0,0.0,10.1683,10.1753,10.266,10.3408,10.3408,10.3408,10.3642,10.4165,0.0,0.0,9.7809,9.7809,9.8557,9.8557,9.9529,10.0202,10.0212,10.0212,10.0576,0.0,0.0,0.0,0.0,0.0,0.0,0.0,0.0,0.0,5.0217,5.0864,0.0,0.0,0.0,0.0,0.0,0.0,0.0,0.0,0.0,0.0,0.0,6.6329,6.6329,0.0,0.0,0.0,0.0,0.0,0.0,0.0,0.0,0.0,0.0,0.0,0.0,7.8128,8.218,8.5527,8.8526,9.1101,9.1823,9.2005,9.1488,9.0563,8.8245,8.464,0.0,0.0,0.0,0.0,0.0,0.0,0.0,0.0,0.0,0.0,0.0,0.0,0.0,0.0,0.0,0.0,0.0,0.0,0.0,0.0,0.0,0.0,0.0,0.0,0.0,6.914,0.0,0.0,0.0,0.0,0.0,0.0,0.0,0.0,0.0,0.0,0.0,8.5438,8.8381,9.0842,9.2961,9.4699,9.5955,9.6756,0.0,0.0,0.0,0.0,0.0,0.0,0.0,0.0,0.0,0.0,0.0,0.0,0.0,0.0,9.7061,9.265,9.2733,9.3556,9.3556,0.0,0.0,0.0,0.0,0.0,0.0,0.0,0.0,0.0,0.0,0.0,0.0,0.0,0.0,0.0,0.0,0.0,0.0,5.143,0.0,0.0,0.0,0.0,0.0,0.0,0.0,0.0,0.0,0.0,0.0,0.0,0.0,0.0,0.0,0.0,0.0,0.0,0.0,0.0,0.0,0.0,7.5662,7.8832,8.2163,8.6015,9.0436,8.9572,8.9757,9.1018,8.8424,8.6033,8.4355,0.0,0.0,0.0,0.0,0.0,0.0,0.0,0.0,0.0,0.0,0.0,0.0,0.0,0.0,0.0,0.0,0.0,0.0,0.0,0.0,0.0,0.0,0.0,0.0,0.0,0.0,6.7757,6.9412,7.0423,0.0,0.0,0.0,0.0,0.0,0.0,0.0,0.0,0.0,0.0,8.9053,9.1705,9.3442,9.5452,9.6831,9.7229,9.7673,9.8059,9.8351,9.8415,9.8492,0.0,0.0,0.0,0.0,0.0,0.0,0.0,0.0,0.0,0.0,0.0,0.0,0.0,0.0,0.0,0.0,0.0,0.0,0.0,0.0,0.0,0.0,0.0,0.0,0.0,0.0,0.0,0.0,0.0,0.0,0.0,0.0,0.0,0.0,0.0,0.0,0.0,0.0,0.0,0.0,0.0,0.0,0.0,0.0,0.0,0.0,0.0,0.0,0.0,0.0,0.0,0.0,0.0,0.0,7.2346,7.6444,8.0826,8.4417,8.7049,8.8065,8.8453,8.8032,8.6182,8.3365,0.0,0.0,0.0,0.0,0.0,0.0,0.0,0.0,0.0,0.0,0.0,0.0,0.0,0.0,0.0,0.0,0.0,0.0,0.0,0.0,0.0,0.0,0.0,0.0,0.0,0.0,0.0,0.0,6.5203,6.6357,6.861,0.0,0.0,0.0,0.0,0.0,0.0,0.0,0.0,0.0,0.0,8.9267,9.1984,9.4123,9.5602,9.5844,9.7152,9.8154,9.8372,9.7444,9.6772,9.6772,0.0,0.0,0.0,0.0,0.0,0.0,0.0,0.0,0.0,0.0,0.0,0.0,0.0,0.0,0.0,0.0,0.0,0.0,0.0,0.0,0.0,0.0,0.0,0.0,0.0,0.0,0.0,0.0,0.0,0.0,0.0,0.0,0.0,0.0,0.0,0.0,0.0,0.0,0.0,0.0,0.0,0.0,0.0,0.0,0.0,0.0,0.0,0.0,0.0,0.0,0.0,0.0,0.0,6.9233,7.3167,7.8056,8.1769,8.4095,8.5617,8.6083,8.5437,8.3538,8.0576,0.0,0.0,0.0,0.0,0.0,0.0,0.0,0.0,0.0,0.0,0.0,0.0,0.0,0.0,0.0,0.0,0.0,0.0,0.0,0.0,0.0,0.0,0.0,0.0,0.0,0.0,0.0,0.0,6.2135,6.3218,6.5119,0.0,0.0,0.0,0.0,0.0,0.0,0.0,0.0,0.0,0.0,8.6463,8.9625,9.228,0.0,0.0,9.5475,9.6351,9.649,9.5678,9.5042,9.5042,9.3173,0.0,0.0,0.0,0.0,0.0,0.0,0.0,0.0,0.0,0.0,0.0,0.0,0.0,0.0,0.0,0.0,0.0,0.0,0.0,0.0,0.0,0.0,0.0,0.0,0.0,0.0,0.0,0.0,0.0,0.0,0.0,0.0,0.0,0.0,0.0,0.0,0.0,0.0,0.0,0.0,0.0,0.0,0.0,0.0,0.0,0.0,0.0,0.0,0.0,0.0,0.0,0.0,0.0,6.9543,7.4319,7.8413,8.1621,8.2493,8.3008,8.3127,8.0674,7.7832,0.0,0.0,0.0,0.0,0.0,0.0,0.0,0.0,0.0,0.0,0.0,0.0,0.0,0.0,0.0,0.0,0.0,0.0,0.0,0.0,0.0,0.0,0.0,0.0,0.0,0.0,0.0,0.0,0.0,0.0,0.0,0.0,0.0,0.0,0.0,0.0,0.0,0.0,0.0,0.0,0.0,8.3361,8.6669,8.9952,9.2209,0.0,0.0,9.3333,9.3511,9.3314,9.3164,9.3164,0.0,0.0,0.0,0.0,0.0,0.0,0.0,0.0,0.0,0.0,0.0,0.0,0.0,0.0,0.0,0.0,0.0,0.0,0.0,0.0,0.0,0.0,0.0,0.0,0.0,0.0,0.0,0.0,0.0,0.0,0.0,0.0,0.0,0.0,0.0,0.0,0.0,0.0,0.0,0.0,0.0,0.0,0.0,0.0,0.0,0.0,0.0,0.0,0.0,0.0,0.0,0.0,0.0,0.0,6.897,7.2475,7.6014,7.9322,8.0983,8.1635,8.1209,7.857,0.0,0.0,0.0,0.0,0.0,0.0,0.0,0.0,0.0,0.0,0.0,0.0,0.0,0.0,0.0,0.0,0.0,0.0,0.0,0.0,0.0,0.0,0.0,0.0,0.0,0.0,0.0,5.7427,0.0,0.0,0.0,0.0,0.0,0.0,0.0,0.0,0.0,0.0,0.0,0.0,0.0,0.0,8.0354,8.355,8.6882,8.9223,0.0,0.0,9.3334,9.3529,9.1453,8.9891,0.0,0.0,0.0,0.0,0.0,0.0,0.0,0.0,0.0,0.0,0.0,0.0,0.0,0.0,0.0,0.0,0.0,0.0,0.0,0.0,0.0,0.0,0.0,0.0,0.0,0.0,0.0,0.0,0.0,0.0,0.0,0.0,0.0,0.0,0.0,0.0,0.0,0.0,0.0,0.0,0.0,0.0,0.0,0.0,0.0,0.0,0.0,0.0,0.0,0.0,0.0,0.0,0.0,0.0,6.1719,6.6363,7.0222,7.3465,7.6202,7.8198,7.8876,7.8156,7.6309,7.4042,0.0,0.0,0.0,0.0,0.0,0.0,0.0,0.0,0.0,0.0,0.0,0.0,0.0,0.0,0.0,0.0,0.0,0.0,0.0,0.0,0.0,0.0,0.0,0.0,0.0,0.0,0.0,0.0,0.0,0.0,0.0,0.0,0.0,0.0,0.0,0.0,0.0,0.0,0.0,0.0,0.0,0.0,8.0545,8.373,0.0,0.0,0.0,8.9171,8.9267,0.0,0.0,0.0,0.0,0.0,0.0,0.0,0.0,0.0,0.0,0.0,0.0,0.0,0.0,0.0,0.0,0.0,0.0,0.0,0.0,0.0,0.0,0.0,0.0,0.0,0.0,0.0,0.0,0.0,0.0,0.0,0.0,0.0,0.0,0.0,0.0,0.0,0.0,0.0,0.0,0.0,0.0,0.0,0.0,0.0,0.0,0.0,0.0,0.0,0.0,0.0,0.0,0.0,0.0,0.0,0.0,0.0,6.3384,6.7723,7.1055,7.3123,7.5143,7.5797,7.4887,7.3934,7.2181,0.0,0.0,0.0,0.0,0.0,0.0,0.0,0.0,0.0,0.0,0.0,0.0,0.0,0.0,0.0,0.0,0.0,0.0,0.0,0.0,0.0,0.0,0.0,0.0,0.0,0.0,0.0,0.0,0.0,0.0,0.0,0.0,0.0,0.0,0.0,0.0,0.0,0.0,0.0,0.0,0.0,7.595,7.7606,8.038,8.2573,0.0,0.0,8.3428,8.3735,8.3601,0.0,0.0,0.0,0.0,0.0,0.0,0.0,0.0,0.0,0.0,0.0,0.0,0.0,0.0,0.0,0.0,0.0,0.0,0.0,0.0,0.0,0.0,0.0,0.0,0.0,0.0,0.0,0.0,0.0,0.0,0.0,0.0,0.0,0.0,0.0,0.0,0.0,0.0,0.0,0.0,0.0,0.0,0.0,0.0,0.0,0.0,0.0,0.0,0.0,0.0,0.0,0.0,0.0,0.0,0.0,0.0,6.3164,6.6382,6.9424,7.2273,7.4327,7.4899,7.3969,7.2216,7.0118,0.0,0.0,0.0,0.0,0.0,0.0,0.0,0.0,0.0,0.0,0.0,0.0,0.0,0.0,0.0,0.0,0.0,0.0,0.0,0.0,0.0,0.0,0.0,0.0,0.0,0.0,0.0,0.0,0.0,0.0,0.0,0.0,0.0,0.0,0.0,0.0,0.0,0.0,0.0,0.0,0.0,7.2845,7.4355,7.6333,0.0,0.0,0.0,0.0,8.3593,8.2629,0.0,0.0,0.0,0.0,0.0,0.0,0.0,0.0,0.0,0.0,0.0,0.0,0.0,0.0,0.0,0.0,0.0,0.0,0.0,0.0,0.0,0.0,0.0,0.0,0.0,0.0,0.0,0.0,0.0,0.0,0.0,0.0,0.0,0.0,0.0,0.0,0.0,0.0,0.0,0.0,0.0,0.0,0.0,0.0,0.0,0.0,0.0,0.0,0.0,0.0,0.0,0.0,0.0,0.0,0.0,0.0,6.0951,6.4427,6.7433,6.9849,7.1759,7.2641,7.2396,7.0403,6.8554,0.0,0.0,0.0,0.0,0.0,0.0,0.0,0.0,0.0,0.0,0.0,0.0,0.0,0.0,0.0,0.0,0.0,0.0,0.0,0.0,0.0,0.0,0.0,0.0,0.0,0.0,0.0,0.0,0.0,0.0,0.0,0.0,0.0,0.0,0.0,0.0,0.0,0.0,0.0,0.0,6.9807,7.1659,7.2435,0.0,0.0,0.0,0.0,0.0,0.0,7.8285,7.7395,0.0,0.0,0.0,0.0,0.0,0.0,0.0,0.0,0.0,0.0,0.0,0.0,0.0,0.0,0.0,0.0,0.0,0.0,0.0,0.0,0.0,0.0,0.0,0.0,0.0,0.0,0.0,0.0,0.0,0.0,0.0,0.0,0.0,0.0,0.0,0.0,0.0,0.0,0.0,0.0,0.0,0.0,0.0,0.0,0.0,0.0,0.0,0.0,0.0,0.0,0.0,0.0,0.0,0.0,0.0,5.8507,6.2254,6.5203,6.7301,6.9084,7.02,7.0629,6.8811,6.7145,6.5711,0.0,0.0,0.0,0.0,0.0,0.0,0.0,0.0,0.0,0.0,0.0,0.0,0.0,0.0,0.0,0.0,0.0,0.0,0.0,0.0,0.0,0.0,0.0,0.0,0.0,0.0,0.0,0.0,0.0,0.0,0.0,0.0,0.0,0.0,0.0,0.0,0.0,0.0,0.0,6.8402,7.0642,0.0,0.0,0.0,0.0,0.0,0.0,0.0,0.0,7.3731,0.0,0.0,0.0,0.0,0.0,0.0,0.0,0.0,0.0,0.0,0.0,0.0,0.0,0.0,0.0,0.0,0.0,0.0,0.0,0.0,0.0,0.0,0.0,0.0,0.0,0.0,0.0,0.0,0.0,0.0,0.0,0.0,0.0,0.0,0.0,0.0,0.0,0.0,0.0,0.0,0.0,0.0,0.0,0.0,0.0,0.0,0.0,0.0,0.0,0.0,0.0,0.0,0.0,0.0,0.0,0.0,6.0366,6.3148,6.696,6.786,6.8378,6.8819,6.8009,6.5843,6.24,0.0,0.0,0.0,0.0,0.0,0.0,0.0,0.0,0.0,0.0,0.0,0.0,0.0,0.0,0.0,0.0,0.0,0.0,0.0,0.0,0.0,0.0,0.0,0.0,0.0,0.0,0.0,0.0,0.0,0.0,0.0,0.0,0.0,0.0,0.0,0.0,0.0,0.0,6.2047,6.52,0.0,0.0,0.0,0.0,0.0,0.0,0.0,0.0,7.3873,0.0,0.0,0.0,0.0,0.0,0.0,0.0,0.0,0.0,0.0,0.0,0.0,0.0,0.0,0.0,0.0,0.0,0.0,0.0,0.0,0.0,0.0,0.0,0.0,0.0,0.0,0.0,0.0,0.0,0.0,0.0,0.0,0.0,0.0,0.0,0.0,0.0,0.0,0.0,0.0,0.0,0.0,0.0,0.0,0.0,0.0,0.0,0.0,0.0,0.0,0.0,0.0,0.0,0.0,0.0,0.0,0.0,0.0,6.1964,6.4747,6.6011,6.6811,6.711,6.5667,6.338,0.0,0.0,0.0,0.0,0.0,0.0,0.0,0.0,0.0,0.0,0.0,0.0,0.0,0.0,0.0,0.0,0.0,0.0,0.0,0.0,0.0,0.0,0.0,0.0,0.0,0.0,0.0,0.0,0.0,0.0,0.0,0.0,0.0,0.0,0.0,0.0,0.0,0.0,0.0,0.0,0.0,0.0,0.0,0.0,0.0,0.0,0.0,0.0,0.0,0.0,0.0,0.0,0.0,0.0,0.0,0.0,0.0,0.0,0.0,0.0,0.0,0.0,0.0,0.0,0.0,0.0,0.0,0.0,0.0,0.0,0.0,0.0,0.0,0.0,0.0,0.0,0.0,0.0,0.0,0.0,0.0,0.0,0.0,0.0,0.0,0.0,0.0,0.0,0.0,0.0,0.0,0.0,0.0,0.0,0.0,0.0,0.0,0.0,0.0,0.0,0.0,0.0,0.0,0.0,0.0,0.0,0.0,0.0,6.0602,6.2312,6.4051,6.522,6.554,6.2697,6.0314,0.0,0.0,0.0,0.0,0.0,0.0,0.0,0.0,0.0,0.0,0.0,0.0,0.0,0.0,0.0,0.0,0.0,0.0,0.0,0.0,0.0,0.0,0.0,0.0,0.0,0.0,0.0,0.0,0.0,0.0,0.0,0.0,0.0,0.0,0.0,0.0,0.0,0.0,0.0,0.0,0.0,0.0,0.0,0.0,0.0,0.0,0.0,0.0,6.7966,0.0,0.0,0.0,0.0,0.0,0.0,0.0,0.0,0.0,0.0,0.0,0.0,0.0,0.0,0.0,0.0,0.0,0.0,0.0,0.0,0.0,0.0,0.0,0.0,0.0,0.0,0.0,0.0,0.0,0.0,0.0,0.0,0.0,0.0,0.0,0.0,0.0,0.0,0.0,0.0,0.0,0.0,0.0,0.0,0.0,0.0,0.0,0.0,0.0,0.0,0.0,0.0,0.0,0.0,0.0,0.0,0.0,0.0,0.0,5.8083,6.0846,6.2546,6.3517,6.366,5.9084,5.663,0.0,0.0,0.0,0.0,0.0,0.0,0.0,0.0,0.0,0.0,0.0,0.0,0.0,0.0,0.0,0.0,0.0,0.0,0.0,0.0,0.0,0.0,0.0,0.0,0.0,0.0,0.0,0.0,0.0,0.0,0.0,0.0,0.0,0.0,0.0,0.0,0.0,0.0,0.0,0.0,0.0,0.0,0.0,0.0,0.0,0.0,0.0,0.0,0.0,0.0,0.0,0.0,0.0,0.0,0.0,0.0,0.0,0.0,0.0,0.0,0.0,0.0,0.0,0.0,0.0,0.0,0.0,0.0,0.0,0.0,0.0,0.0,0.0,0.0,0.0,0.0,0.0,0.0,0.0,0.0,0.0,0.0,0.0,0.0,0.0,0.0,0.0,0.0,0.0,0.0,0.0,0.0,0.0,0.0,0.0,0.0,0.0,0.0,0.0,0.0,0.0,0.0,0.0,0.0,0.0,0.0,0.0,0.0,5.6026,5.8101,5.8979,5.9444,5.9612,5.7066,5.5979,0.0,0.0,0.0,0.0,0.0,0.0,0.0,0.0,0.0,0.0,0.0,0.0,0.0,0.0,0.0,0.0,0.0,0.0,0.0,0.0,0.0,0.0,0.0,0.0,0.0,0.0,0.0,0.0,0.0,0.0,0.0,0.0,0.0,0.0,0.0,0.0,0.0,0.0,0.0,0.0,0.0,0.0,0.0,0.0,0.0,0.0,0.0,0.0,0.0,0.0,0.0,0.0,0.0,0.0,0.0,0.0,0.0,0.0,0.0,0.0,0.0,0.0,0.0,0.0,0.0,0.0,0.0,0.0,0.0,0.0,0.0,0.0,0.0,0.0,0.0,0.0,0.0,0.0,0.0,0.0,0.0,0.0,0.0,0.0,0.0,0.0,0.0,0.0,0.0,0.0,0.0,0.0,0.0,0.0,0.0,0.0,0.0,0.0,0.0,0.0,0.0,0.0,0.0,0.0,0.0,0.0,0.0,0.0,0.0,5.5715,5.5476,5.5432,5.5636,5.5205,5.5261,0.0,0.0,0.0,0.0,0.0,0.0,0.0,0.0,0.0,0.0,0.0,0.0,0.0,0.0,0.0,0.0,0.0,0.0,0.0,0.0,0.0,0.0,0.0,0.0,0.0,0.0,0.0,0.0,0.0,0.0,0.0,0.0,0.0,0.0,0.0,0.0,0.0,0.0,0.0,0.0,0.0,0.0,0.0,0.0,0.0,0.0,0.0,0.0,0.0,0.0,0.0,0.0,0.0,0.0,0.0,0.0,0.0,0.0,0.0,0.0,0.0,0.0,0.0,0.0,0.0,0.0,0.0,0.0,0.0,0.0,0.0,0.0,0.0,0.0,0.0,0.0,0.0,0.0,0.0,0.0,0.0,0.0,0.0,0.0,0.0,0.0,0.0,0.0,0.0,0.0,0.0,0.0,0.0,0.0,0.0,0.0,0.0,0.0,0.0,0.0,0.0,0.0,0.0,0.0,0.0,0.0,0.0,0.0,0.0,5.4151,5.2804,5.2392,5.2781,5.3181,5.3693,0.0,0.0,0.0,0.0,0.0,0.0,0.0,0.0,0.0,0.0,0.0,0.0,0.0,0.0,0.0,0.0,0.0,0.0,0.0,0.0,0.0,0.0,0.0,0.0,0.0,0.0,0.0,0.0,0.0,0.0,0.0,0.0,0.0,0.0,0.0,0.0,0.0,0.0,0.0,0.0,0.0,0.0,0.0,0.0,0.0,0.0,0.0,0.0,0.0,0.0,0.0,0.0,0.0,0.0,0.0,0.0,0.0,0.0,0.0,0.0,0.0,0.0,0.0,0.0,0.0,0.0,0.0,0.0,0.0,0.0,0.0,0.0,0.0,0.0,0.0,0.0,0.0,0.0,0.0,0.0,0.0,0.0,0.0,0.0,0.0,0.0,0.0,0.0,0.0,0.0,0.0,0.0,0.0,0.0,0.0,0.0,0.0,0.0,0.0,0.0,0.0,0.0,0.0,0.0,0.0,0.0,0.0,0.0,0.0,5.2656,5.2163,5.2128,5.2483,5.2964,5.3542,5.4228,0.0,0.0,0.0,0.0,0.0,0.0,0.0,0.0,0.0,0.0,0.0,0.0,0.0,0.0,0.0,0.0,0.0,0.0,0.0,0.0,0.0,0.0,0.0,0.0,0.0,0.0,0.0,0.0,0.0,0.0,0.0,0.0,0.0,0.0,0.0,0.0,0.0,0.0,0.0,0.0,0.0,0.0,0.0,0.0,0.0,0.0,0.0,0.0,0.0,0.0,0.0,0.0,0.0,0.0,0.0,0.0,0.0,0.0,0.0,0.0,0.0,0.0,0.0,0.0,0.0,0.0,0.0,0.0,0.0,0.0,0.0,0.0,0.0,0.0,0.0,0.0,0.0,0.0,0.0,0.0,0.0,0.0,0.0,0.0,0.0,0.0,0.0,0.0,0.0,0.0,0.0,0.0,0.0,0.0,0.0,0.0,0.0,0.0,0.0,0.0,0.0,0.0,0.0,0.0,0.0,0.0,0.0,0.0,5.1883,5.1883,5.2046,5.2499,5.2918,5.3454,0.0,0.0,0.0,0.0,0.0,0.0,0.0,0.0,0.0,0.0,0.0,0.0,0.0,0.0,0.0,0.0,0.0,0.0,0.0,0.0,0.0,0.0,0.0,0.0,0.0,0.0,0.0,0.0,0.0,0.0,0.0,0.0,0.0,0.0,0.0,0.0,0.0,0.0,0.0,0.0,0.0,0.0,0.0,0.0,0.0,0.0,0.0,0.0,0.0,0.0,0.0,0.0,0.0,0.0,0.0,0.0,0.0,0.0,0.0,0.0,0.0,0.0,0.0,0.0,0.0,0.0,0.0,0.0,0.0,0.0,0.0,0.0,0.0,0.0,0.0,0.0,0.0,0.0,0.0,0.0,0.0,0.0,0.0,0.0,0.0,0.0,0.0,0.0,0.0,0.0,0.0,0.0,0.0,0.0,0.0,0.0,0.0,0.0,0.0,0.0,0.0,0.0,0.0,0.0,0.0,0.0,0.0,0.0,5.1883,5.1883,5.1883,5.2046,5.2499,5.2763,5.3246,0.0,0.0,0.0,0.0,0.0,0.0,0.0,0.0,0.0,0.0,0.0,0.0,0.0,0.0,0.0,0.0,0.0,0.0,0.0,0.0,0.0,0.0,0.0,0.0,0.0,0.0,0.0,0.0,0.0,0.0,0.0,0.0,0.0,0.0,0.0,0.0,0.0,0.0,0.0,0.0,0.0,0.0,0.0,0.0,0.0,0.0,0.0,0.0,0.0,0.0,0.0,0.0,0.0,0.0,0.0,0.0,0.0,0.0,0.0,0.0,0.0,0.0,0.0,0.0,0.0,0.0,0.0,0.0,0.0,0.0,0.0,0.0,0.0,0.0,0.0,0.0,0.0,0.0,0.0,0.0,0.0,0.0,0.0,0.0,0.0,0.0,0.0,0.0,0.0,0.0,0.0,0.0,0.0,0.0,0.0,0.0,0.0,0.0,0.0,0.0,0.0,0.0,0.0,0.0,0.0,0.0,0.0,0.0,0.0,5.1883,0.0,5.2112,0.0,5.2748,5.3246,0.0,0.0,0.0,0.0,0.0,0.0,0.0,0.0,0.0,0.0,0.0,0.0,0.0,0.0,0.0,0.0,0.0,0.0,0.0,0.0,0.0,0.0,0.0,0.0,0.0,0.0,0.0,0.0,0.0,0.0,0.0,0.0,0.0,0.0,0.0,0.0,0.0,0.0,0.0,0.0,0.0,0.0,0.0,0.0,0.0,0.0,0.0,0.0,0.0,0.0,0.0,0.0,0.0,0.0,0.0,0.0,0.0,0.0,0.0,0.0,0.0,0.0,0.0,0.0,0.0,0.0,0.0,0.0,0.0,0.0,0.0,0.0,0.0,0.0,0.0,0.0,0.0,0.0,0.0,0.0,0.0,0.0,0.0,0.0,0.0,0.0,0.0,0.0,0.0,0.0,0.0,0.0,0.0,0.0,0.0,0.0,0.0,0.0,0.0,0.0,0.0,0.0,0.0,0.0,0.0,0.0,0.0,0.0,0.0,5.1883,5.1883,5.2046,5.2499,5.2681,5.3231,0.0,0.0,0.0,0.0,0.0,0.0,0.0,0.0,0.0,0.0,0.0,0.0,0.0,0.0,0.0,0.0,0.0,0.0,0.0,0.0,0.0,0.0,0.0,0.0,0.0,0.0,0.0,0.0,0.0,0.0,0.0,0.0,0.0,0.0,0.0,0.0,0.0,0.0,0.0,0.0,0.0,0.0,0.0,0.0,0.0,0.0,0.0,0.0,0.0,0.0,0.0,0.0,0.0,0.0,0.0,0.0,0.0,0.0,0.0,0.0,0.0,0.0,0.0,0.0,0.0,0.0,0.0,0.0,0.0,0.0,0.0,0.0,0.0,0.0,0.0,0.0,0.0,0.0,0.0,0.0,0.0,0.0,0.0,0.0,0.0,0.0,0.0,0.0,0.0,0.0,0.0,0.0,0.0,0.0,0.0,0.0,0.0,0.0,0.0,0.0,0.0,0.0,0.0,0.0,0.0,0.0,0.0,0.0,0.0,0.0,5.1883,5.2046,5.2401,5.2748,5.3171,0.0,0.0,0.0,0.0,0.0,0.0,0.0,0.0,0.0,0.0,0.0,0.0,0.0,0.0,0.0,0.0,0.0,0.0,0.0,0.0,0.0,0.0,0.0,0.0,0.0,0.0,0.0,0.0,0.0,0.0,0.0,0.0,0.0,0.0,0.0,0.0,0.0,0.0,0.0,0.0,0.0,0.0,0.0,0.0,0.0,0.0,0.0,0.0,0.0,0.0,0.0,0.0,0.0,0.0,0.0,0.0,0.0,0.0,0.0,0.0,0.0,0.0,0.0,0.0,0.0,0.0,0.0,0.0,0.0,0.0,0.0,0.0,0.0,0.0,0.0,0.0,0.0,0.0,0.0,0.0,0.0,0.0,0.0,0.0,0.0,0.0,0.0,0.0,0.0,0.0,0.0,0.0,0.0,0.0,0.0,0.0,0.0,0.0,0.0,0.0,0.0,0.0,0.0,0.0,0.0,0.0,0.0,0.0,0.0,0.0,5.1883,0.0,5.2046,5.2587,5.3186,5.3847,0.0,0.0,0.0,0.0,0.0,0.0,0.0,0.0,0.0,0.0,0.0,0.0,0.0,0.0,0.0,0.0,0.0,0.0,0.0,0.0,0.0,0.0,0.0,0.0,0.0,0.0,0.0,0.0,0.0,0.0,0.0,0.0,0.0,0.0,0.0,0.0,0.0,0.0,0.0,0.0,0.0,0.0,0.0,0.0,0.0,0.0,0.0,0.0,0.0,0.0,0.0,0.0,0.0,0.0,0.0,0.0,0.0,0.0,0.0,0.0,0.0,0.0,0.0,0.0,0.0,0.0,0.0,0.0,0.0,0.0,0.0,0.0,0.0,0.0,0.0,0.0,0.0,0.0,0.0,0.0,0.0,0.0,0.0,0.0,0.0,0.0,0.0,0.0,0.0,0.0,0.0,0.0,0.0,0.0,0.0,0.0,0.0,0.0,0.0,0.0,0.0,0.0,0.0,0.0,0.0,0.0,0.0,0.0,0.0,0.0,0.0,5.1883,5.2465,5.305,0.0,0.0,0.0,0.0,0.0,0.0,0.0,0.0,0.0,0.0,0.0,0.0,0.0,0.0,0.0,0.0,0.0,0.0,0.0,0.0,0.0,0.0,0.0,0.0,0.0,0.0,0.0,0.0,0.0,0.0,0.0,0.0,0.0,0.0,0.0,0.0,0.0,0.0,0.0,0.0,0.0,0.0,0.0,0.0,0.0,0.0,0.0,0.0,0.0,0.0,0.0,0.0,0.0,0.0,0.0,0.0,0.0,0.0,0.0,0.0,0.0,0.0,0.0,0.0,0.0,0.0,0.0,0.0,0.0,0.0,0.0,0.0,0.0,0.0,0.0,0.0,0.0,0.0,0.0,0.0,0.0,0.0,0.0,0.0,0.0,0.0,0.0,0.0,0.0,0.0,0.0,0.0,0.0,0.0,0.0,0.0,0.0,0.0,0.0,0.0,0.0,0.0,0.0,0.0,0.0,0.0,0.0,0.0,0.0,0.0,0.0,5.1883,5.19,5.2257,0.0,5.3731,0.0,0.0,0.0,0.0,0.0,0.0,0.0,0.0,0.0,0.0,0.0,0.0,0.0,0.0,0.0,0.0,0.0,0.0,0.0,0.0,0.0,0.0,0.0,0.0,0.0,0.0,0.0,0.0,0.0,0.0,0.0,0.0,0.0,0.0,0.0,0.0,0.0,0.0,0.0,0.0,0.0,0.0,0.0,0.0,0.0,0.0,0.0,0.0,0.0,0.0,0.0,0.0,0.0,0.0,0.0,0.0,0.0,0.0,0.0,0.0,0.0,0.0,0.0,0.0,0.0,0.0,0.0,0.0,0.0,0.0,0.0,0.0,0.0,0.0,0.0,0.0,0.0,0.0,0.0,0.0,0.0,0.0,0.0,0.0,0.0,0.0,0.0,0.0,0.0,0.0,0.0,0.0,0.0,0.0,0.0,0.0,0.0,0.0,0.0,0.0,0.0,0.0,0.0,0.0,0.0,0.0,0.0,0.0,0.0,0.0,0.0,0.0,5.216,5.2496,5.2943,0.0,0.0,0.0,0.0,0.0,0.0,0.0,0.0,0.0,0.0,0.0,0.0,0.0,0.0,0.0,0.0,0.0,0.0,0.0,0.0,0.0,0.0,0.0,0.0,0.0,0.0,0.0,0.0,0.0,0.0,0.0,0.0,0.0,0.0,0.0,0.0,0.0,0.0,0.0,0.0,0.0,0.0,0.0,0.0,0.0,0.0,0.0,0.0,0.0,0.0,0.0,0.0,0.0,0.0,0.0,0.0,0.0,0.0,0.0,0.0,0.0,0.0,0.0,0.0,0.0,0.0,0.0,0.0,0.0,0.0,0.0,0.0,0.0,0.0,0.0,0.0,0.0,0.0,0.0,0.0,0.0,0.0,0.0,0.0,0.0,0.0,0.0,0.0,0.0,0.0,0.0,0.0,0.0,0.0,0.0,0.0,0.0,0.0,0.0,0.0,0.0,0.0,0.0,0.0,0.0,0.0,0.0,0.0,0.0,0.0,5.1883,5.19,5.2144,5.2404,5.2607,0.0,0.0,0.0,0.0,0.0,0.0,0.0,0.0,0.0,0.0,0.0,0.0,0.0,0.0,0.0,0.0,0.0,0.0,0.0,0.0,0.0,0.0,0.0,0.0,0.0,0.0,0.0,0.0,0.0,0.0,0.0,0.0,0.0,0.0,0.0,0.0,0.0,0.0,0.0,0.0,0.0,0.0,0.0,0.0,0.0,0.0,0.0,0.0,0.0,0.0,0.0,0.0,0.0,0.0,0.0,0.0,0.0,0.0,0.0,0.0,0.0,0.0,0.0,0.0,0.0,0.0,0.0,0.0,0.0,0.0,0.0,0.0,0.0,0.0,0.0,0.0,0.0,0.0,0.0,0.0,0.0,0.0,0.0,0.0,0.0,0.0,0.0,0.0,0.0,0.0,0.0,0.0,0.0,0.0,0.0,0.0,0.0,0.0,0.0,0.0,0.0,0.0,0.0,0.0,0.0,0.0,0.0,0.0,0.0,0.0,0.0,0.0,0.0,0.0,5.2483,0.0,0.0,0.0,0.0,0.0,0.0,0.0,0.0,0.0,0.0,0.0,0.0,0.0,0.0,0.0,0.0,0.0,0.0,0.0,0.0,0.0,0.0,0.0,0.0,0.0,0.0,0.0,0.0,0.0,0.0,0.0,0.0,0.0,0.0,0.0,0.0,0.0,0.0,0.0,0.0,0.0,0.0,0.0,0.0,0.0,0.0,0.0,0.0,0.0,0.0,0.0,0.0,0.0,0.0,0.0,0.0,0.0,0.0,0.0,0.0,0.0,0.0,0.0,0.0,0.0,0.0,0.0,0.0,0.0,0.0,0.0,0.0,0.0,0.0,0.0,0.0,0.0,0.0,0.0,0.0,0.0,0.0,0.0,0.0,0.0,0.0,0.0,0.0,0.0,0.0,0.0,0.0,0.0,0.0,0.0,0.0,0.0,0.0,0.0,0.0,0.0,0.0,0.0,0.0,0.0,0.0,0.0,0.0,0.0,0.0,0.0,0.0,0.0,0.0,0.0,0.0,0.0,0.0,0.0,0.0,0.0,0.0,0.0,0.0,0.0,0.0,0.0,0.0,0.0,0.0,0.0,0.0,0.0,0.0,0.0,0.0,0.0,0.0,0.0,0.0,0.0,0.0,0.0,0.0,0.0,0.0,0.0,0.0,0.0,0.0,0.0,0.0,0.0,0.0,0.0,0.0,0.0,0.0,0.0,0.0,0.0,0.0,0.0,0.0,0.0,0.0,0.0,0.0,0.0,0.0,0.0,0.0,0.0,0.0,0.0,0.0,0.0,0.0,0.0,0.0,0.0,0.0,0.0,0.0,0.0,0.0,0.0,0.0,0.0,0.0,0.0,0.0,0.0,0.0,0.0,0.0,0.0,0.0,0.0,0.0,0.0,0.0,0.0,0.0,0.0,0.0,0.0,0.0,0.0,0.0,0.0,0.0,0.0,0.0,0.0,0.0,0.0,0.0,0.0,0.0,0.0,0.0,0.0,0.0,0.0,0.0,0.0,0.0,0.0,0.0,0.0,0.0,0.0,0.0,0.0,0.0,0.0,0.0,0.0,0.0,0.0,0.0,0.0,0.0,0.0,0.0,0.0,0.0,0.0,0.0,0.0,0.0,0.0,0.0,0.0,0.0,0.0,0.0,0.0,0.0,0.0,0.0,0.0,0.0,0.0,0.0,0.0,0.0,0.0,0.0,0.0,0.0,0.0,0.0,0.0,0.0,0.0,0.0,0.0,0.0,0.0,0.0,0.0,0.0,0.0,0.0,0.0,0.0,0.0,0.0,0.0,0.0,0.0,0.0,0.0,0.0,0.0,0.0,0.0,0.0,0.0,0.0,0.0,0.0,0.0,0.0,0.0,0.0,0.0,0.0,0.0,0.0,0.0,0.0,0.0,0.0,0.0,0.0,0.0,0.0,0.0,0.0,0.0,0.0,0.0,0.0,0.0,0.0,0.0,0.0,0.0,0.0,0.0,0.0,0.0,0.0,0.0,0.0,0.0,0.0,0.0,0.0,0.0,0.0,0.0,0.0,0.0,0.0,0.0,0.0,0.0,0.0,0.0,0.0,0.0,0.0,0.0,0.0,0.0,0.0,0.0,0.0,0.0,0.0,0.0,0.0,0.0,0.0,0.0,0.0,0.0,0.0,0.0,0.0,0.0,0.0,0.0,0.0,0.0,0.0,0.0,0.0,0.0,0.0,0.0,0.0,0.0,0.0,0.0,0.0,0.0,0.0,0.0,0.0,0.0,0.0,0.0,0.0,0.0,0.0,0.0,0.0,0.0,0.0,0.0,0.0,0.0,0.0,0.0,0.0,0.0,0.0,0.0,0.0,0.0,0.0,0.0,0.0,0.0,0.0,0.0,0.0,0.0,0.0,0.0,0.0,0.0,0.0,0.0,0.0,0.0,0.0,0.0,0.0,0.0,0.0,0.0,0.0,0.0,0.0,0.0,0.0,0.0,0.0,0.0,0.0,0.0,0.0,0.0,0.0,0.0,0.0,0.0,0.0,0.0,0.0,0.0,0.0,0.0,0.0,0.0,0.0,0.0,0.0,0.0,0.0,0.0,0.0,0.0,0.0,0.0,0.0,0.0,0.0,0.0,0.0,0.0,0.0,0.0,0.0,0.0,0.0,0.0,0.0,0.0,0.0,0.0,0.0,0.0,0.0,0.0,0.0,0.0,0.0,0.0,0.0,0.0,0.0,0.0,0.0,0.0,0.0,0.0,0.0,0.0,0.0,0.0,0.0,0.0,0.0,0.0,0.0,0.0,0.0,0.0,0.0,0.0,0.0,0.0,0.0,0.0,0.0,0.0,0.0,0.0,0.0,0.0,0.0,0.0,0.0,0.0,0.0,0.0,0.0,0.0,0.0,0.0,0.0,0.0,0.0,0.0,0.0,0.0,0.0,0.0,0.0,0.0,0.0,0.0,0.0,0.0,0.0,0.0,0.0,0.0,0.0,0.0,0.0,0.0,0.0,0.0,0.0,0.0,0.0,0.0,0.0,0.0,0.0,0.0,0.0,0.0,0.0,0.0,0.0,0.0,0.0,0.0,0.0,0.0,0.0,0.0,0.0,0.0,0.0,0.0,0.0,0.0,0.0,0.0,0.0,0.0,0.0,0.0,0.0,0.0,0.0,0.0,0.0,0.0,0.0,0.0,0.0,0.0,0.0,0.0,0.0,0.0,0.0,0.0,0.0,0.0,0.0,0.0,0.0,0.0,0.0,0.0,0.0,0.0,0.0,0.0,0.0,0.0,0.0,0.0,0.0,0.0,0.0,0.0,0.0,0.0,0.0,0.0,0.0,0.0,0.0,0.0,0.0,0.0,0.0,0.0,0.0,0.0,0.0,0.0,0.0,0.0,0.0,0.0,0.0,0.0,0.0,0.0,0.0,0.0,0.0,0.0,0.0,0.0,0.0,0.0,0.0,0.0,0.0,0.0,0.0,0.0,0.0,0.0,0.0,0.0,0.0,0.0,0.0,0.0,0.0,0.0,0.0,0.0,0.0,0.0,0.0,0.0,0.0,0.0,0.0,0.0,0.0,0.0,0.0,0.0,0.0,0.0,0.0,0.0,0.0,0.0,0.0,0.0,0.0,0.0,0.0,0.0,0.0,0.0,0.0,0.0,0.0,0.0,0.0,0.0,0.0,0.0,0.0,0.0,0.0,0.0,0.0,0.0,0.0,0.0,0.0,0.0,0.0,0.0,0.0,0.0,0.0,0.0,0.0,0.0,0.0,0.0,0.0,0.0,0.0,0.0,0.0,0.0,0.0,0.0,0.0,0.0,0.0,0.0,0.0,0.0,0.0,0.0,0.0,0.0,0.0,0.0,0.0,0.0,0.0,0.0,0.0,0.0,0.0,0.0,0.0,0.0,0.0,0.0,0.0,0.0,0.0,0.0,0.0,0.0,0.0,0.0,0.0,0.0,0.0,0.0,0.0,0.0,0.0,0.0,0.0,0.0,0.0,0.0,0.0,0.0,0.0,0.0,0.0,0.0,0.0,0.0,0.0,0.0,0.0,0.0,0.0,0.0,0.0,0.0,0.0,0.0,0.0,0.0,0.0,0.0,0.0,0.0,0.0,0.0,0.0,0.0,0.0,0.0,0.0,0.0,0.0,0.0,0.0,0.0,0.0,0.0,0.0,0.0,0.0,0.0,0.0,0.0,0.0,0.0,0.0,0.0,0.0,0.0,0.0,0.0,0.0,0.0,0.0,0.0,0.0,0.0,0.0,0.0,0.0,0.0,0.0,0.0,0.0,0.0,0.0,0.0,0.0,0.0,0.0,0.0,0.0,0.0,0.0,0.0,0.0,0.0,0.0,0.0,0.0,0.0,0.0,0.0,0.0,0.0,0.0,0.0,0.0,0.0,0.0,0.0,0.0,0.0,0.0,0.0,0.0,0.0,0.0,0.0,0.0,0.0,0.0,0.0,0.0,0.0,0.0,0.0,0.0,0.0,0.0,0.0,0.0,0.0,0.0,0.0,0.0,0.0,0.0,0.0,0.0,0.0,0.0,0.0,0.0,0.0,0.0,0.0,0.0,0.0,0.0,0.0,0.0,0.0,0.0,0.0,0.0,0.0,0.0,0.0,0.0,0.0,0.0,0.0,0.0,0.0,0.0,0.0,0.0,0.0,0.0,0.0,0.0,0.0,0.0,0.0,0.0,0.0,0.0,0.0,0.0,0.0,0.0,0.0,0.0,0.0,0.0,0.0,0.0,0.0,0.0,0.0,0.0,0.0,0.0,0.0,0.0,0.0,0.0,0.0,0.0,0.0,0.0,0.0,0.0,0.0,0.0,0.0,0.0,0.0,0.0,0.0,0.0,0.0,0.0,0.0,0.0,0.0,0.0,0.0,0.0,0.0,0.0]}]]]